GFSMW_925_thetae_000.txt.gz
Theta_e
314 311 308 307 305 304 303 303 303 303 302 303 303 303 303 303 304 303 302 303 302 302 302 302 302 302 302 302 301 300 300 301 304 304 309 313 318 322 321 319 321 319 318
313 310 309 307 306 305 304 304 303 303 303 303 303 303 303 302 302 302 303 303 302 302 301 301 301 301 301 301 301 301 300 300 301 302 302 314 318 319 318 320 321 320 317
313 311 309 308 307 306 305 304 304 303 302 302 302 302 301 301 302 302 302 303 303 303 303 302 301 301 301 301 301 300 300 300 299 300 302 304 311 309 313 318 319 320 318
311 310 309 308 307 307 306 305 304 303 302 302 302 302 302 302 302 301 302 302 302 302 302 302 302 302 301 301 300 299 300 300 300 299 299 302 300 302 304 307 309 315 318
311 311 309 308 307 307 306 305 303 303 302 302 302 302 302 301 301 301 301 301 301 301 301 301 302 302 302 301 301 301 300 299 299 299 299 299 299 299 303 302 304 309 308
312 311 308 306 307 306 306 305 304 303 302 302 301 301 301 301 301 300 300 299 299 299 299 299 299 299 299 299 300 300 300 300 300 299 299 298 299 299 299 304 304 302 302
313 312 311 308 306 306 305 304 303 303 302 301 301 301 301 300 299 298 298 297 297 296 296 295 295 295 295 295 296 296 297 298 298 298 298 298 298 297 297 297 299 300 300
314 312 310 308 307 306 305 304 302 302 302 300 300 299 298 297 297 295 295 294 294 293 293 293 293 293 293 293 293 293 294 294 296 297 298 298 297 296 296 296 297 299 299
313 312 310 307 306 306 305 304 303 301 300 299 298 297 296 295 294 294 293 293 292 292 291 291 291 291 292 292 293 293 294 295 295 297 297 298 298 296 296 296 296 297 298
314 313 312 310 308 307 305 303 302 300 299 297 296 296 295 293 293 293 292 292 292 291 291 290 291 291 291 291 291 292 292 293 294 295 296 297 297 296 296 296 296 296 297
314 313 312 310 309 305 302 300 299 299 297 296 295 294 294 293 292 292 292 291 291 290 290 290 290 290 290 290 290 291 291 292 292 293 294 295 296 296 296 295 295 295 296
314 313 312 310 307 302 300 299 298 297 296 295 294 293 293 292 292 292 291 290 290 289 289 289 289 288 288 288 289 289 290 290 291 292 292 293 295 295 295 295 295 294 294
313 312 313 309 304 301 299 298 297 296 295 294 293 293 292 292 292 291 290 290 289 289 288 288 287 287 287 287 288 288 289 289 290 291 291 292 292 293 294 294 294 294 294
311 312 312 308 302 299 298 297 296 295 295 294 293 293 292 292 291 290 290 289 288 287 287 286 286 286 286 287 287 287 288 288 288 288 288 289 291 292 292 293 293 294 294
312 312 309 306 301 298 297 296 296 295 294 294 293 293 292 291 290 289 289 288 287 286 286 286 285 286 286 286 286 286 286 286 286 286 286 287 287 288 289 291 292 293 294
312 309 306 302 299 297 296 297 296 297 295 294 293 292 291 290 289 288 288 286 286 285 285 285 285 286 286 285 284 283 283 283 284 285 285 286 286 287 287 287 288 290 292
307 308 303 300 297 296 298 299 299 296 294 293 292 291 290 289 288 287 286 285 285 285 285 285 285 285 285 284 283 283 282 283 284 285 285 286 286 286 287 287 287 287 288
305 306 301 297 297 299 299 298 295 294 293 292 291 290 289 288 287 286 285 284 284 284 284 285 285 284 284 283 283 282 282 283 284 284 285 285 286 286 287 287 288 288 289
303 300 298 298 299 300 299 296 294 293 291 291 290 289 288 287 285 285 284 283 283 284 284 284 284 283 283 283 282 282 282 283 284 284 284 285 285 286 286 286 287 287 288
305 300 299 300 299 299 297 293 293 292 291 290 288 287 287 285 284 283 283 283 283 284 283 283 282 282 282 282 282 282 283 283 284 285 285 285 285 286 286 286 286 288 288
304 299 297 297 298 297 293 292 292 291 289 287 287 287 285 284 283 282 283 283 283 283 282 282 282 282 283 283 284 284 284 285 285 286 287 287 287 286 285 286 286 287 287
297 296 298 298 297 297 293 292 291 288 287 287 286 285 284 283 282 282 282 283 283 283 283 282 283 284 285 286 286 285 285 285 285 286 286 287 286 285 287 286 286 286 287
297 298 298 297 297 292 291 291 289 287 287 286 286 285 283 282 282 282 282 283 283 282 282 283 284 285 286 286 285 285 285 284 283 284 285 282 283 284 285 287 286 286 286
299 297 297 295 293 291 289 289 287 286 286 286 285 284 282 281 281 281 282 282 282 282 282 283 284 284 285 285 285 284 284 285 285 285 284 284 284 287 288 288 286 286 287
297 296 294 293 291 290 288 287 286 285 286 284 283 282 281 281 281 281 282 281 281 281 281 282 282 283 283 283 283 283 283 283 283 282 284 285 284 286 288 288 288 287 287
296 295 293 291 290 289 288 287 285 284 284 284 283 281 280 281 281 282 282 282 281 280 281 281 280 281 281 282 283 283 282 282 282 284 284 284 284 284 284 285 288 288 288

GFSMW_925_thetae_003.txt.gz
Theta_e
317 316 315 313 311 311 309 308 308 307 306 306 306 306 307 307 307 306 306 306 305 304 305 304 304 304 304 304 304 304 303 303 303 303 305 304 306 312 321 322 322 322 321
317 316 315 313 312 311 310 308 308 307 306 306 306 306 307 306 306 306 306 306 305 305 304 304 304 303 303 304 304 303 303 303 303 302 302 306 307 308 314 318 320 322 322
315 315 314 313 313 312 311 309 308 307 307 306 306 305 305 305 305 305 305 306 306 305 305 305 304 304 304 303 303 303 303 302 302 302 302 303 306 307 303 309 311 317 320
316 314 314 314 313 312 311 310 309 308 307 306 305 305 305 305 305 305 304 304 304 305 305 304 303 303 303 303 303 302 302 302 302 303 302 303 302 304 304 302 302 307 309
316 315 315 314 313 312 311 311 310 308 307 306 305 304 304 305 304 304 304 304 304 303 303 303 302 302 302 302 302 302 302 302 303 303 303 303 303 303 305 305 304 303 306
316 315 314 314 312 312 312 311 310 309 307 306 305 304 304 304 304 303 303 303 301 301 301 300 300 300 300 300 300 300 301 301 301 302 302 302 303 303 304 305 305 304 304
316 316 315 314 313 311 311 311 310 309 308 306 305 304 304 304 303 303 301 300 299 298 298 298 297 296 296 296 296 296 297 297 298 299 300 300 300 301 301 302 303 304 301
316 316 315 314 313 312 311 311 310 309 307 306 305 304 303 303 302 300 299 297 297 297 296 295 295 294 294 294 294 294 295 295 296 297 297 298 299 300 300 301 302 303 303
316 317 316 314 313 312 311 311 311 310 308 306 305 304 302 301 299 298 297 296 296 295 294 294 294 293 293 293 293 294 294 295 295 297 298 298 298 299 300 301 301 301 302
317 316 315 314 313 312 312 311 310 309 308 305 303 301 299 298 296 296 295 295 294 294 294 293 293 292 292 292 293 293 293 294 294 295 296 296 297 298 299 299 300 300 300
316 315 315 313 313 313 311 309 308 307 305 303 301 298 297 296 295 295 294 294 294 293 292 292 292 292 292 292 292 292 292 293 293 293 294 295 295 296 297 297 298 299 298
316 315 314 313 313 312 309 307 305 303 302 300 298 296 296 295 294 294 294 293 293 292 292 291 291 291 291 291 291 291 291 291 291 292 293 293 294 295 295 296 297 298 298
315 314 313 314 312 310 307 305 303 302 300 298 297 295 295 295 295 294 293 293 292 292 291 291 290 290 290 290 290 290 290 290 290 291 291 292 293 293 294 295 296 297 297
314 313 313 313 311 309 306 303 302 300 298 297 296 296 296 295 294 293 293 292 292 291 290 290 289 289 289 289 289 289 289 289 289 290 290 289 290 290 291 293 294 295 295
314 313 312 311 311 307 304 302 300 298 297 297 297 297 295 295 294 293 292 292 291 290 289 288 288 288 288 288 288 288 288 287 287 286 286 287 287 287 288 289 290 291 293
313 312 310 310 309 304 302 301 298 298 298 299 298 296 295 294 293 292 291 290 289 288 288 288 288 288 287 287 287 286 286 285 284 284 284 285 285 286 286 286 287 287 289
313 310 309 309 307 302 300 299 299 300 300 297 296 295 293 292 292 291 290 289 288 288 287 287 287 287 287 287 286 284 284 284 284 284 284 285 285 286 286 287 287 287 287
309 307 308 308 303 300 300 300 300 299 297 297 295 293 292 291 291 290 289 288 287 287 287 286 286 286 286 285 284 284 283 283 283 283 284 285 285 286 286 287 288 288 288
306 308 306 306 300 300 301 301 299 297 296 294 293 292 291 291 290 288 288 287 286 286 286 285 285 284 284 283 283 283 283 284 284 284 284 285 285 286 286 286 286 287 288
307 306 305 300 300 299 299 299 297 295 295 293 292 291 290 289 288 287 287 286 286 285 285 284 284 283 283 284 284 284 285 286 286 285 285 285 285 285 285 286 286 287 287
305 303 299 298 300 299 298 296 295 295 293 291 291 290 289 288 287 286 286 285 285 285 285 284 284 283 284 285 286 286 285 285 285 285 286 287 287 287 286 286 286 287 287
304 299 299 300 299 298 297 296 295 292 290 290 290 289 288 288 286 285 285 285 284 285 284 284 284 284 285 285 285 285 285 284 284 285 284 285 286 285 285 284 284 286 287
300 299 299 299 298 296 294 293 292 290 290 290 289 288 288 287 285 284 284 284 284 284 283 283 284 284 284 284 284 284 284 285 284 285 285 284 284 284 284 284 284 284 286
298 300 299 297 296 294 291 291 290 289 289 289 288 287 287 285 284 284 284 284 283 283 283 282 283 283 283 283 283 284 284 283 284 285 284 284 285 286 286 288 288 285 287
299 298 297 296 294 293 291 290 289 288 288 288 287 287 285 284 284 284 283 283 283 283 282 282 282 282 282 282 283 283 283 283 284 283 285 286 286 286 287 289 288 287 287
298 297 296 294 293 292 290 290 289 288 287 287 287 285 283 283 284 283 283 283 282 282 281 282 281 281 281 282 283 284 284 284 284 286 285 285 285 285 286 288 288 288 288

GFSMW_925_thetae_006.txt.gz
Theta_e
318 317 317 316 314 313 313 311 310 310 309 308 308 308 308 308 308 308 307 307 307 306 305 305 305 305 305 304 304 304 304 303 304 304 303 303 303 304 305 308 318 320 322
318 318 317 316 314 314 313 311 310 310 309 308 308 307 308 308 308 307 307 306 306 305 305 305 304 304 304 304 304 305 304 304 303 304 304 303 303 304 303 304 305 311 314
316 316 316 315 315 314 314 313 311 310 309 308 308 308 307 307 306 306 306 306 306 306 306 305 305 304 304 304 304 303 303 303 304 303 304 304 304 303 303 303 302 303 302
317 316 315 315 315 314 314 313 313 311 310 309 308 307 307 306 306 305 305 305 306 306 306 305 305 304 303 303 303 304 303 303 304 304 304 303 303 303 303 303 303 302 302
317 317 316 315 314 313 314 313 313 312 311 310 309 307 307 306 306 305 305 305 304 304 304 304 303 303 303 302 302 301 301 302 303 303 304 303 303 303 303 303 302 303 303
317 316 316 315 315 314 312 312 312 312 312 311 309 308 306 306 306 305 305 304 303 302 301 301 300 299 299 299 298 298 298 298 299 299 300 301 301 301 301 301 301 301 302
317 317 316 316 315 314 313 313 312 312 312 311 311 308 307 305 305 305 304 302 302 300 299 298 297 297 296 296 295 295 295 296 297 297 297 297 298 299 299 299 298 298 299
318 317 318 317 315 314 314 313 312 312 312 311 311 310 307 306 305 304 303 300 298 298 298 297 296 295 294 294 294 294 294 295 295 295 296 297 297 298 298 298 299 299 299
318 318 317 316 315 314 314 313 313 313 312 311 311 309 307 305 304 302 300 298 297 296 296 295 295 294 294 294 294 294 294 294 294 295 295 295 296 297 298 297 297 298 298
318 317 316 315 314 314 314 313 313 311 310 309 309 307 305 303 301 298 297 296 296 295 295 294 293 293 293 293 293 293 293 293 294 294 294 295 295 296 296 296 297 298 299
318 317 316 314 313 313 312 311 310 308 307 306 305 303 301 300 298 296 296 295 295 294 294 293 293 292 292 292 292 292 292 292 292 292 293 293 293 293 294 295 295 296 296
316 315 314 313 313 313 312 312 309 306 305 304 302 300 299 297 296 295 295 295 294 294 293 292 292 292 292 292 291 291 291 291 291 291 292 292 292 293 293 294 294 295 295
315 314 314 313 312 311 311 311 307 305 303 301 299 298 297 296 295 296 295 295 294 293 292 292 292 291 291 291 290 290 290 290 290 290 290 290 291 291 292 292 293 293 294
315 314 313 312 311 311 310 309 305 303 301 299 298 297 296 295 296 295 294 294 293 293 292 291 291 290 289 289 289 289 289 289 289 290 290 290 290 290 290 290 290 291 291
314 313 312 311 310 310 309 305 303 302 300 299 297 297 298 297 296 295 294 293 292 292 291 290 289 289 289 289 289 288 288 287 287 287 287 287 286 286 287 287 288 288 289
313 312 311 309 309 309 308 302 301 300 299 298 300 299 298 296 295 294 293 292 292 291 289 289 289 289 288 288 287 287 286 286 286 285 285 285 285 285 285 285 286 286 287
312 311 309 308 308 307 303 301 301 301 301 300 298 297 296 295 293 292 292 292 290 289 289 288 288 287 287 287 286 285 285 284 284 284 284 284 284 284 285 285 286 286 286
310 309 308 308 307 303 301 301 302 301 298 297 297 297 294 293 292 292 291 289 289 288 288 287 287 286 286 285 284 283 283 284 284 284 284 284 284 284 284 285 286 286 287
308 307 307 306 303 301 301 300 300 299 298 297 295 294 293 292 292 290 289 288 287 287 287 286 286 285 285 284 284 284 284 285 285 285 285 285 285 285 285 286 286 286 286
307 306 305 303 301 300 300 300 300 299 296 295 294 292 292 291 290 289 288 287 287 286 286 285 285 285 284 284 284 285 286 286 286 285 286 285 286 286 285 286 286 286 286
305 305 302 301 300 300 300 298 296 296 295 292 291 291 291 290 289 288 287 286 286 285 285 285 284 284 284 284 284 285 285 285 284 285 285 285 285 285 285 286 286 286 286
305 302 301 300 300 299 299 297 295 292 291 291 291 290 289 289 288 287 285 285 285 285 285 284 284 283 283 283 283 284 284 283 284 285 285 285 285 285 285 285 285 285 286
301 300 300 300 299 298 295 294 292 291 290 290 290 289 288 288 287 285 285 285 285 284 284 284 283 282 283 283 283 283 283 284 283 283 284 284 285 284 284 284 285 285 284
299 299 299 298 297 295 293 291 290 290 290 289 288 288 288 287 285 285 285 284 284 283 283 282 282 282 282 282 282 282 284 285 284 284 285 285 285 285 286 287 287 286 286
298 298 298 297 296 294 292 291 290 289 288 288 288 288 287 285 284 285 284 284 283 282 282 282 282 282 281 281 282 284 284 284 284 285 284 284 285 284 284 285 288 286 286
298 298 297 295 294 293 292 291 290 288 287 286 287 286 284 284 285 284 284 283 282 282 282 282 282 281 281 281 282 283 285 284 284 284 284 283 283 284 284 284 288 287 287

GFSMW_925_thetae_009.txt.gz
Theta_e
313 315 315 315 314 314 313 312 311 310 310 309 308 308 309 309 309 309 308 310 308 307 306 305 306 305 305 304 305 304 304 304 303 303 303 302 302 303 302 303 302 303 302
311 314 315 314 314 313 313 312 312 310 310 309 308 308 307 307 307 308 308 308 307 307 306 305 305 304 304 303 303 304 304 304 303 304 302 300 302 302 303 302 302 302 303
312 312 313 315 314 314 314 313 312 311 310 309 309 308 307 307 308 307 308 307 306 306 305 305 305 304 304 304 304 304 303 303 304 302 303 302 302 302 303 303 303 302 302
312 312 313 313 314 314 314 314 313 312 312 310 309 308 308 307 307 307 306 306 306 306 306 306 306 305 304 303 304 304 302 301 302 302 302 302 303 303 302 302 302 302 302
311 312 313 314 314 313 313 314 314 313 313 312 311 309 308 308 307 307 306 306 305 306 306 306 304 303 303 303 301 300 300 298 298 299 299 299 300 300 300 300 300 300 300
312 312 315 315 314 314 313 312 312 312 312 312 312 311 310 308 307 306 306 305 304 304 303 303 302 301 299 297 296 296 295 295 294 294 296 297 298 298 298 298 298 298 298
312 313 314 313 314 314 313 313 313 313 312 312 312 312 311 310 308 307 306 305 303 300 299 298 298 298 297 298 297 295 294 293 293 294 295 295 296 296 296 296 296 295 296
313 313 314 314 313 314 314 314 313 313 313 313 312 311 311 311 310 307 305 304 300 298 297 296 295 295 295 295 295 295 293 293 293 294 294 294 294 295 295 296 296 296 296
315 315 313 313 313 313 313 311 311 311 310 310 309 308 308 309 307 305 302 298 297 296 296 296 295 295 295 295 294 294 293 293 293 293 293 294 294 294 294 295 295 295 296
314 312 311 312 312 312 312 311 311 310 310 307 307 306 305 304 302 299 297 296 295 296 296 296 297 295 294 294 292 292 292 292 292 292 293 293 293 293 294 294 295 295 295
311 310 311 312 312 311 311 310 309 309 309 306 305 304 302 301 298 297 296 297 296 296 296 295 294 294 293 292 292 292 292 292 291 291 291 291 292 292 292 293 293 293 293
311 310 310 311 311 311 310 309 309 309 305 304 302 300 299 298 296 296 295 295 295 294 295 294 293 292 292 292 292 291 291 290 290 290 290 290 290 290 290 291 291 291 292
311 310 310 310 309 309 309 309 308 305 303 301 299 298 297 296 295 295 295 295 294 294 293 293 293 292 291 291 290 289 289 289 289 289 289 289 290 289 289 289 290 290 291
311 310 309 309 308 307 307 308 305 302 302 299 298 297 297 296 296 296 295 295 294 294 293 292 292 291 290 289 289 289 289 289 288 288 287 287 287 287 287 287 287 288 288
311 310 310 308 307 307 307 305 300 300 300 298 297 298 298 297 296 296 294 294 293 292 292 291 290 289 289 288 288 288 287 287 286 286 286 286 286 286 286 286 286 286 286
311 310 309 308 308 307 306 302 301 301 300 300 298 297 297 296 296 295 294 293 292 292 290 289 289 288 287 287 287 287 285 285 284 284 284 284 284 284 285 285 285 285 285
310 309 308 307 306 305 301 301 301 302 300 298 297 297 297 295 295 294 292 292 291 289 288 288 287 287 286 286 285 284 284 284 284 283 283 284 284 284 284 284 284 284 285
309 307 306 305 303 302 302 301 300 301 298 298 297 296 296 295 293 292 291 290 288 288 287 286 286 285 285 284 284 284 284 284 284 284 284 284 284 284 284 284 284 284 284
307 306 306 303 302 301 300 300 299 299 299 296 297 295 292 292 291 290 289 288 287 287 286 286 285 285 285 283 283 284 284 284 285 285 285 285 285 285 285 285 285 285 284
307 306 303 301 300 300 300 299 299 298 298 292 291 291 291 291 289 288 288 287 286 285 285 285 285 283 283 283 283 283 284 284 284 284 284 284 284 285 285 286 286 286 285
306 302 301 300 300 299 299 298 295 293 292 291 291 291 290 289 288 288 287 285 285 285 285 284 283 283 283 282 282 283 283 283 283 283 284 284 284 284 285 285 285 285 285
301 300 299 299 299 299 298 297 291 291 291 290 290 289 288 288 287 286 285 285 285 284 283 283 282 282 281 282 282 283 282 283 283 284 284 284 284 284 284 285 285 285 285
298 298 298 299 297 297 293 293 291 290 290 289 289 288 288 287 286 285 284 284 284 283 282 282 281 281 282 282 281 281 282 284 284 284 284 284 284 284 284 285 285 285 285
297 297 299 298 297 296 292 291 290 290 289 288 288 287 287 286 284 284 284 284 282 282 281 281 281 282 282 281 281 282 283 285 284 283 284 283 282 283 283 284 284 286 286
296 298 298 297 296 293 291 291 290 289 288 287 286 286 285 284 284 284 283 283 282 282 282 282 282 282 281 281 282 283 284 285 283 283 282 282 281 281 282 283 284 287 285
297 296 295 293 292 291 291 290 289 288 287 285 284 284 283 284 283 283 282 282 282 282 281 282 281 280 280 281 282 282 283 283 283 283 282 280 281 281 281 282 284 286 287

GFSMW_925_thetae_012.txt.gz
Theta_e
312 311 313 314 314 313 313 313 312 311 310 310 310 310 309 309 309 309 308 311 311 309 307 305 306 306 305 304 305 304 304 304 303 302 303 303 302 302 301 303 303 301 302
310 311 312 314 314 313 313 313 312 312 311 310 310 309 309 308 308 307 308 310 309 309 308 306 305 305 305 305 304 303 304 303 302 303 301 299 301 300 302 301 302 302 302
310 311 312 313 313 313 313 314 313 313 312 312 310 309 308 308 307 307 307 307 308 309 308 307 306 305 304 304 304 304 303 303 303 302 302 300 299 301 300 301 301 301 301
310 310 311 312 313 314 313 313 313 313 312 311 310 309 309 307 308 307 307 307 307 308 307 306 305 305 304 304 304 303 302 301 300 299 300 299 300 299 299 299 299 298 298
309 310 311 313 314 313 313 313 313 313 313 312 312 311 309 309 309 308 307 307 306 306 306 306 305 305 305 304 301 299 296 294 294 294 294 293 294 296 297 296 295 296 296
310 311 313 313 313 313 312 312 312 312 312 312 312 311 311 311 309 309 308 307 305 305 306 305 306 302 299 298 298 297 295 295 296 297 296 294 295 295 295 295 294 294 295
309 309 311 311 312 313 313 312 312 312 311 311 310 310 311 311 310 310 308 306 304 303 302 300 297 296 295 295 296 297 298 299 298 295 294 293 293 294 295 295 295 295 295
309 311 311 311 312 312 312 311 311 311 310 309 309 309 309 309 308 308 309 306 303 299 296 295 295 296 297 297 297 296 297 295 293 294 294 293 293 293 294 294 294 294 294
309 309 311 311 311 311 311 310 310 309 309 308 309 307 307 306 306 307 306 303 298 296 296 296 296 297 296 297 295 293 293 293 293 292 292 292 292 292 293 293 293 293 294
310 309 309 310 311 311 311 310 309 308 308 308 305 305 305 305 304 302 299 296 296 296 297 298 298 296 294 294 293 293 292 292 292 292 292 291 291 292 292 292 292 293 292
309 308 309 310 310 310 310 309 308 308 307 303 303 304 302 301 300 298 296 296 296 298 299 297 295 294 293 293 293 292 292 292 291 291 290 290 290 290 290 290 291 291 291
309 308 309 309 309 309 308 307 307 307 303 303 302 302 299 297 297 296 296 295 295 296 295 294 294 293 293 292 292 291 290 289 289 289 289 289 289 289 289 289 289 289 289
310 308 308 309 309 308 307 307 306 302 302 302 301 299 297 296 295 295 295 295 295 294 293 293 293 293 292 291 290 289 289 288 288 288 288 288 288 288 288 289 288 288 289
310 309 307 308 308 307 307 306 303 301 302 299 297 296 296 295 295 295 295 295 294 293 293 292 292 291 290 289 288 288 288 288 287 287 287 286 286 286 286 286 286 286 286
310 308 307 307 307 307 306 305 301 301 301 300 297 296 297 296 295 294 294 295 296 293 292 291 290 289 288 287 287 287 287 286 285 285 284 284 284 285 286 286 286 286 286
310 309 308 307 307 306 304 302 301 301 301 301 299 297 297 296 296 295 294 295 294 292 290 289 288 287 286 286 286 285 284 284 284 283 283 283 283 284 284 284 284 285 285
309 307 307 307 306 304 302 301 300 300 299 298 298 298 297 295 294 294 294 293 291 289 288 287 286 286 286 285 284 284 283 284 284 284 283 283 283 284 284 284 284 284 284
308 307 307 306 304 302 300 300 299 299 299 298 297 296 296 296 295 293 290 289 288 287 286 286 285 285 285 285 283 283 283 283 283 284 284 283 283 283 284 284 284 284 284
307 307 307 304 302 300 300 300 299 298 299 298 296 293 292 291 290 289 288 287 287 285 285 284 284 284 283 283 283 283 283 283 283 283 283 283 283 284 284 284 285 285 285
307 306 302 300 300 299 299 298 296 294 293 291 292 292 290 289 288 288 287 285 285 284 284 284 283 282 282 281 282 282 283 283 283 283 283 283 283 283 284 284 284 285 285
302 300 299 298 299 299 298 297 291 291 291 291 290 289 288 288 287 286 285 285 284 284 283 283 282 281 281 281 282 282 283 282 282 283 283 283 284 284 284 284 284 284 285
299 298 297 298 298 297 297 294 291 291 290 290 289 288 287 287 286 285 284 284 284 283 282 281 281 281 282 281 282 282 282 282 283 284 284 284 284 284 284 284 285 285 285
297 296 296 298 297 297 295 292 291 290 290 288 288 287 287 286 285 284 284 283 282 281 281 281 281 281 281 281 281 281 282 283 284 283 283 282 282 282 282 283 283 284 284
296 296 297 297 296 295 291 291 290 289 289 288 286 286 285 284 284 284 283 282 281 282 282 281 281 281 280 280 280 282 282 284 283 282 281 281 281 281 281 282 283 284 286
296 295 293 293 292 291 290 290 289 288 288 286 285 285 283 283 283 282 282 282 282 282 282 281 282 280 279 280 282 281 282 283 282 282 282 280 279 280 281 281 282 284 285
293 294 293 292 292 292 289 289 288 288 287 286 284 284 283 283 282 282 282 282 281 280 280 281 280 279 280 280 280 280 281 281 281 281 280 280 279 279 280 280 281 282 283

GFSMW_925_thetae_018.txt.gz
Theta_e
309 309 309 311 313 314 314 316 316 315 314 314 314 311 311 311 310 310 310 309 309 309 310 311 311 310 309 308 308 306 304 304 303 303 303 303 302 301 301 300 297 299 297
309 308 309 311 312 313 315 315 314 313 312 313 312 310 309 309 309 310 310 309 309 308 308 309 310 310 308 308 308 305 304 303 303 303 300 299 300 301 301 300 298 297 298
310 309 310 311 313 314 314 314 313 312 310 309 308 308 308 308 308 309 309 310 308 307 307 307 307 308 309 307 307 306 304 303 303 302 302 298 299 296 298 298 296 296 295
309 309 309 310 311 311 311 311 310 310 310 309 309 309 309 308 309 309 309 309 309 309 308 307 306 307 308 307 306 305 304 303 302 301 301 300 298 294 293 294 295 294 293
306 305 307 308 309 309 309 310 310 310 310 309 309 308 308 308 307 307 306 307 307 307 306 306 305 304 307 306 304 304 303 302 301 297 298 294 295 295 293 293 292 293 292
306 306 308 308 309 310 310 311 311 310 310 309 308 307 306 305 304 304 304 305 305 305 305 305 304 303 304 303 301 299 297 296 296 295 296 295 294 293 293 292 292 292 293
304 305 305 308 309 310 310 310 310 309 308 306 307 306 304 305 305 304 304 304 304 304 303 302 302 300 298 297 296 297 298 298 297 295 295 295 294 292 292 292 292 292 292
305 305 306 308 309 309 309 309 308 308 307 306 307 305 304 304 302 302 302 303 303 301 299 298 297 297 297 297 297 297 297 296 295 293 292 292 292 292 292 293 292 292 291
306 306 307 309 310 310 309 309 308 307 306 306 305 303 303 303 301 301 302 302 300 298 297 297 297 297 297 298 297 295 293 293 292 292 292 292 292 291 291 291 292 292 291
307 307 309 310 309 309 308 308 307 306 305 305 302 303 303 302 301 300 300 299 298 296 297 298 298 298 298 296 295 292 293 293 293 292 292 291 290 289 288 288 289 290 291
307 306 308 309 309 309 308 307 306 305 305 303 303 303 301 300 299 298 297 297 296 297 298 297 295 296 295 293 293 294 293 292 291 290 289 288 288 288 288 288 288 289 289
307 306 308 309 308 308 308 308 306 305 304 302 302 300 300 299 296 295 295 295 296 295 294 294 293 293 293 293 292 291 290 290 288 288 288 287 287 287 287 287 287 288 288
308 307 309 308 309 308 307 308 306 305 302 301 300 299 299 297 294 294 294 294 294 294 294 293 293 293 292 291 290 288 288 287 287 287 287 287 286 286 285 285 285 285 285
310 309 306 307 308 307 306 307 306 303 301 300 299 299 296 293 293 294 294 294 294 294 293 292 292 290 289 287 287 286 286 286 286 286 285 284 284 283 283 283 283 283 284
308 306 307 306 305 305 305 306 304 301 300 299 298 297 295 295 294 294 294 293 293 292 293 291 288 287 286 286 286 285 285 285 284 284 284 283 283 283 284 284 284 284 284
306 305 303 301 302 304 304 301 300 300 299 298 297 297 297 296 295 293 293 293 293 294 292 287 286 286 285 284 284 284 284 284 284 283 283 282 282 282 283 283 284 284 284
304 302 301 303 303 300 299 299 298 299 298 298 298 297 296 296 295 294 294 293 290 287 286 286 285 284 284 283 283 283 283 283 283 282 282 282 282 282 282 282 282 282 282
301 300 302 299 298 296 296 297 298 296 295 295 294 293 293 292 291 290 288 287 287 286 285 284 284 283 283 282 281 282 282 282 282 282 282 282 282 282 282 282 282 283 283
300 300 297 296 295 296 297 297 296 293 293 294 293 291 290 289 288 288 287 286 285 284 284 283 283 282 281 281 281 282 282 281 281 281 281 281 282 282 282 283 283 283 283
300 298 296 295 295 296 297 297 295 291 293 290 289 288 288 288 287 286 285 284 284 283 283 282 281 281 280 280 281 281 281 281 282 281 281 282 282 283 283 283 284 284 284
297 296 295 294 295 296 296 296 295 293 290 290 291 288 287 286 285 285 284 283 283 282 281 281 281 280 280 281 280 281 281 281 281 282 282 282 283 282 282 282 282 282 282
295 295 295 295 295 291 292 291 290 289 291 290 288 287 286 285 284 283 283 282 282 281 281 281 280 280 280 280 279 280 281 281 281 281 282 283 282 281 281 281 281 281 282
294 295 295 293 291 292 291 291 292 291 289 287 287 285 285 284 283 282 282 282 282 281 281 280 279 279 279 279 279 280 280 280 281 282 281 281 280 280 280 280 280 281 281
294 295 294 293 292 292 292 291 290 288 287 286 285 284 284 283 283 282 281 281 281 280 280 280 279 279 278 278 279 280 280 280 281 280 280 279 278 278 278 279 279 279 279
294 295 293 293 292 291 290 289 288 287 286 285 285 284 284 284 283 282 281 281 281 280 280 280 279 279 278 278 280 279 279 280 279 279 278 277 276 276 276 277 277 278 278
294 294 293 292 291 289 289 288 287 286 286 285 284 284 284 284 282 282 281 281 280 279 279 279 279 278 278 278 278 278 278 278 278 277 276 275 274 274 275 275 277 277 277

GFSMW_925_thetae_021.txt.gz
Theta_e
311 310 311 311 313 315 318 318 317 316 316 315 314 313 311 310 309 309 309 308 308 308 308 309 309 310 311 310 310 310 309 307 305 304 305 305 304 303 303 303 302 299 299
313 311 310 310 311 313 314 314 314 313 311 310 311 310 308 308 308 309 310 310 309 309 308 307 307 308 310 310 310 309 308 306 306 305 306 307 306 303 303 302 301 302 300
313 312 311 310 309 309 309 310 309 308 308 308 309 309 309 309 309 309 309 308 308 307 307 307 307 307 307 308 308 309 308 308 306 305 305 308 308 306 302 302 301 300 300
311 309 309 308 308 308 309 309 310 309 309 308 308 307 308 308 307 306 306 305 305 305 305 305 306 306 307 307 307 307 307 306 307 304 303 303 303 306 307 300 299 298 296
310 309 308 308 308 309 309 309 309 309 309 307 306 307 306 305 305 305 304 304 303 303 304 304 304 304 305 306 305 306 304 305 304 305 304 302 300 298 301 304 301 295 295
309 309 309 309 309 309 309 309 309 308 307 306 306 306 304 304 304 304 303 302 302 303 303 303 302 302 302 302 301 300 300 300 300 299 298 299 301 299 298 298 298 298 298
311 311 310 310 310 309 308 308 308 307 306 306 305 305 304 304 304 303 302 301 301 302 301 300 300 299 298 298 298 299 299 298 297 296 295 294 294 293 293 292 295 296 296
310 310 310 310 310 309 309 308 308 307 305 304 304 304 303 303 302 301 300 300 300 299 299 298 298 298 297 298 297 297 296 296 294 293 292 292 292 292 292 292 293 295 295
311 312 311 311 310 309 308 308 307 306 304 304 304 303 303 302 300 300 299 298 298 298 298 298 298 297 298 297 297 296 296 292 292 292 292 291 292 292 292 292 292 292 294
312 312 311 311 310 309 308 308 308 306 305 304 303 302 301 300 299 298 297 296 296 297 297 297 297 296 296 295 294 294 294 293 293 293 293 293 293 292 292 291 291 291 290
312 311 310 310 309 309 308 307 307 306 305 304 301 301 300 298 297 295 295 295 296 297 297 295 295 294 294 294 293 293 294 293 293 292 291 291 290 290 289 289 289 289 289
311 310 309 309 308 307 305 305 306 306 305 302 301 300 298 298 295 294 294 295 294 294 294 293 293 292 292 293 292 291 290 290 289 289 289 288 288 288 288 288 288 288 288
311 310 309 308 306 304 304 305 305 305 302 300 300 299 297 296 294 294 294 294 293 294 293 292 292 293 292 290 288 287 288 288 287 287 287 287 287 286 286 286 286 286 286
310 310 308 306 304 303 304 304 303 301 300 299 299 298 296 295 295 294 294 294 294 293 293 292 291 288 287 287 287 287 287 286 286 286 285 285 285 285 284 284 284 284 285
310 308 305 302 302 303 301 299 299 299 299 299 298 297 296 296 295 294 294 294 294 293 293 293 289 286 286 285 285 285 286 285 285 285 285 284 284 284 283 284 284 285 285
307 304 302 303 301 298 297 297 297 298 298 297 297 297 297 296 295 294 294 294 294 293 289 286 285 285 285 284 283 283 284 284 283 283 283 283 283 283 283 283 283 283 284
304 302 302 299 297 296 296 297 297 296 296 296 296 295 293 294 293 292 289 288 287 286 286 285 285 285 284 283 282 282 282 283 283 283 283 283 283 283 283 283 282 282 283
302 302 299 297 296 295 296 296 296 295 294 294 294 292 290 289 288 288 287 287 286 285 285 284 284 283 283 281 281 282 282 282 282 282 282 282 283 282 282 283 283 283 284
301 299 297 296 295 295 295 295 296 295 292 291 290 290 288 288 287 287 286 285 285 284 284 283 283 282 282 281 280 281 282 282 282 282 282 282 282 282 283 283 284 284 284
300 297 296 295 294 294 295 296 296 295 291 291 290 290 287 286 286 285 285 284 284 283 283 282 281 281 281 280 280 281 281 282 282 282 282 283 282 282 283 283 283 283 283
298 295 295 295 294 293 293 293 292 293 290 291 289 287 287 286 285 284 283 283 283 282 281 281 281 280 280 280 280 280 281 281 282 282 282 283 283 282 282 281 282 282 282
297 295 295 294 294 291 291 291 291 291 290 289 287 287 286 284 284 283 283 282 282 282 281 281 281 280 280 279 279 279 280 280 281 282 282 283 281 280 280 280 280 280 281
296 294 294 294 293 292 291 292 292 290 289 287 287 285 285 284 283 283 283 282 282 281 281 281 280 280 280 279 279 279 280 280 280 281 281 280 279 278 279 279 279 280 281
295 294 294 295 294 293 292 291 289 288 287 287 286 285 285 284 284 283 282 282 282 281 281 280 280 279 279 279 279 279 279 279 280 279 280 278 277 277 278 279 279 280 280
295 294 294 294 293 293 291 289 288 287 287 286 285 285 284 283 283 282 282 282 281 280 280 279 279 279 278 278 279 278 278 279 278 278 278 277 277 277 278 278 278 279 280
294 294 294 294 293 291 289 288 287 286 286 285 285 284 283 283 282 281 281 280 280 279 278 278 278 277 277 278 278 277 277 276 276 277 276 276 276 276 277 277 277 278 279

GFSMW_925_thetae_024.txt.gz
Theta_e
319 318 316 315 316 318 321 324 323 322 320 319 318 317 316 314 313 313 312 313 313 313 313 313 314 314 315 315 315 314 315 315 313 312 310 309 309 309 308 307 307 306 305
318 316 316 316 316 316 316 317 315 314 313 312 312 312 312 312 313 313 313 313 312 311 311 311 311 312 312 313 314 314 315 314 313 313 311 312 311 310 309 308 307 306 306
317 317 315 315 315 314 314 314 313 313 313 313 313 313 313 313 313 311 311 310 309 308 308 308 309 310 310 311 311 312 313 314 313 312 311 313 313 311 310 308 307 306 306
316 315 315 315 315 314 314 314 313 313 312 312 312 312 312 311 310 310 309 308 307 307 306 307 307 308 308 308 309 309 310 311 312 312 312 310 310 313 312 308 307 306 305
316 315 315 314 314 314 314 314 313 312 312 311 311 311 311 310 310 309 308 307 306 305 305 305 305 306 306 306 307 308 308 309 309 309 310 310 309 308 309 311 308 306 304
316 315 314 314 314 314 313 313 312 311 310 310 310 309 308 307 307 306 305 304 303 303 303 304 304 304 305 304 304 304 304 304 305 304 304 304 303 304 305 306 307 306 302
317 316 315 315 314 314 313 312 312 311 309 309 308 307 306 305 305 304 303 303 302 302 302 303 303 303 303 302 301 300 300 298 297 296 295 295 294 294 294 294 297 299 299
316 316 314 314 314 313 313 312 312 311 309 308 307 306 305 305 304 303 303 302 301 301 302 302 302 301 301 300 300 300 297 296 295 294 293 293 292 292 292 292 293 296 297
315 315 314 314 314 313 313 312 310 309 309 307 307 307 305 305 304 302 301 300 300 300 300 301 300 300 300 298 298 297 296 294 295 295 294 294 293 293 292 292 293 294 295
315 315 314 313 312 312 312 311 308 308 308 308 307 305 305 304 302 300 299 299 299 300 300 300 298 296 295 295 296 296 296 296 295 295 294 294 294 293 293 293 292 292 292
315 314 312 312 311 310 309 307 307 307 307 307 305 305 304 302 300 299 298 299 299 298 296 295 294 294 293 293 294 294 294 294 293 293 292 292 292 291 291 291 291 291 291
313 313 312 311 310 308 306 306 306 305 304 303 303 303 302 300 299 298 297 297 297 296 294 294 293 294 294 294 294 293 292 291 291 291 290 290 289 289 290 290 290 290 290
313 312 311 310 308 305 305 304 302 300 300 300 301 301 300 299 298 298 296 296 295 296 295 295 295 293 292 292 291 290 290 290 290 289 289 289 289 289 289 288 288 288 288
313 312 311 308 305 304 302 299 299 299 299 300 300 299 299 298 298 297 296 296 296 295 295 294 294 293 291 290 289 289 288 288 288 288 288 288 288 287 287 287 287 287 287
312 311 308 305 304 301 298 298 298 299 299 299 298 298 299 297 296 295 294 295 295 294 293 292 291 290 289 288 286 286 286 287 287 286 286 286 286 285 285 285 285 286 287
311 307 303 304 301 299 298 298 298 298 298 298 297 297 296 296 296 295 294 292 291 290 290 289 289 288 288 286 284 283 284 285 285 286 286 285 285 285 285 284 284 283 284
307 303 304 302 299 298 297 298 298 298 297 297 296 295 294 293 292 291 291 290 290 289 288 288 288 287 287 285 283 282 283 284 285 285 285 285 285 284 284 284 284 283 283
301 302 303 300 299 297 296 297 297 297 296 295 295 293 292 291 291 290 290 289 288 288 288 287 287 286 285 283 282 281 282 284 284 284 284 284 284 284 283 283 284 284 284
301 303 301 299 298 297 296 296 296 296 296 294 293 293 292 291 290 290 289 288 287 287 287 286 285 285 284 283 281 281 282 283 283 283 283 283 284 284 284 284 284 284 285
301 302 300 299 298 296 296 295 294 294 294 293 293 292 291 290 290 288 287 287 286 286 285 285 284 284 283 282 281 280 281 282 282 282 283 283 283 283 283 283 284 284 284
301 301 300 299 297 296 295 294 293 293 292 292 292 291 290 289 287 287 287 286 286 285 284 283 283 283 282 281 281 280 280 281 281 282 283 283 284 282 281 281 282 282 282
298 299 299 298 297 296 294 294 294 293 293 292 291 290 289 288 287 287 286 286 286 285 284 283 283 283 282 281 281 280 280 281 281 281 283 283 282 280 280 280 281 280 280
299 298 298 297 297 296 295 294 294 293 292 291 290 289 288 287 287 287 286 285 285 284 283 283 282 282 281 281 280 280 280 280 280 281 281 280 279 279 280 280 279 280 282
296 296 296 296 296 296 296 295 294 292 291 290 289 288 288 287 287 286 286 285 284 283 282 282 281 281 280 280 279 280 279 279 281 280 281 279 279 280 280 281 281 282 282
294 294 295 295 295 295 295 294 292 291 290 289 288 288 287 287 286 285 284 283 283 281 280 280 280 280 279 279 278 278 278 278 278 278 280 279 279 280 280 280 280 281 281
294 294 294 294 294 294 294 293 291 289 289 288 288 287 286 287 285 285 284 283 281 279 278 278 277 278 277 277 277 277 276 276 276 278 278 278 278 279 279 279 279 280 280

GFSMW_925_thetae_030.txt.gz
Theta_e
322 322 322 323 323 324 326 326 327 325 324 324 321 319 318 317 317 316 316 316 316 316 314 313 313 312 312 313 313 313 314 315 316 318 317 316 316 317 317 315 313 312 311
322 322 321 321 320 320 320 320 319 318 318 317 317 316 316 317 317 317 316 315 315 314 313 312 311 310 310 310 310 311 312 313 313 315 315 315 314 314 315 315 315 312 312
321 322 321 320 319 319 318 318 317 317 316 315 316 316 316 316 316 316 316 315 313 312 311 308 307 307 308 309 308 308 309 311 311 311 312 313 312 312 313 313 314 314 313
321 320 320 320 319 319 318 317 317 316 316 316 316 316 316 316 313 312 312 311 309 308 306 306 305 305 306 307 307 308 307 308 309 309 309 308 307 309 310 310 312 312 312
321 320 320 319 319 318 318 317 316 316 315 315 314 314 313 312 311 309 309 307 307 306 305 303 303 304 304 304 307 306 305 305 303 303 302 302 302 303 305 307 306 307 309
320 319 318 318 319 318 318 317 316 316 315 314 313 312 311 310 309 309 308 308 307 305 303 302 302 304 305 304 303 302 302 301 300 299 298 298 298 298 298 298 298 298 300
320 319 318 318 318 317 317 317 316 315 313 312 312 311 310 310 309 308 308 307 305 303 302 302 303 303 302 301 301 300 300 299 298 296 296 296 294 294 294 294 295 296 296
319 318 317 317 317 315 314 314 314 313 311 310 311 311 310 309 308 307 306 304 302 301 302 302 301 300 300 299 299 298 298 298 297 295 295 294 295 295 294 294 293 295 295
318 318 317 316 315 314 313 313 312 311 310 310 309 307 307 306 306 305 303 302 301 301 300 298 298 298 297 297 296 296 296 295 296 296 295 295 295 295 294 293 293 293 294
318 318 316 315 314 314 313 312 310 309 309 306 303 302 302 303 303 303 302 301 300 299 299 297 298 297 296 296 296 295 295 295 295 295 294 294 294 294 294 294 294 293 293
318 317 315 314 314 312 311 309 308 307 303 301 301 301 301 301 302 301 300 299 298 298 298 297 296 296 296 296 296 295 295 295 294 293 293 293 293 292 292 292 292 293 293
317 316 314 313 312 311 309 308 305 302 301 300 300 301 301 300 300 300 300 299 298 297 297 297 297 296 295 295 294 294 293 292 292 291 290 290 290 290 290 290 291 291 291
316 315 313 313 312 310 308 305 302 300 300 300 300 300 300 300 300 300 299 297 297 297 297 295 295 295 294 293 291 291 291 290 289 288 288 289 289 289 289 289 290 290 290
315 314 313 312 310 308 306 303 301 300 299 300 300 299 299 298 298 298 297 297 296 296 295 294 293 292 291 290 290 290 289 288 287 286 286 287 288 288 289 288 288 287 286
314 312 311 308 306 306 304 302 301 299 299 299 299 299 298 297 296 296 296 295 294 293 293 292 291 290 290 289 288 287 286 286 286 285 285 286 287 287 288 287 287 286 286
313 310 307 305 304 304 303 302 300 299 298 298 299 298 297 296 295 295 294 294 293 293 291 290 290 290 289 287 286 285 285 285 284 284 284 286 287 287 287 287 286 286 286
309 307 305 304 304 304 302 300 300 299 298 297 298 297 296 296 295 294 294 293 292 290 290 289 289 288 288 286 286 285 284 283 283 284 284 285 285 285 285 285 284 285 285
305 304 303 303 304 302 301 301 301 299 298 297 296 296 295 294 294 294 293 292 290 289 289 289 288 287 286 286 285 284 283 282 282 282 282 282 283 284 284 284 285 284 285
303 303 303 303 301 301 301 301 300 299 298 297 296 295 294 294 294 293 292 290 289 289 289 288 287 286 285 284 284 284 283 282 282 281 282 282 282 282 283 284 284 284 284
303 302 301 300 300 300 298 298 298 298 298 297 296 295 295 294 293 292 290 289 289 289 288 288 286 285 285 285 284 284 283 282 282 281 281 281 282 283 282 282 282 282 282
301 299 299 298 297 296 296 296 296 296 296 297 296 295 294 294 292 291 289 289 289 288 287 286 285 284 284 284 283 283 281 281 281 280 280 281 282 282 282 281 281 281 281
298 297 296 296 296 295 295 295 295 294 295 296 296 295 293 293 291 290 289 289 288 287 286 285 284 284 284 283 282 282 280 279 280 279 279 281 280 281 281 281 281 281 281
296 295 295 294 294 295 295 294 294 294 294 295 295 294 293 291 290 289 288 288 287 286 285 284 284 283 282 281 281 279 278 279 278 278 279 279 280 280 280 281 282 282 282
296 295 294 294 295 295 294 293 293 292 293 294 293 292 291 290 289 289 288 287 286 285 285 284 283 281 280 280 278 277 278 277 277 277 278 279 280 279 279 280 281 281 282
295 294 294 294 294 294 293 293 293 293 292 292 291 290 290 289 288 288 287 286 286 285 284 282 281 280 279 278 277 277 277 277 278 277 279 279 278 278 278 279 279 280 280
294 294 294 294 294 294 293 292 293 292 291 290 289 289 289 288 287 287 287 285 285 284 284 282 281 279 278 277 277 277 277 277 278 278 278 278 277 277 277 278 278 278 279

GFSMW_925_thetae_033.txt.gz
Theta_e
320 320 320 321 322 322 321 322 319 318 318 317 318 317 316 316 316 317 316 315 315 315 314 313 312 310 309 309 308 309 309 308 307 309 312 312 313 314 314 314 314 314 315
319 320 319 319 319 318 318 318 318 317 316 316 316 317 317 317 316 316 315 314 313 311 310 307 306 306 307 307 308 307 307 307 309 308 309 309 310 310 310 311 311 310 312
319 319 318 318 318 317 317 316 316 316 314 315 316 316 315 315 314 312 310 309 308 307 306 305 304 303 304 304 304 305 307 307 307 307 306 307 307 305 307 307 308 309 308
317 318 318 318 318 317 317 316 316 316 315 314 314 314 314 313 311 310 309 307 307 306 304 303 302 302 303 303 304 305 304 304 302 302 302 300 299 302 302 304 302 305 302
316 316 318 318 318 317 317 316 316 315 314 314 313 313 312 311 310 309 308 308 307 305 304 303 302 301 304 304 303 302 301 301 300 299 298 298 297 298 296 298 298 297 297
315 316 318 318 318 317 317 317 316 314 311 311 311 311 310 310 309 308 308 306 305 303 302 301 302 302 302 300 300 300 300 299 299 298 297 296 296 296 295 296 296 295 295
314 313 314 316 317 316 315 314 313 312 311 310 310 310 309 308 308 307 306 304 303 301 301 301 300 298 299 299 299 299 298 298 297 296 295 294 294 294 294 294 294 294 293
315 313 315 315 314 313 313 313 313 311 310 309 306 305 304 304 305 304 303 302 302 301 301 301 298 297 297 296 296 296 296 295 295 295 296 295 294 295 294 294 293 292 292
314 313 314 314 314 314 313 312 310 309 307 303 302 301 301 301 301 302 302 301 300 299 299 298 298 297 296 296 296 295 294 295 295 295 294 294 294 293 293 293 293 292 292
315 314 313 314 313 312 311 309 308 305 302 301 300 300 300 301 302 301 300 300 299 298 298 298 297 297 296 296 296 296 295 295 295 295 294 294 293 293 292 292 292 293 293
313 311 312 312 312 311 309 307 303 301 300 300 300 300 300 300 300 300 299 299 298 298 297 297 297 296 296 295 295 294 294 294 293 292 291 290 289 289 289 290 290 290 291
314 311 312 312 310 309 307 303 301 300 300 299 300 300 299 300 300 298 298 298 296 296 297 296 295 294 294 293 293 292 291 291 290 289 288 287 287 287 288 288 289 289 289
311 310 309 308 307 306 304 302 301 300 299 299 299 299 299 300 299 297 297 296 296 296 295 295 293 292 291 290 290 290 289 288 288 287 286 286 285 285 286 287 288 288 288
311 309 308 306 304 304 304 303 301 300 299 299 298 298 299 299 297 297 295 295 295 294 293 293 292 290 290 290 288 287 287 286 285 285 285 284 284 285 286 287 287 287 287
310 307 305 304 304 304 304 304 301 300 299 298 298 298 299 297 296 295 295 295 294 293 292 291 290 289 289 288 287 286 286 285 284 283 283 284 284 286 286 286 286 287 286
306 305 303 303 303 303 303 302 301 300 300 298 298 297 297 297 296 295 295 294 293 292 290 289 289 288 288 287 286 286 285 284 282 281 282 282 283 284 284 284 284 284 285
304 303 302 302 302 303 303 303 301 301 300 299 298 297 297 296 295 295 294 293 292 290 289 289 288 288 287 286 284 284 284 284 283 282 281 281 281 282 282 283 283 283 284
303 302 302 302 303 303 301 297 297 297 298 298 298 297 296 295 294 293 294 292 290 289 289 288 288 287 286 285 284 284 284 283 283 282 281 281 281 282 282 282 283 283 283
302 302 303 302 299 296 296 295 295 295 295 296 296 296 296 295 293 293 291 291 289 289 288 288 287 285 284 284 284 283 284 283 282 281 280 280 280 281 282 282 281 281 281
302 302 296 295 295 295 295 294 294 294 294 295 296 296 295 294 292 292 291 289 289 288 288 287 285 284 284 284 283 283 282 280 280 280 279 280 280 281 281 281 282 281 281
297 296 295 294 294 294 294 294 294 293 294 293 294 294 294 293 292 291 290 289 288 287 286 286 284 283 283 282 282 281 280 279 279 279 279 279 279 280 280 281 281 281 281
295 295 294 294 294 294 294 293 293 293 292 292 293 294 293 292 291 290 289 288 287 286 285 284 283 283 282 280 280 279 278 278 278 278 278 278 278 280 280 280 281 282 282
295 294 293 293 294 294 294 293 293 292 292 292 292 292 292 291 290 289 288 287 286 285 285 284 283 282 281 280 278 277 277 277 277 277 278 278 279 279 279 279 280 281 282
293 293 294 293 293 293 293 293 293 292 292 291 291 290 290 289 289 288 287 286 286 285 284 284 283 281 280 279 278 277 277 277 277 278 278 278 277 277 278 278 278 279 279
293 293 293 293 293 293 293 293 292 292 291 290 289 288 289 288 287 287 286 285 285 284 284 283 282 281 280 278 278 278 278 278 278 278 277 277 276 277 277 277 277 278 278
293 292 292 292 292 292 291 292 292 291 290 289 288 287 288 287 287 286 286 285 284 283 283 283 283 282 280 278 278 278 278 277 278 276 276 276 276 276 276 276 276 277 278

GFSMW_925_thetae_036.txt.gz
Theta_e
318 318 319 320 322 319 319 322 322 319 322 319 317 316 316 315 316 315 314 313 312 311 310 308 307 306 306 306 306 305 305 304 306 306 306 307 306 309 309 309 308 307 309
317 317 317 317 317 317 317 316 315 315 316 316 316 316 316 314 311 310 309 308 308 307 305 305 304 303 303 303 303 303 304 306 306 306 306 305 306 306 304 303 304 305 304
317 317 316 316 316 316 316 315 315 315 314 314 314 314 313 313 312 309 308 307 307 306 305 304 304 303 302 301 302 303 304 304 304 303 304 302 302 299 301 300 301 300 300
316 316 316 317 316 316 316 316 315 315 314 314 313 312 312 311 310 309 308 307 306 306 306 305 303 301 302 303 303 302 301 301 301 300 300 299 299 297 298 299 297 297 297
316 315 316 317 317 316 316 315 314 314 313 312 312 311 310 310 309 308 308 308 307 306 305 303 302 300 301 300 299 299 300 299 299 298 297 297 296 296 295 295 295 295 294
314 315 317 317 317 317 316 315 313 312 311 311 310 310 310 309 308 307 307 306 304 302 302 301 300 299 298 298 298 298 298 297 297 297 295 294 294 295 295 295 294 293 293
313 314 315 316 317 316 315 315 314 310 310 310 308 307 306 305 305 305 304 303 302 301 301 300 298 297 296 296 296 296 295 295 295 295 296 295 294 294 294 294 294 293 293
312 312 314 316 314 313 313 312 311 309 307 305 303 301 301 301 301 301 302 302 301 300 299 298 298 297 296 295 295 295 295 294 294 294 295 295 293 294 294 293 292 293 292
312 312 313 312 312 312 312 311 309 305 302 301 300 300 300 300 301 301 301 300 299 298 298 298 298 297 296 296 296 295 295 295 295 294 294 294 294 293 293 293 293 293 292
314 311 311 311 310 310 308 308 306 304 301 300 300 300 300 300 300 300 300 299 298 298 297 297 296 296 296 295 294 294 294 293 293 293 293 293 290 289 289 288 289 290 292
310 310 309 308 307 307 306 304 302 301 300 300 299 300 300 299 299 299 299 297 295 295 295 296 296 295 294 293 293 292 292 291 291 289 288 287 288 287 286 287 287 287 289
309 307 306 306 305 305 303 302 301 300 300 299 299 299 299 299 299 299 299 296 294 294 295 294 294 293 292 290 290 290 289 288 287 287 286 286 286 285 285 285 285 287 287
308 307 306 304 304 304 304 302 301 300 300 299 299 299 298 298 299 299 297 295 295 295 294 293 292 292 290 289 289 288 287 286 286 285 285 284 284 284 284 284 285 286 287
307 306 303 303 303 303 303 303 303 301 300 299 299 298 298 297 299 297 296 295 295 294 293 292 290 289 289 289 288 287 286 286 285 284 283 282 283 283 284 285 286 286 286
305 304 302 302 302 303 303 303 303 301 300 300 299 298 298 297 297 297 296 295 294 294 293 291 289 289 288 288 287 286 284 284 283 283 282 281 281 282 283 284 284 284 284
304 303 302 301 302 302 302 301 298 297 297 298 298 299 298 297 297 296 295 295 293 292 290 289 289 288 287 286 285 284 284 284 284 283 282 282 281 281 281 282 283 282 283
303 302 301 301 301 301 298 296 295 295 294 295 296 296 295 296 295 294 294 293 292 290 289 289 288 287 286 285 284 284 284 284 283 283 282 282 281 280 280 281 281 282 282
301 300 301 301 297 296 295 294 294 294 294 295 296 295 295 295 295 294 292 290 290 289 289 288 287 286 284 284 284 283 283 283 282 281 280 280 279 280 280 281 282 282 281
301 301 298 295 294 293 293 293 293 293 294 294 293 292 294 294 294 293 292 292 292 289 288 287 285 284 283 284 283 283 282 281 279 279 279 279 279 279 280 281 280 281 281
300 296 294 293 293 293 293 293 293 293 293 292 292 292 293 293 293 292 292 291 288 288 287 285 284 283 283 282 282 281 280 278 278 278 278 278 278 279 280 280 281 281 281
294 294 293 293 293 293 293 293 293 293 292 292 292 291 292 292 292 291 289 288 288 287 286 284 283 283 282 280 280 279 278 278 278 277 277 277 278 279 280 280 280 281 282
293 293 293 293 293 293 293 293 292 292 292 292 291 291 291 291 291 289 289 288 287 286 285 284 283 282 281 280 279 278 278 278 277 277 277 278 279 279 279 279 280 280 281
293 293 293 293 293 292 292 292 292 292 292 291 290 289 290 289 289 288 287 286 285 285 284 284 283 282 281 280 279 278 278 277 277 278 278 278 277 277 277 278 278 279 279
293 292 292 292 292 292 291 291 291 292 291 291 289 288 288 288 287 287 286 285 285 284 283 283 283 282 281 280 278 278 278 278 278 277 277 276 276 276 276 276 277 277 278
292 292 292 292 291 290 289 289 290 291 290 290 289 287 287 288 287 286 285 285 284 283 283 283 283 282 281 280 279 279 278 277 277 276 275 275 275 275 276 275 276 276 277
291 291 291 291 290 289 289 289 289 289 288 289 288 287 287 286 285 284 284 284 283 283 283 283 283 283 281 279 279 279 278 276 276 275 275 274 274 275 275 275 275 275 276

GFSMW_925_thetae_039.txt.gz
Theta_e
316 317 317 321 326 327 328 328 328 326 325 320 317 315 315 314 313 311 311 311 311 310 309 308 306 305 304 303 303 302 301 301 303 305 304 304 304 304 304 301 301 300 301
315 315 317 317 317 316 316 316 316 316 316 315 315 315 313 312 312 311 310 309 308 308 307 306 305 305 304 301 301 302 303 304 304 303 302 301 301 302 300 298 298 299 298
315 315 314 315 315 315 315 314 314 314 314 313 313 312 312 311 310 309 308 307 307 306 306 305 305 303 300 301 302 302 301 300 300 301 301 298 298 297 299 297 298 297 297
315 315 314 314 314 315 315 315 314 314 314 313 313 312 311 311 309 308 307 306 305 305 305 303 302 300 300 299 299 299 299 300 300 299 300 298 298 295 295 297 295 295 294
314 314 315 315 314 314 315 314 314 313 312 312 311 311 310 310 309 308 307 306 305 304 302 301 301 300 299 297 297 298 299 298 298 297 297 296 295 295 294 294 293 294 293
315 315 315 315 315 314 313 313 312 310 310 310 310 310 309 309 308 306 306 305 303 302 301 300 299 297 296 296 296 296 295 295 296 296 295 294 293 294 294 294 293 293 293
313 313 314 315 316 315 313 312 311 310 309 309 308 307 305 304 303 303 302 302 302 301 300 299 298 297 296 295 295 295 294 294 294 294 294 294 294 294 294 294 293 293 292
313 314 315 315 314 313 311 310 310 309 307 306 303 301 300 300 300 300 301 301 301 300 298 297 297 296 296 296 295 295 295 295 295 294 294 294 294 294 294 293 293 292 292
314 312 311 311 310 310 310 309 308 305 302 301 300 300 300 300 299 300 300 300 299 298 297 297 297 296 296 296 296 295 294 294 293 293 293 293 293 293 291 290 291 291 290
311 309 309 308 309 308 308 307 304 303 301 300 300 300 300 299 299 299 299 299 299 296 295 296 296 296 296 294 294 293 292 292 292 292 291 290 288 287 287 287 288 286 287
308 306 306 306 307 306 305 303 302 301 300 300 300 299 299 299 299 299 299 299 297 295 294 294 295 295 293 292 291 291 290 290 289 288 287 286 286 286 286 286 285 284 285
306 306 305 304 304 304 302 301 300 300 300 300 300 300 299 298 298 298 299 299 297 294 294 294 294 294 292 291 290 289 289 288 287 286 286 286 285 284 284 283 284 284 285
305 303 303 303 303 303 303 303 303 303 300 299 299 299 298 297 297 297 298 298 296 295 295 294 293 292 290 289 289 288 287 286 286 285 284 283 282 282 282 283 284 284 285
304 304 303 302 302 302 302 302 301 300 299 299 298 298 298 297 297 297 297 297 296 295 295 293 292 291 289 288 288 287 286 285 284 283 283 282 281 281 282 282 283 283 284
304 303 302 301 301 301 300 298 296 295 295 294 295 296 295 294 294 295 296 296 295 294 293 292 292 289 288 288 287 286 285 284 284 283 283 282 282 282 282 281 281 282 283
303 302 301 300 300 299 296 295 294 294 294 294 295 294 294 293 294 294 295 295 293 293 292 291 288 288 287 286 285 284 284 284 284 283 283 282 282 281 281 280 281 281 282
302 301 300 299 297 296 294 293 293 293 294 294 295 295 293 293 293 293 294 294 293 292 290 288 289 286 286 285 284 284 284 283 283 282 281 280 280 279 279 279 280 280 281
300 299 299 296 294 293 293 293 293 293 293 294 294 292 292 292 292 293 293 292 291 290 290 288 286 285 284 284 283 283 282 281 280 279 279 278 278 278 279 279 280 280 280
300 298 295 293 293 293 293 293 292 292 293 293 292 292 291 292 293 293 292 291 291 290 287 286 285 284 283 282 282 281 280 278 277 278 277 278 277 278 279 279 280 280 281
295 293 293 293 293 293 293 293 292 292 292 292 292 292 291 291 292 292 291 291 289 287 287 285 284 283 282 281 281 280 278 277 278 277 277 277 278 279 280 280 280 280 280
293 293 293 292 292 292 292 292 291 292 292 292 292 291 291 290 291 291 289 287 287 288 286 284 283 283 281 280 280 279 278 278 277 277 277 278 278 279 279 279 279 280 280
292 292 292 292 292 292 291 291 290 290 291 291 291 290 289 289 289 289 288 289 288 285 285 284 283 282 281 280 279 279 278 278 278 277 277 278 278 278 278 278 278 278 279
292 292 291 291 291 291 291 289 289 290 291 291 291 289 288 288 288 287 286 286 285 285 284 283 283 282 281 280 279 278 279 278 277 277 277 277 276 276 276 277 277 277 278
291 291 291 291 290 291 290 288 289 288 289 289 289 289 287 287 287 287 286 285 284 283 283 283 282 282 282 280 279 279 278 277 277 275 275 275 275 275 275 275 276 276 277
290 290 290 290 290 290 289 288 288 288 288 287 287 288 286 287 286 285 284 284 284 283 283 283 283 283 282 281 279 280 278 276 276 275 274 274 274 274 274 274 274 275 275
290 290 289 289 289 289 288 287 287 286 287 287 287 286 286 286 284 284 283 283 283 283 283 283 282 282 281 280 279 279 277 276 275 273 274 273 273 273 273 273 273 273 273

GFSMW_925_thetae_042.txt.gz
Theta_e
314 317 321 323 326 326 326 326 326 326 326 317 314 314 314 313 314 313 312 311 310 309 307 306 305 305 305 302 300 300 300 301 302 303 301 300 304 300 300 298 298 297 297
314 315 317 318 318 318 320 323 323 320 318 316 314 313 313 311 310 309 309 309 308 307 306 306 305 304 302 300 299 299 299 299 299 300 300 298 299 300 299 298 297 297 296
314 314 315 315 315 314 314 314 314 314 314 313 313 312 311 310 310 309 308 307 307 306 305 304 303 301 300 299 298 297 297 299 299 299 299 297 297 296 297 297 295 295 294
315 314 313 313 314 314 314 314 314 314 313 313 312 311 311 310 309 308 307 306 306 305 304 302 301 300 299 298 297 297 297 298 298 297 298 297 297 295 295 295 294 294 293
313 312 313 313 314 314 314 314 314 313 313 312 312 311 310 309 308 307 307 306 305 303 302 301 300 299 298 297 296 295 297 297 296 296 296 295 294 294 294 294 293 293 293
313 313 314 313 313 313 313 313 312 312 311 310 310 309 309 308 307 305 305 303 302 302 301 300 299 297 296 296 295 295 294 294 294 294 294 293 293 293 293 293 294 293 292
313 312 313 313 313 313 311 310 310 309 309 308 307 305 304 302 301 300 300 299 300 301 301 299 297 296 296 296 295 295 295 295 294 294 294 294 294 294 293 293 292 291 292
312 312 314 314 314 312 310 311 309 308 305 303 302 301 300 300 299 299 299 299 300 299 299 298 297 296 296 295 296 295 295 295 294 294 293 293 293 293 293 293 292 291 291
311 310 311 311 310 310 310 308 308 304 302 301 300 300 300 299 299 299 298 298 298 298 299 297 296 297 296 296 296 295 294 293 292 292 292 292 292 292 291 289 287 288 288
309 307 307 307 307 306 306 305 303 302 301 300 300 300 300 299 299 299 298 297 298 298 298 296 295 296 296 296 294 293 293 292 291 290 289 288 287 286 287 287 287 286 287
305 303 303 304 304 302 303 302 300 300 300 300 300 299 299 298 298 298 298 298 298 298 297 294 294 294 295 293 292 291 290 289 289 288 287 286 286 286 285 284 284 283 283
303 302 303 303 303 303 303 302 301 302 302 299 298 299 298 298 297 296 296 297 298 298 296 294 294 294 293 292 291 289 289 288 287 286 285 285 284 283 282 282 281 282 283
303 302 302 302 302 302 302 302 302 301 300 299 297 296 295 297 296 294 294 296 297 297 296 295 294 293 293 290 289 288 287 286 285 284 284 283 283 282 281 281 281 281 282
303 302 301 301 301 300 301 299 296 295 294 294 294 295 295 294 293 293 293 293 293 296 295 294 293 293 291 289 287 286 286 285 284 284 283 283 282 282 282 282 282 281 281
303 302 300 300 300 299 296 295 294 293 293 293 293 294 294 293 292 292 292 293 294 294 293 292 292 291 288 289 287 285 285 284 284 283 283 283 282 282 282 282 281 280 280
303 301 300 299 298 296 295 293 293 293 293 293 294 294 293 292 292 292 292 293 293 292 291 290 289 288 289 286 285 284 284 284 283 283 282 281 280 280 280 280 280 280 280
301 301 299 298 296 294 293 293 293 293 293 293 293 293 292 292 291 291 292 293 291 291 290 289 288 288 286 285 284 284 283 282 280 279 278 278 279 278 278 278 279 279 280
300 299 298 295 293 292 292 292 292 292 292 292 293 292 292 291 291 291 291 291 291 290 290 289 286 285 284 283 283 282 281 280 278 277 277 278 277 277 278 279 279 280 280
300 298 295 293 292 292 292 292 292 291 291 291 291 292 291 291 291 291 291 292 290 290 289 287 285 285 283 282 281 281 280 278 277 277 277 277 277 278 279 280 279 279 279
296 293 292 292 292 292 292 291 291 290 289 289 291 291 291 291 290 290 290 290 289 287 286 285 284 283 283 281 281 280 279 278 278 277 277 277 278 278 279 279 279 279 280
292 292 292 292 291 291 291 290 289 288 289 291 291 291 291 290 288 288 289 287 287 287 287 284 284 283 282 281 280 279 279 278 278 277 277 277 277 278 278 278 277 278 278
292 292 291 291 291 290 290 289 288 288 288 288 290 290 290 289 287 287 288 287 287 286 284 284 283 283 282 281 280 279 279 279 278 277 276 276 277 277 277 277 277 277 277
291 291 290 290 290 290 290 289 288 288 288 288 287 287 287 288 287 286 285 285 285 285 284 283 283 282 282 281 280 279 279 278 276 276 275 275 275 275 275 275 276 276 276
291 290 290 289 289 289 290 289 288 287 288 287 287 286 287 286 287 286 286 285 285 284 283 283 283 282 282 282 280 279 279 277 276 275 274 274 274 274 274 274 274 274 274
290 289 289 289 289 289 289 288 287 286 286 287 287 286 286 286 285 285 284 284 284 283 283 283 283 283 282 281 280 280 279 277 276 274 273 273 273 273 273 273 273 273 271
289 289 289 288 288 288 287 287 286 286 286 285 286 285 286 285 284 283 283 282 282 282 283 283 282 282 282 281 280 279 278 276 275 273 272 273 272 272 272 272 272 271 270

GFSMW_925_thetae_045.txt.gz
Theta_e
318 320 322 324 325 325 325 325 325 323 326 323 320 312 311 311 311 310 309 309 308 308 307 306 306 305 303 301 300 301 301 301 301 300 299 300 304 304 300 300 299 298 297
321 319 321 323 325 326 326 325 326 325 324 320 314 313 311 310 309 309 308 307 306 306 306 306 305 303 302 300 299 300 299 299 300 300 299 300 300 301 301 298 298 297 296
319 317 317 318 320 322 324 322 320 320 318 315 313 312 310 309 308 308 308 307 306 306 306 305 303 301 300 300 298 298 299 298 299 299 299 300 300 299 298 298 297 296 295
318 316 315 314 314 315 315 314 314 313 313 313 312 311 311 311 309 308 307 306 306 306 304 302 301 300 298 296 297 297 298 298 298 298 298 298 298 297 297 296 295 295 295
318 317 315 314 312 312 312 312 312 312 312 311 311 310 309 309 308 307 307 306 305 303 302 301 300 299 297 295 295 297 296 296 296 296 296 294 295 295 295 296 295 294 294
316 315 314 313 313 312 312 312 312 312 311 311 310 309 308 306 305 303 303 301 300 300 300 300 299 299 297 296 296 295 295 296 296 295 295 295 295 294 294 295 294 294 293
317 316 315 313 313 312 311 311 310 309 309 308 307 304 301 300 299 299 299 299 299 298 299 299 299 298 297 296 296 295 295 296 295 296 295 295 294 294 294 293 293 293 293
317 316 315 314 314 312 310 309 309 308 305 303 302 301 300 300 299 299 298 298 298 298 298 299 299 297 297 296 296 296 296 295 295 295 294 294 293 293 293 292 292 292 291
316 316 315 314 312 310 309 309 307 304 302 301 300 300 300 299 299 299 299 298 298 298 298 298 298 296 295 296 296 296 295 294 293 293 292 292 292 291 290 290 289 289 291
313 311 310 308 307 306 306 305 303 301 300 300 300 299 299 298 298 298 298 298 298 298 298 298 297 295 294 295 295 294 293 292 292 291 289 289 288 288 288 287 287 287 287
309 307 305 304 302 301 301 300 300 300 301 300 298 298 299 298 298 297 296 296 296 296 297 298 297 294 295 295 294 293 292 290 289 288 288 287 287 286 286 285 285 284 284
306 305 304 304 304 303 302 302 302 301 301 299 298 295 294 294 295 294 293 293 293 293 295 296 295 295 294 294 292 291 289 288 287 287 287 286 285 285 284 284 283 283 283
306 305 303 303 303 302 301 300 298 295 294 294 294 293 294 294 293 293 292 292 292 292 293 295 295 294 293 292 291 289 288 286 286 286 285 285 284 284 284 283 283 283 283
306 304 303 302 301 301 299 296 295 294 293 293 293 293 294 293 293 292 292 291 291 293 293 293 293 292 291 290 287 287 286 286 285 285 285 284 284 284 283 283 283 283 282
305 303 302 301 300 298 296 294 293 293 293 293 293 294 294 293 292 292 291 291 292 293 292 291 291 290 289 288 287 286 286 286 285 284 284 283 282 281 281 281 281 281 281
304 302 301 299 298 296 294 293 293 293 292 292 293 293 293 293 292 291 291 292 292 291 290 290 288 288 288 287 286 286 285 284 283 282 281 280 279 280 279 279 279 279 280
303 301 300 297 296 294 292 293 292 292 292 292 292 292 293 292 291 291 292 292 292 291 290 289 288 287 286 285 284 284 283 282 281 280 279 279 279 279 279 279 279 280 280
302 301 298 295 293 292 292 292 292 291 290 291 290 291 291 291 292 292 291 291 291 291 290 290 287 285 285 284 283 282 282 281 280 279 279 279 279 279 278 280 281 280 280
301 299 295 293 292 292 292 292 291 290 290 289 290 290 290 291 291 291 290 290 290 290 289 288 286 285 284 283 282 281 281 280 280 279 279 278 278 278 278 279 279 279 279
298 294 292 292 292 291 291 290 290 289 289 289 290 290 291 291 290 290 289 289 288 287 286 285 285 284 283 282 281 281 281 280 280 279 279 278 278 278 278 279 279 278 279
292 291 292 292 291 291 290 290 289 289 289 289 289 290 290 290 290 289 288 287 287 286 286 286 284 284 283 282 281 280 280 280 280 279 278 278 277 277 277 277 278 278 277
292 291 291 291 290 290 290 290 289 288 288 288 288 288 287 286 288 287 286 286 286 286 285 284 284 283 282 282 281 280 279 279 279 278 278 277 276 276 276 276 276 276 276
292 291 290 290 289 289 289 289 289 288 288 288 287 287 287 287 287 286 287 286 285 285 285 284 284 283 282 282 281 280 279 279 278 277 276 275 274 274 275 275 275 275 276
291 290 289 289 289 289 289 288 288 287 287 286 287 287 287 287 286 286 285 285 285 284 284 283 283 283 282 282 282 280 280 279 277 276 275 274 274 274 274 274 274 274 273
290 289 289 289 289 288 288 287 287 287 286 286 285 286 286 286 286 285 285 284 284 283 283 283 283 283 283 282 281 280 280 279 277 275 275 274 274 274 274 274 274 273 272
289 289 289 289 288 287 286 286 286 286 286 286 286 286 285 286 285 285 284 283 282 282 282 282 283 282 282 282 281 280 279 278 276 276 275 274 273 273 273 273 273 273 271

GFSMW_925_thetae_048.txt.gz
Theta_e
327 328 329 329 329 329 328 329 326 325 324 322 322 318 316 314 313 312 312 311 311 310 311 310 310 309 308 306 305 303 302 301 301 302 301 301 302 305 305 303 302 301 301
329 328 330 330 330 330 329 329 327 326 326 324 320 317 316 313 313 311 311 310 310 310 309 309 308 306 304 303 302 301 301 300 300 302 301 302 301 301 303 302 301 300 299
329 329 329 330 330 330 329 327 327 326 323 319 317 316 314 313 312 312 311 309 309 309 309 307 305 304 302 301 301 300 300 300 299 300 300 302 302 300 299 299 299 299 298
326 324 321 321 322 323 323 322 322 321 319 317 316 314 314 314 313 312 311 310 309 308 306 304 303 302 301 301 300 298 299 299 298 298 298 299 298 299 299 297 296 296 296
325 320 319 318 318 318 318 317 316 316 315 315 315 315 314 313 312 311 309 308 307 305 303 302 302 302 301 300 300 299 299 298 298 297 297 297 297 296 296 298 296 295 295
322 319 318 317 317 317 317 316 315 314 314 314 314 313 312 309 307 306 305 304 303 302 302 302 302 301 301 300 300 299 298 298 297 297 297 296 296 295 295 297 296 295 294
320 320 319 318 317 317 316 316 315 314 313 312 310 308 306 305 304 304 303 302 301 301 301 301 301 301 300 300 299 298 297 297 297 296 296 295 295 294 294 294 293 293 292
321 320 319 318 318 317 316 315 314 312 310 308 306 305 304 304 304 303 302 302 301 301 301 301 301 301 300 300 299 298 297 297 296 296 295 294 293 293 293 292 292 293 292
321 321 319 319 319 317 315 315 312 309 306 303 303 303 303 303 302 302 302 302 302 301 300 300 300 300 299 299 298 297 297 296 296 295 294 293 292 291 291 290 290 290 292
321 320 319 318 317 315 313 310 307 304 302 302 302 302 302 302 302 301 301 300 299 298 298 298 298 297 298 297 297 296 295 295 294 294 292 291 290 290 289 289 289 288 288
320 318 316 314 312 310 308 306 304 303 302 300 301 302 301 299 298 298 297 296 296 295 294 295 295 296 296 296 296 296 295 294 293 292 291 290 289 289 288 288 287 287 287
317 314 312 309 308 307 305 304 305 302 301 301 299 298 298 297 296 296 295 295 294 294 294 295 295 295 296 296 295 294 294 292 291 291 290 289 288 288 287 287 287 287 286
314 312 310 309 308 305 304 302 301 299 298 297 297 297 297 296 295 295 295 294 294 294 294 295 295 295 295 294 293 292 291 290 290 289 289 288 287 287 287 287 286 286 286
313 312 310 308 305 303 302 301 298 297 297 297 296 295 295 296 295 294 294 294 294 294 294 294 294 293 292 291 290 290 290 290 289 289 288 287 286 286 285 284 284 284 284
312 311 309 306 304 302 299 298 297 296 296 295 294 294 295 295 295 294 294 294 294 294 293 293 292 292 291 291 290 290 289 289 288 287 286 285 283 281 281 281 282 282 282
311 309 307 304 302 300 299 296 296 296 295 294 294 294 294 294 295 294 294 294 294 293 293 292 292 291 291 288 287 287 288 288 286 285 284 283 282 282 280 280 280 279 280
310 307 305 302 300 298 296 297 296 295 294 293 292 292 292 293 294 293 294 293 293 293 293 292 292 291 290 286 285 285 286 286 285 284 283 283 282 281 281 281 280 281 282
309 305 303 300 298 296 296 295 294 293 293 292 292 292 292 292 293 293 293 293 292 292 291 291 291 290 289 285 284 283 285 285 284 283 282 282 282 281 279 279 280 281 281
307 304 301 299 296 296 295 294 293 292 292 291 292 291 292 292 293 293 293 292 291 291 290 290 290 289 288 285 283 283 284 284 283 283 282 281 280 280 278 279 280 280 280
304 301 297 295 296 295 294 293 292 292 291 291 291 291 292 292 292 292 292 291 290 290 290 289 289 287 287 285 282 282 283 283 283 282 282 281 279 277 278 278 279 279 280
300 295 295 295 295 293 293 292 292 292 291 291 291 291 291 290 289 289 290 290 289 288 288 287 288 287 286 285 283 281 282 282 282 282 281 281 279 277 277 277 278 278 277
294 294 294 294 293 292 291 292 292 291 291 291 291 290 290 289 289 289 290 289 289 288 287 286 286 287 286 284 283 282 281 281 281 281 281 279 277 276 276 276 276 276 277
294 294 294 293 292 291 291 291 291 291 290 290 290 290 290 289 289 289 288 287 287 287 287 287 286 286 285 285 283 282 281 280 280 280 279 277 276 276 276 276 275 276 277
293 294 293 292 292 291 291 291 291 290 290 290 288 287 287 288 288 288 287 287 287 286 286 286 285 285 285 285 284 283 282 281 281 280 279 277 276 276 276 277 277 276 275
293 292 292 291 291 291 291 290 290 289 289 289 288 287 287 286 287 287 287 287 286 285 285 284 285 285 285 284 283 282 282 282 281 278 279 279 278 277 277 277 277 276 275
293 292 291 291 291 290 290 289 289 289 289 288 288 287 287 286 286 286 286 286 285 284 282 282 282 283 283 282 282 282 281 280 279 278 280 280 279 278 277 277 277 277 275

GFSMW_925_thetae_051.txt.gz
Theta_e
329 329 330 330 330 331 332 331 328 327 327 326 325 322 321 318 315 314 314 314 313 313 313 312 312 311 309 308 307 305 303 303 302 302 302 303 302 303 305 305 305 304 303
331 331 332 332 332 332 331 330 329 328 328 325 325 323 319 316 315 314 314 313 313 312 311 312 310 309 307 305 304 303 303 302 301 301 301 303 301 301 303 302 302 303 301
333 333 333 332 331 330 330 331 328 327 325 322 320 319 317 316 314 315 314 313 312 311 311 309 308 306 304 303 303 302 301 301 300 300 300 301 301 300 299 299 299 299 299
331 331 331 331 331 329 327 325 324 324 321 319 317 317 315 316 316 315 314 313 312 310 308 306 304 304 303 303 302 301 301 300 300 299 298 298 298 300 300 298 297 297 297
329 326 325 325 324 324 323 323 322 320 319 318 317 317 317 316 315 314 312 310 309 307 306 304 303 304 303 302 302 301 301 300 299 299 298 298 298 298 298 299 298 297 296
326 322 321 320 321 321 320 319 318 318 317 317 317 317 316 314 312 310 308 307 305 304 303 303 303 303 302 302 301 301 300 299 299 298 298 298 297 297 297 298 296 296 295
324 322 321 320 321 320 320 319 318 317 317 317 315 313 311 309 308 308 307 305 303 303 303 302 302 301 301 301 301 301 300 299 298 298 298 297 296 296 295 295 295 294 293
323 322 321 321 320 320 320 319 318 317 316 314 311 309 308 308 307 306 304 304 303 303 303 302 301 300 300 300 300 300 300 299 298 298 297 296 296 295 294 293 293 294 292
323 323 321 321 321 320 320 319 318 315 312 309 307 306 306 305 305 304 304 303 302 301 299 299 299 299 298 298 298 299 299 298 297 297 297 295 295 293 292 292 291 292 293
323 323 322 321 321 320 319 318 316 312 307 306 305 303 303 304 304 303 301 300 299 298 297 296 296 296 296 297 297 297 297 297 296 296 295 294 293 292 291 291 290 290 290
324 323 322 322 321 320 317 314 310 307 306 304 303 303 304 302 300 300 299 297 297 296 296 295 295 296 296 296 296 297 296 295 295 294 294 293 292 291 290 290 290 289 289
324 323 322 319 318 316 313 310 308 306 304 303 303 301 300 300 299 298 297 297 296 296 296 295 296 296 295 295 295 295 295 294 293 293 293 292 291 290 290 289 289 289 288
323 321 319 316 314 312 310 309 305 303 300 302 300 299 299 298 297 297 297 296 296 296 295 295 295 295 296 295 294 293 293 293 292 292 291 290 290 289 288 288 288 287 286
321 319 317 315 313 311 308 304 303 302 300 299 299 297 297 297 297 297 296 296 296 295 295 295 295 294 293 293 293 292 291 291 291 291 290 289 288 287 286 285 284 284 284
319 318 316 314 311 308 305 304 302 300 299 298 297 296 296 296 296 296 296 296 295 295 295 295 294 293 292 292 291 291 291 290 290 289 288 287 286 284 283 282 282 283 282
318 317 315 312 310 307 304 302 301 299 298 297 296 295 295 294 295 295 295 295 295 295 295 294 293 293 292 290 290 288 289 289 288 287 287 286 285 284 283 283 282 281 281
317 316 313 310 308 304 302 300 299 298 296 295 294 294 293 293 294 294 294 295 295 294 294 293 292 293 293 290 288 286 286 287 287 287 286 285 285 284 283 282 281 281 281
316 314 311 308 304 302 299 299 297 296 295 294 293 293 293 293 293 294 294 295 294 294 292 292 292 291 292 288 287 285 285 287 287 286 285 285 284 283 281 280 280 280 281
314 311 308 305 302 299 298 297 296 295 294 293 293 293 293 293 294 294 294 294 293 293 291 291 291 291 291 287 286 284 285 286 286 285 285 284 283 282 280 278 279 280 280
312 309 306 302 298 297 297 296 295 294 293 293 293 293 293 293 293 293 292 292 292 292 291 290 290 290 289 288 286 284 285 285 284 284 284 283 282 280 278 278 278 279 280
308 304 299 298 298 297 296 295 294 294 293 293 292 293 293 293 292 291 291 291 291 291 290 289 289 289 289 288 286 284 283 284 284 283 283 283 281 279 277 277 278 279 277
300 298 297 298 297 296 294 293 293 293 293 292 292 292 292 292 292 291 291 291 291 289 288 288 287 288 288 287 286 284 283 282 282 282 283 283 280 278 277 277 278 277 277
297 298 298 297 296 294 293 292 292 292 292 292 292 292 291 290 291 291 291 290 288 288 288 288 289 288 287 287 286 284 283 282 281 282 281 280 279 278 278 279 277 277 279
297 297 296 296 294 293 292 292 292 292 292 292 292 291 290 289 288 289 289 289 288 288 288 287 287 287 287 286 286 285 284 283 282 282 283 280 280 280 279 279 280 279 279
297 297 295 294 293 292 292 292 291 291 291 291 291 291 290 288 287 287 288 288 288 288 287 287 286 286 286 286 285 284 283 284 283 281 281 281 282 281 281 280 280 279 279
297 295 294 293 292 292 292 291 291 291 291 291 291 291 290 288 287 287 287 287 287 286 286 285 283 283 283 284 283 283 282 281 281 281 281 282 283 282 281 280 280 279 279

GFSMW_925_thetae_054.txt.gz
Theta_e
328 328 328 328 328 329 334 332 329 325 323 321 323 322 321 320 316 315 315 314 314 314 313 313 312 311 309 307 306 305 304 303 302 301 301 301 300 301 300 301 301 301 303
330 330 331 331 331 334 332 329 329 326 326 327 327 324 321 318 315 315 315 315 314 313 312 312 310 308 307 304 304 303 303 302 301 301 301 300 300 300 300 299 299 299 298
332 333 333 333 333 332 332 330 330 328 328 327 323 322 319 317 315 315 315 314 313 312 310 308 307 305 304 304 303 303 302 302 301 301 300 299 299 299 300 299 298 298 298
332 333 334 332 331 330 329 330 330 329 326 321 320 319 317 316 316 316 315 314 313 311 309 307 305 305 304 304 303 303 302 301 302 301 300 299 299 298 298 298 298 298 297
332 332 333 332 332 331 331 329 325 324 321 319 318 317 318 317 316 315 313 311 310 309 307 306 305 304 304 303 303 303 303 301 300 300 299 299 298 298 298 297 297 296 296
331 329 329 328 327 326 325 324 322 320 319 319 318 318 317 315 312 310 309 308 307 305 304 304 304 303 302 302 302 302 301 301 300 300 299 299 298 298 297 296 296 295 295
328 325 324 323 323 322 321 320 319 319 318 318 318 317 313 310 309 309 308 306 305 304 304 303 303 302 301 301 301 301 301 300 300 299 299 298 298 297 296 295 295 294 293
325 323 322 322 322 322 321 320 319 318 318 317 314 311 309 308 308 306 306 305 304 304 303 302 300 300 299 299 299 299 300 300 300 299 298 297 297 296 295 295 293 290 292
325 323 322 322 322 321 321 320 319 318 317 314 310 308 307 306 305 305 304 304 303 301 299 298 297 297 296 296 297 298 298 299 298 297 297 297 296 295 294 293 292 292 290
325 323 322 322 322 321 321 320 319 316 312 309 308 307 305 304 305 304 302 301 300 298 297 297 296 296 296 296 296 296 297 297 296 296 296 295 295 293 292 291 291 291 291
324 323 323 323 322 321 320 319 318 311 308 307 304 303 305 304 302 301 300 299 298 297 297 296 296 296 296 296 296 296 296 296 295 294 294 294 293 292 291 291 290 290 290
324 324 323 323 322 321 319 317 313 309 306 305 304 303 303 301 300 299 298 298 297 297 296 296 296 296 296 296 296 295 294 294 293 293 293 292 292 291 290 290 289 288 286
324 324 324 322 321 319 316 313 309 306 305 303 303 301 300 299 298 298 298 297 296 296 296 296 296 295 295 293 293 293 292 292 292 292 292 291 290 290 288 287 285 284 284
324 324 322 320 318 316 313 310 307 305 302 302 300 299 298 298 298 298 297 297 296 296 296 296 295 295 294 293 293 292 292 292 291 291 291 290 289 287 286 284 283 283 283
324 322 320 318 315 313 310 308 305 303 302 300 299 297 297 297 296 296 296 296 296 296 296 295 295 294 294 294 292 292 291 291 291 290 289 288 286 286 285 283 283 283 282
322 320 319 317 314 311 309 306 304 302 300 298 297 296 295 295 294 294 294 295 295 295 295 295 294 294 293 293 292 290 289 289 288 288 287 287 286 285 284 283 282 281 281
320 319 318 315 312 310 307 304 302 299 298 296 295 295 294 294 294 294 294 294 295 295 295 294 293 292 292 292 292 288 287 287 287 287 287 286 286 285 284 283 282 280 280
319 318 316 313 310 306 303 300 299 297 296 295 294 294 294 293 293 294 294 295 295 294 294 293 292 292 292 291 290 287 286 286 287 287 286 285 285 284 283 281 280 278 279
317 315 312 309 305 302 300 299 298 297 295 294 294 293 293 293 293 294 294 293 293 293 293 292 291 291 291 291 287 286 285 285 286 285 284 285 284 283 282 281 278 278 278
315 312 308 305 302 299 298 298 297 296 294 294 293 293 293 293 293 293 293 292 291 291 292 291 289 290 289 289 288 286 285 284 285 284 284 284 283 282 281 279 277 277 278
311 307 303 300 299 298 296 296 295 294 294 293 293 293 293 293 293 293 292 292 292 292 291 290 288 288 288 289 288 287 285 284 284 284 283 283 282 281 280 278 277 278 278
301 300 299 299 297 296 295 294 293 293 293 293 293 292 293 292 292 291 292 292 292 290 289 289 288 287 287 288 288 287 285 284 283 282 282 283 283 281 279 278 278 278 278
299 299 299 297 296 295 294 293 293 293 293 292 292 292 292 292 290 290 289 290 290 289 288 288 288 288 288 287 287 287 286 284 283 282 282 282 281 281 280 280 279 279 279
299 297 297 296 295 294 293 293 293 292 292 292 292 292 292 291 290 289 288 288 289 289 289 288 288 288 287 287 287 286 286 284 283 282 282 282 281 281 281 281 281 280 280
298 297 296 295 295 293 293 293 292 292 292 292 292 292 292 292 290 289 288 287 287 287 287 287 287 286 286 286 286 286 285 284 284 283 282 281 281 283 282 281 281 280 280
298 297 296 294 294 293 293 292 292 292 292 292 291 291 291 290 289 288 288 287 287 287 286 286 286 286 285 284 283 283 283 283 282 281 281 281 281 283 283 281 281 280 280

GFSMW_925_thetae_057.txt.gz
Theta_e
324 324 325 328 331 331 330 330 329 327 326 325 322 322 322 319 315 313 314 314 314 313 313 311 310 309 307 305 304 303 303 302 301 300 300 300 300 299 299 299 299 298 298
325 328 328 329 332 331 330 330 328 326 326 323 322 323 321 319 315 315 314 314 314 312 312 311 309 308 305 304 303 303 303 302 301 300 300 297 299 299 298 298 298 298 298
327 328 331 333 332 331 330 328 327 326 324 325 326 324 321 316 315 315 314 314 313 312 310 308 307 305 304 304 303 303 303 302 301 301 300 297 296 297 298 298 298 297 297
329 330 331 331 332 331 330 329 328 326 326 328 327 320 318 316 315 315 314 313 313 311 310 307 305 304 304 304 304 303 302 302 302 301 300 300 298 296 296 298 297 297 296
329 331 330 330 331 330 330 329 326 326 328 325 322 320 316 316 316 315 314 313 311 309 306 305 305 304 304 303 302 302 302 302 301 301 300 299 299 298 296 295 296 296 295
330 331 331 331 330 329 328 328 329 327 319 319 319 318 317 315 312 310 309 308 305 304 304 304 303 302 302 301 301 300 301 301 301 300 300 299 298 298 297 294 293 294 294
325 328 328 328 329 329 328 326 321 319 319 318 317 315 312 310 309 308 307 306 305 304 303 303 302 301 300 300 299 298 298 299 300 299 299 299 298 298 297 296 295 292 294
323 322 321 322 322 321 321 320 319 318 318 317 315 312 310 308 308 307 306 305 304 303 302 300 299 298 297 296 296 296 296 297 300 299 298 297 297 297 296 295 294 289 290
320 320 320 321 321 321 320 319 318 318 318 316 312 309 308 308 306 305 305 305 303 302 300 298 297 296 296 296 296 296 296 297 297 296 296 297 296 296 295 294 292 291 287
319 318 319 320 321 321 320 320 318 318 315 311 309 308 307 305 305 305 304 302 300 299 298 297 296 296 296 296 296 296 296 295 295 295 294 294 294 294 293 292 291 290 290
319 317 318 320 321 321 321 320 317 313 310 308 307 306 305 305 305 302 301 300 298 297 297 296 296 296 296 296 296 296 295 295 294 293 293 293 293 292 291 290 290 288 285
319 317 318 321 320 320 319 314 311 309 307 307 305 306 305 303 301 300 299 298 297 297 296 296 296 296 296 296 295 293 292 292 292 291 292 292 291 291 290 289 287 286 284
319 318 320 320 319 318 315 310 308 305 305 306 304 302 303 301 298 298 297 297 297 296 296 296 296 295 296 295 294 293 293 291 290 291 291 291 290 290 288 286 285 284 283
320 320 321 319 318 316 312 307 306 306 305 303 302 301 299 298 298 297 297 296 296 296 296 296 295 295 294 294 293 293 291 291 291 291 291 290 289 286 286 285 284 283 282
319 320 317 315 313 309 307 306 306 304 302 301 297 296 296 296 296 295 295 295 294 295 295 295 296 295 294 293 293 292 292 290 290 290 289 288 286 286 285 284 284 283 282
319 317 315 313 310 308 307 306 304 303 299 297 296 295 295 294 294 294 294 294 294 294 295 295 295 294 293 292 292 292 291 290 288 288 287 287 286 285 284 284 283 282 281
317 316 314 312 310 308 307 304 301 298 297 295 295 294 294 294 294 293 293 294 294 295 294 294 294 292 292 292 292 291 290 288 287 287 287 286 285 285 284 283 283 282 281
315 312 310 308 307 306 303 299 298 297 296 294 294 294 293 293 293 293 293 294 294 293 293 292 292 291 291 291 291 291 289 286 286 286 286 285 285 284 284 283 282 281 279
311 308 305 301 300 299 298 297 296 295 295 294 294 294 293 293 293 293 293 293 293 292 291 292 291 290 289 290 290 289 286 285 285 285 285 284 284 283 282 282 281 280 277
306 303 299 298 298 297 297 296 295 295 295 294 295 294 293 293 293 293 293 293 292 292 292 291 291 290 288 289 289 288 285 285 285 284 284 284 283 283 282 282 280 278 277
299 298 296 295 296 296 296 294 294 293 294 294 293 293 293 292 292 292 292 291 291 292 291 290 289 289 288 287 287 288 287 286 285 283 284 284 283 282 282 280 279 278 278
297 296 295 295 295 294 294 295 298 297 294 293 293 292 292 293 292 292 290 289 289 290 290 289 288 287 287 287 287 287 287 287 285 284 283 282 282 282 282 280 280 279 279
296 296 296 295 295 295 297 295 294 293 293 293 292 292 292 292 292 291 290 289 288 287 287 289 288 288 287 288 288 287 287 287 285 284 283 282 282 281 281 281 281 280 279
297 297 296 296 295 296 294 294 293 293 292 292 292 292 292 292 291 290 290 288 288 287 287 287 287 288 287 287 287 286 286 286 285 285 283 282 282 282 281 282 281 281 280
297 296 296 296 295 294 293 293 292 292 292 292 292 292 291 291 291 290 290 288 288 287 287 286 286 286 286 286 286 285 285 285 285 284 283 282 282 281 281 282 282 281 280
298 297 296 295 294 293 293 292 292 292 292 292 292 292 291 291 291 290 290 289 288 288 287 287 287 287 287 286 286 285 284 283 283 283 282 281 281 281 281 281 282 281 281

GFSMW_925_thetae_060.txt.gz
Theta_e
325 327 327 325 326 326 327 329 330 328 327 326 322 320 320 318 314 312 314 314 313 313 313 312 310 309 308 304 303 303 302 302 301 300 300 299 299 298 299 298 298 298 297
320 322 324 327 327 327 328 329 330 327 327 326 323 321 322 318 313 314 314 314 313 312 312 311 309 308 304 303 303 303 302 302 301 301 299 296 298 299 299 298 297 297 297
325 324 326 329 329 328 328 328 328 327 326 325 323 322 320 318 315 314 314 313 313 312 311 309 307 305 304 304 303 303 303 302 302 301 300 297 296 296 298 298 297 297 296
326 329 329 329 329 327 327 327 327 327 326 324 323 322 319 315 315 314 314 313 313 312 310 307 305 304 304 304 303 303 302 302 302 301 300 300 299 295 294 297 298 297 296
326 330 330 329 329 328 328 328 328 326 324 323 326 324 318 315 315 314 314 313 312 311 309 306 305 304 303 302 301 300 300 301 301 301 300 300 299 298 295 295 295 296 296
327 329 330 330 330 330 330 329 327 326 325 326 326 322 317 316 315 314 313 312 307 306 306 304 303 302 302 301 300 299 298 297 298 300 300 299 298 297 297 295 294 293 295
329 328 327 328 328 329 329 328 327 326 326 326 324 318 316 315 315 312 308 305 304 303 302 303 301 300 298 297 296 296 296 296 296 297 300 299 298 298 297 297 296 294 294
330 328 327 326 327 328 328 328 327 318 317 317 316 314 310 310 309 307 305 304 304 304 307 299 298 297 296 296 295 296 296 296 297 298 298 297 297 297 296 296 294 294 289
327 326 324 324 325 325 326 327 319 317 316 315 312 310 309 308 306 306 305 306 306 302 299 299 298 297 296 296 295 295 296 296 296 296 296 296 296 295 294 295 294 291 287
322 322 322 320 320 319 320 319 318 317 316 315 312 310 307 306 306 306 305 303 300 299 299 298 297 296 296 296 295 296 295 295 294 294 294 293 293 293 293 291 290 290 289
320 320 321 320 320 321 319 318 318 317 313 311 309 307 305 305 305 303 302 300 299 298 297 297 296 296 296 295 295 295 294 293 292 291 292 292 293 292 291 291 290 289 286
318 318 320 319 319 320 319 318 316 314 310 307 306 306 306 304 302 300 300 299 297 297 297 296 296 296 295 295 295 294 293 292 292 290 291 291 291 291 290 289 287 285 284
318 316 318 318 319 318 314 311 308 307 306 306 305 304 303 303 299 299 297 297 297 296 296 296 296 296 295 295 295 294 293 292 292 290 290 291 291 290 289 287 285 284 283
319 316 318 318 318 311 307 306 306 306 307 305 303 302 299 298 298 297 296 295 295 295 295 295 295 295 295 295 294 293 293 293 291 291 291 290 290 288 286 285 284 283 283
318 318 317 315 309 307 306 306 306 307 304 302 300 297 296 296 295 295 294 293 293 294 294 295 295 295 295 294 292 292 292 292 291 290 289 288 287 286 286 285 284 283 283
318 316 315 312 309 307 306 306 305 302 299 296 295 295 294 294 293 294 296 296 293 294 294 295 294 295 294 293 292 292 291 291 290 290 289 287 286 286 285 284 283 283 281
317 316 314 311 309 307 305 303 300 297 296 295 294 294 294 294 297 298 294 293 293 294 294 293 292 293 292 292 291 291 291 290 289 288 286 286 285 285 284 283 283 282 281
313 311 309 307 305 304 302 298 296 295 294 294 294 295 296 298 295 293 293 293 293 293 293 292 291 291 291 291 290 290 290 289 288 286 286 285 285 284 284 283 282 282 282
304 302 301 300 300 298 297 296 295 294 294 294 296 297 296 293 293 293 293 293 293 293 292 292 291 291 291 290 289 289 289 288 286 285 285 285 284 284 283 282 282 282 281
298 297 296 296 295 295 295 294 295 295 294 296 298 298 294 293 293 293 292 292 292 291 291 291 291 291 290 289 288 288 288 287 286 286 285 284 283 283 282 282 282 280 279
295 295 295 294 294 294 294 294 296 297 296 295 293 293 293 293 292 292 292 292 291 289 289 290 290 290 289 288 287 287 287 287 287 286 285 284 283 283 282 282 281 280 279
295 294 294 294 295 296 299 299 298 296 294 293 293 293 292 292 292 292 292 291 290 289 288 287 287 288 288 288 287 287 287 286 287 286 286 285 283 282 282 282 281 280 280
294 295 295 296 297 297 296 294 293 293 292 292 292 292 292 292 292 292 291 290 290 289 288 287 286 286 286 287 288 288 288 287 287 287 286 285 284 282 282 282 281 281 281
296 296 296 296 295 294 294 294 293 293 292 292 292 292 291 291 291 291 291 290 289 289 288 287 286 287 286 286 286 286 286 286 286 286 286 285 284 282 282 282 281 281 281
296 296 296 295 294 294 293 292 292 292 292 292 292 291 291 291 291 291 291 290 290 290 289 288 287 287 286 286 286 286 286 285 285 284 283 283 283 282 282 282 281 281 282
296 296 296 294 293 292 292 291 291 290 290 290 291 291 291 291 291 291 291 291 291 291 290 289 288 287 287 287 287 287 286 285 284 283 283 283 282 282 282 281 280 280 282

GFSMW_925_thetae_063.txt.gz
Theta_e
323 324 328 329 325 326 325 326 326 327 327 324 321 319 318 317 316 314 313 313 313 313 312 311 310 310 309 305 303 302 302 301 301 300 300 299 298 298 298 298 297 298 297
322 323 326 327 324 325 324 327 328 327 326 325 322 320 319 317 314 312 313 313 313 313 312 311 309 308 305 303 303 303 302 302 301 301 298 296 298 298 299 298 298 297 297
324 323 325 326 325 325 324 325 328 327 326 325 322 321 319 317 312 314 313 313 313 312 311 310 307 306 304 303 303 303 302 302 301 301 300 297 296 296 298 298 297 297 297
323 322 323 325 326 325 325 325 327 327 326 325 321 321 321 316 313 314 314 313 312 312 311 308 306 304 303 303 303 302 301 301 301 300 300 300 299 295 294 297 297 297 297
320 320 322 326 326 326 326 326 326 326 326 324 323 322 320 318 315 314 313 313 311 309 308 306 304 304 303 301 301 300 299 299 299 300 300 300 299 297 294 292 295 296 295
323 324 324 328 327 327 326 326 325 327 326 325 322 323 321 317 314 314 313 312 310 309 307 305 303 303 304 300 298 297 296 296 296 296 297 299 298 297 295 291 294 294 295
325 328 327 327 327 326 325 325 327 326 326 324 322 325 325 317 314 314 312 309 305 304 303 303 306 305 298 297 296 295 295 295 295 295 297 298 299 298 297 296 295 295 293
327 328 328 328 327 326 325 326 326 327 326 324 324 326 324 316 315 313 309 304 305 304 304 307 304 297 297 296 295 295 295 295 295 296 296 296 296 296 296 296 295 293 292
328 328 327 327 327 326 327 327 327 326 325 325 323 320 317 314 310 305 305 306 305 307 305 300 297 296 296 296 295 295 295 295 295 294 293 293 294 295 295 294 294 293 292
327 327 325 325 326 328 327 327 326 322 317 317 316 313 311 308 306 306 306 305 304 301 298 297 296 296 296 296 295 295 295 295 294 293 292 291 292 293 292 292 291 290 289
326 325 324 323 323 325 325 325 321 316 313 313 311 309 306 305 305 305 303 302 301 298 297 297 296 296 296 295 295 295 295 294 293 292 291 290 291 292 291 291 291 290 289
322 323 323 320 318 319 320 319 316 314 312 311 309 306 305 305 306 309 301 299 298 297 296 296 296 296 296 295 295 295 294 293 293 292 291 290 291 291 291 290 289 287 285
319 320 320 319 317 316 315 314 313 309 307 306 304 305 305 308 302 298 298 297 297 296 296 296 296 296 295 295 295 295 294 293 292 292 291 290 290 290 290 289 287 285 284
318 318 318 317 317 312 310 308 306 307 306 305 306 306 305 301 299 298 297 296 295 294 295 294 294 295 295 295 295 294 293 292 292 292 291 291 290 289 289 288 285 284 283
316 315 315 314 309 307 306 307 307 307 306 306 306 304 300 298 297 295 294 294 294 294 293 294 294 294 294 295 294 293 292 292 291 291 290 290 289 289 286 286 285 284 283
316 316 315 311 307 306 307 307 306 307 306 303 300 297 296 294 294 296 296 295 294 293 293 294 294 293 293 294 293 292 292 291 290 290 290 289 288 287 287 286 284 284 283
316 315 312 309 308 306 306 305 306 304 302 297 295 294 294 295 297 296 294 293 293 293 293 293 292 292 291 291 292 292 291 290 290 290 289 288 286 285 285 284 284 283 282
313 311 310 307 306 306 305 304 300 297 295 294 294 295 296 297 295 293 293 293 293 293 293 292 292 291 291 291 291 290 289 289 289 288 287 286 285 285 285 284 282 282 281
301 300 301 301 301 300 297 296 294 294 294 295 296 297 297 294 293 293 292 292 292 292 292 291 291 291 291 291 290 289 288 288 288 288 286 285 285 285 284 283 282 281 282
296 295 295 295 295 294 295 294 294 295 296 297 297 297 294 294 293 293 292 292 292 291 291 290 289 289 290 290 289 288 288 288 288 287 285 285 285 284 283 282 282 281 282
294 294 293 293 293 294 295 295 296 296 296 296 295 294 293 292 292 292 292 292 291 291 290 290 289 288 288 289 289 288 287 287 287 287 286 287 286 284 283 282 282 282 281
293 293 293 294 295 297 299 298 296 296 295 294 293 292 292 292 292 292 292 291 291 290 290 289 289 288 287 286 286 287 287 287 287 287 286 286 286 285 283 282 282 282 281
293 294 296 296 296 295 295 294 293 293 292 292 292 292 292 291 291 291 291 291 291 290 290 289 289 289 289 287 286 286 286 287 287 287 287 287 286 286 284 283 282 282 281
295 295 296 295 294 294 293 293 292 292 292 292 291 291 291 291 291 291 291 291 291 290 289 288 287 288 289 288 287 286 286 286 286 286 286 285 285 285 284 283 282 282 282
296 295 294 293 292 291 290 290 290 291 291 290 290 290 290 290 290 290 290 289 290 289 289 289 289 287 287 289 288 287 286 286 286 286 285 284 283 282 282 282 282 282 282
295 294 291 291 290 289 289 289 288 287 287 286 285 284 285 285 286 286 286 286 287 287 288 289 289 288 288 288 288 287 287 286 286 285 284 283 281 282 282 282 282 282 281

GFSMW_925_thetae_066.txt.gz
Theta_e
327 327 327 327 328 327 327 326 328 328 326 326 326 325 323 322 321 320 319 315 312 311 311 311 310 309 308 305 302 302 301 301 301 300 300 298 298 298 298 298 297 297 297
322 323 325 327 327 327 326 325 326 326 326 326 326 324 320 318 318 318 314 312 313 312 312 311 310 308 305 303 302 302 302 301 301 300 298 296 298 298 298 298 298 297 297
324 321 323 326 327 326 327 326 325 325 325 325 323 320 317 317 313 313 313 313 313 313 311 310 308 306 303 303 303 303 302 302 301 300 300 296 296 295 298 298 297 297 297
323 321 322 324 324 324 325 325 325 326 325 325 322 321 318 315 313 312 313 313 312 311 310 308 306 304 303 303 303 302 301 300 300 300 300 299 298 295 295 297 297 297 297
324 321 321 324 324 324 324 324 324 325 325 324 322 321 319 318 315 313 313 313 312 310 309 307 305 304 303 302 301 300 299 297 297 298 298 299 299 297 294 293 295 296 296
320 320 320 323 324 324 324 324 324 324 325 324 322 321 321 319 316 313 313 312 310 309 308 306 305 303 303 302 299 297 295 295 295 295 295 296 297 297 295 291 292 293 295
318 318 321 324 325 324 325 324 324 324 325 324 322 322 321 319 317 314 313 311 310 308 306 305 302 306 304 298 297 295 295 294 295 295 296 297 297 297 297 296 294 293 294
320 322 322 325 326 325 325 325 325 324 325 325 324 323 321 320 316 314 313 311 310 306 304 303 307 304 297 297 296 295 294 294 295 295 294 293 293 292 294 295 295 294 293
321 324 324 325 325 325 325 324 324 324 325 325 324 322 322 323 316 313 312 309 305 305 304 307 303 299 298 296 296 295 294 294 295 294 293 292 292 291 293 294 294 294 293
321 324 325 325 326 326 325 324 324 325 326 326 324 323 323 318 315 313 306 305 306 306 307 303 299 297 296 296 295 295 295 295 294 293 292 292 291 290 292 292 292 292 291
324 324 325 326 326 325 325 325 325 326 326 324 323 321 315 311 309 306 306 306 307 308 301 299 297 296 296 295 295 295 295 294 294 293 292 291 290 290 292 291 290 290 289
323 324 324 324 323 323 323 324 324 323 318 314 311 308 307 305 305 305 305 306 302 300 298 297 296 296 295 295 295 295 294 294 293 293 292 292 291 290 291 290 290 289 289
320 320 320 320 320 319 318 319 317 313 309 308 306 305 305 305 306 309 309 301 299 297 296 296 295 295 295 295 295 295 294 294 293 292 292 292 291 290 290 290 289 288 286
319 320 319 317 316 315 315 314 311 309 307 306 306 305 305 307 307 304 299 297 296 296 295 295 294 294 294 294 294 294 294 294 293 292 291 291 291 290 290 289 289 288 285
317 317 316 314 311 309 309 308 307 307 307 305 305 306 306 303 298 296 296 294 293 294 294 294 294 294 293 293 293 294 294 293 292 291 290 290 290 289 288 288 287 286 284
318 314 314 311 310 307 306 306 306 305 306 305 306 304 299 296 295 294 295 295 295 293 293 293 293 293 292 291 291 293 292 292 291 290 290 289 289 289 288 287 286 286 284
315 313 312 309 308 307 306 306 306 305 305 305 300 296 294 294 296 296 295 293 293 293 293 293 292 292 291 291 291 291 291 291 291 290 289 289 288 287 286 285 285 284 283
312 309 307 306 306 306 306 305 305 304 300 296 294 294 295 297 296 294 294 293 292 292 292 292 292 291 290 290 290 291 291 290 290 289 288 288 287 286 285 285 284 284 283
299 299 302 302 301 300 300 301 298 296 294 294 295 297 298 295 297 295 293 292 292 292 292 291 291 289 289 289 288 290 289 289 288 288 287 288 286 286 285 284 284 283 282
294 294 295 295 296 295 297 295 293 294 296 297 297 297 296 295 294 293 292 292 291 291 291 291 290 290 289 289 288 288 289 288 287 287 287 287 286 286 285 284 283 283 282
293 293 293 292 293 293 294 294 295 295 296 297 296 294 293 293 292 292 291 291 291 291 291 290 290 290 289 289 289 287 286 287 286 285 286 286 286 286 286 284 283 283 282
292 293 293 293 294 295 297 296 296 296 295 293 293 292 292 291 291 291 291 291 291 291 290 290 290 290 290 289 289 288 286 286 286 285 285 286 286 286 286 286 284 283 282
293 295 294 294 294 295 295 293 292 292 292 292 291 291 291 291 290 290 290 290 290 289 289 287 287 287 288 288 289 289 288 287 286 285 286 286 286 286 286 285 284 283 282
294 294 293 292 290 291 291 291 291 291 291 290 289 289 288 287 286 286 285 285 285 286 286 286 286 287 287 287 287 288 288 287 286 286 286 286 285 285 285 284 284 283 282
294 293 291 289 289 290 289 288 288 288 287 286 284 283 282 282 282 282 282 283 284 285 285 286 286 286 286 285 287 287 286 286 287 286 285 285 284 284 284 283 283 282 282
291 290 290 290 288 286 285 285 285 284 283 282 281 280 280 280 280 281 281 282 282 282 283 282 282 282 283 284 286 286 287 287 286 285 285 284 283 283 282 281 282 282 281

GFSMW_925_thetae_069.txt.gz
Theta_e
326 325 325 325 324 324 324 324 326 328 325 322 324 325 326 326 325 324 324 323 320 315 312 310 310 309 308 303 302 302 302 302 301 302 302 300 299 299 299 299 299 298 297
328 326 326 326 326 325 324 324 325 327 325 323 323 324 325 323 323 321 321 318 314 311 311 310 309 308 306 303 303 303 303 302 301 303 301 302 300 299 299 299 299 299 297
329 328 326 327 327 327 326 326 326 327 327 324 324 324 322 320 318 317 314 312 312 312 311 310 309 307 304 303 303 303 303 303 301 301 301 300 299 299 299 299 298 298 298
328 328 326 326 327 326 325 326 325 325 325 325 324 324 320 317 315 315 314 312 312 312 311 310 308 306 304 303 303 303 302 301 302 301 300 300 300 299 298 298 298 298 298
330 327 325 325 326 325 325 325 325 324 324 324 324 322 319 317 316 314 313 313 313 312 310 309 307 305 303 303 303 301 300 298 299 298 298 298 298 298 298 298 298 297 297
330 329 325 323 324 324 324 324 324 324 324 324 323 321 320 319 316 313 312 312 311 310 310 309 305 304 303 303 301 298 296 295 295 297 297 297 297 297 298 298 296 296 295
328 328 325 323 324 324 324 323 324 323 323 324 323 321 321 321 318 315 312 311 311 310 308 305 304 303 307 305 299 296 295 294 295 296 296 297 297 296 295 295 295 295 295
325 325 325 324 324 324 324 324 324 324 322 322 322 322 322 321 320 317 314 313 311 309 306 304 303 306 309 300 296 296 295 294 294 295 295 296 295 295 294 294 294 296 294
322 323 323 324 324 324 324 324 324 324 323 322 322 322 323 322 319 316 313 311 309 308 304 303 306 309 300 296 296 296 295 294 294 294 294 294 294 293 293 293 293 294 295
320 322 324 324 325 325 325 325 325 324 322 322 322 324 324 322 319 313 310 308 307 304 304 307 309 301 296 296 296 295 295 295 294 295 294 294 293 292 292 292 292 292 292
323 323 325 325 325 326 326 325 325 323 321 322 322 323 322 319 313 309 307 307 304 307 308 308 302 298 296 296 296 295 295 295 295 294 294 293 293 292 292 291 291 291 291
325 325 326 326 326 326 325 324 322 320 320 319 319 315 315 311 308 307 305 306 308 310 306 300 298 296 296 295 295 295 295 295 295 294 293 293 292 292 292 291 291 291 291
324 326 326 326 326 325 323 323 319 318 318 314 314 312 309 307 306 305 306 308 307 303 299 297 296 296 295 295 295 295 295 295 294 294 294 293 292 292 291 291 290 290 289
323 326 326 326 324 323 322 317 314 313 310 311 309 306 305 304 306 307 306 302 299 297 296 296 295 294 294 294 294 294 294 294 293 293 293 292 291 291 291 291 290 289 288
320 323 325 324 319 317 315 313 310 308 308 307 306 304 305 307 306 300 296 297 296 295 294 295 294 293 293 293 292 292 293 294 293 293 292 291 291 290 289 289 289 288 288
315 319 320 318 314 312 311 309 309 308 307 306 304 306 307 300 296 296 296 294 295 295 296 294 293 293 292 292 291 291 292 292 292 292 292 291 290 289 289 289 288 288 288
317 316 317 315 312 310 309 309 308 307 305 304 306 303 296 294 294 296 294 295 297 299 293 293 292 292 292 291 290 290 291 291 291 291 291 290 289 288 288 287 287 285 285
314 312 311 310 309 308 308 306 303 301 303 302 297 294 295 296 295 296 298 298 294 292 293 292 292 291 291 289 289 289 288 290 291 290 290 290 289 288 287 286 286 285 285
305 305 305 303 303 302 301 301 299 297 296 294 294 297 298 296 298 299 295 293 292 292 291 291 291 291 290 290 289 289 289 289 289 289 289 289 288 288 287 285 285 285 285
299 299 298 298 298 298 299 298 295 294 294 296 297 297 297 297 295 293 292 291 291 291 291 291 290 290 290 290 290 289 289 288 288 288 287 287 287 287 287 286 285 285 285
296 296 296 296 296 296 296 295 296 296 297 297 296 294 293 292 292 291 291 291 291 290 290 290 290 290 290 290 289 289 288 288 288 288 287 286 285 287 286 286 285 285 285
295 295 295 294 295 295 296 295 295 294 293 293 292 291 291 291 291 290 290 290 289 289 288 287 287 287 287 287 286 286 287 287 287 287 287 286 285 285 286 286 285 286 285
295 295 295 294 294 294 294 292 291 292 292 291 290 290 289 288 287 286 286 285 285 285 285 286 286 286 286 285 285 285 285 285 286 286 287 286 285 285 285 285 286 285 285
294 293 293 292 291 291 290 290 290 290 290 288 287 286 285 284 283 283 283 283 284 284 284 284 284 284 283 283 283 284 284 285 285 286 286 286 285 285 285 284 285 284 285
293 292 291 291 289 288 287 286 287 287 286 284 283 282 282 282 282 282 282 282 282 281 282 282 282 282 283 283 282 283 284 285 285 286 286 285 285 284 284 284 284 284 284
291 291 290 288 286 285 284 283 283 283 282 282 281 281 281 281 281 281 281 280 280 280 280 281 280 280 280 280 281 281 283 284 285 286 286 285 285 285 285 284 283 284 284

GFSMW_925_thetae_072.txt.gz
Theta_e
327 325 326 325 324 323 324 326 329 330 330 327 324 325 327 328 326 326 325 323 320 320 319 317 314 312 311 309 309 309 309 308 307 307 308 306 304 303 302 302 301 301 300
327 326 325 326 325 325 326 327 329 330 329 325 324 326 328 326 327 326 322 320 319 318 316 315 313 312 311 309 309 309 309 308 306 307 306 307 305 303 302 301 301 301 300
330 327 326 326 326 325 325 327 328 329 329 328 324 327 327 325 325 324 319 317 318 315 315 314 313 312 310 309 309 309 309 309 307 305 304 304 304 301 301 301 301 300 300
328 329 327 327 327 327 326 326 327 329 330 329 327 325 325 326 325 322 318 315 313 314 314 313 312 311 309 309 308 309 308 307 307 305 303 301 300 300 300 299 300 300 300
331 329 329 327 327 327 328 329 329 330 330 329 328 327 327 326 321 318 316 314 314 314 313 312 312 310 309 308 307 307 306 305 303 301 300 300 300 300 300 302 300 299 298
333 332 328 327 328 329 330 329 329 329 328 328 328 327 327 323 319 317 316 315 315 315 313 312 311 310 308 307 307 304 302 301 300 299 299 298 298 299 299 300 298 297 296
332 333 332 330 328 328 329 329 329 328 328 327 327 326 326 324 320 318 316 317 315 314 313 312 310 308 306 307 307 304 301 300 300 299 298 298 298 298 297 297 297 297 296
328 332 333 331 329 328 328 328 329 329 328 328 327 325 325 324 322 319 318 317 316 315 313 311 309 307 305 308 306 300 300 300 299 299 298 298 298 297 297 296 295 297 296
326 328 330 331 330 329 328 328 328 328 328 327 326 326 325 324 322 321 321 319 317 315 311 309 306 304 308 307 299 300 300 299 299 299 298 298 297 297 296 295 294 294 297
325 326 328 329 330 330 329 328 328 328 327 327 326 324 325 324 322 321 320 318 315 310 309 306 304 306 309 300 300 300 300 299 299 298 298 297 297 296 296 295 294 294 294
326 325 326 326 328 329 329 329 328 327 328 327 325 324 324 323 321 320 317 314 310 307 305 305 309 308 302 300 300 300 299 298 298 298 297 297 296 296 295 295 294 293 293
328 327 327 327 327 329 329 328 328 328 328 327 325 324 323 319 315 311 310 309 307 305 308 309 306 302 300 300 299 299 298 298 298 297 297 297 296 296 295 294 294 293 293
327 329 329 330 328 328 328 329 329 327 325 324 320 316 315 313 310 308 307 306 306 307 306 302 301 300 299 299 299 298 298 297 297 297 296 296 296 295 295 294 293 293 292
323 327 330 330 330 329 329 328 327 324 319 317 314 312 310 308 307 306 306 307 307 302 298 299 299 299 298 298 298 297 296 296 296 296 295 295 295 294 294 293 292 292 292
320 323 328 331 330 329 328 326 320 315 313 312 309 308 306 306 306 307 307 305 298 298 298 298 298 298 298 297 296 295 295 294 294 294 295 295 294 293 293 291 291 291 290
318 319 324 329 327 325 324 318 315 313 312 311 309 306 303 306 305 303 298 297 297 296 297 298 300 298 296 294 292 292 293 293 293 293 293 293 293 293 292 290 290 289 289
321 321 324 325 323 321 318 315 313 311 309 307 304 302 304 301 297 296 296 295 297 299 300 299 296 295 295 294 292 290 290 291 291 292 292 292 292 292 291 291 290 289 288
320 320 321 320 319 318 317 315 313 310 307 305 301 299 296 296 296 297 297 299 301 298 297 296 296 295 294 293 291 290 290 291 291 292 292 292 292 291 291 291 290 289 288
316 316 316 316 316 314 312 310 306 304 302 300 296 295 296 297 299 299 300 299 297 296 295 294 294 293 293 292 291 290 291 291 292 292 291 291 291 291 290 290 289 289 288
310 310 310 310 310 309 307 305 303 300 298 296 297 298 299 298 299 298 296 295 294 294 293 293 293 293 292 292 291 290 290 290 291 291 291 291 290 290 288 288 289 288 288
306 307 308 308 307 306 305 302 299 297 297 298 296 296 297 297 295 294 294 293 293 293 293 292 291 290 290 289 288 287 287 287 287 287 287 289 289 289 288 286 287 287 288
304 305 305 304 303 302 301 300 299 298 297 297 296 295 294 292 293 293 293 292 292 290 289 288 288 288 288 287 286 285 284 284 285 285 286 286 287 287 288 287 285 286 286
303 303 302 301 300 299 298 298 297 296 295 294 293 292 291 290 289 290 289 288 287 287 287 287 287 286 286 285 285 284 284 284 285 285 286 285 285 285 286 286 286 285 286
302 300 300 298 297 296 296 295 294 294 293 291 290 289 287 287 286 286 286 286 286 286 285 285 285 285 284 284 282 282 283 283 284 286 286 286 286 286 286 287 286 285 285
299 299 298 296 295 293 292 291 291 290 289 288 286 286 286 285 285 285 284 284 283 282 283 283 283 282 282 280 279 279 279 281 283 284 286 287 288 288 287 287 286 286 285
298 297 296 294 292 290 288 287 287 287 286 286 285 284 285 284 284 284 284 281 280 280 280 279 278 278 278 277 277 277 277 279 280 284 285 286 287 287 287 287 287 286 286

GFSMW_925_thetae_075.txt.gz
Theta_e
326 326 324 325 323 323 323 322 324 324 326 328 326 324 324 328 329 329 330 329 327 326 324 322 320 317 315 313 313 313 313 312 311 311 312 310 309 307 306 305 304 303 303
327 326 326 326 323 323 322 323 326 328 329 327 324 322 324 328 329 329 328 326 324 323 324 322 319 316 314 313 313 313 313 313 311 311 310 311 309 307 306 305 304 304 303
328 327 327 327 326 324 324 325 327 329 330 326 323 324 325 327 328 327 327 325 323 323 322 320 318 315 314 313 313 313 313 313 312 310 309 309 309 305 304 304 303 304 303
328 327 327 327 327 326 327 328 328 330 330 330 325 325 328 328 327 327 326 321 320 319 320 319 316 316 314 313 313 313 313 311 311 309 307 306 305 306 305 303 303 302 302
329 328 327 326 327 327 327 327 328 328 329 330 330 327 327 326 327 326 323 319 320 318 318 317 316 316 313 313 312 311 311 309 307 305 304 304 303 302 303 304 303 302 301
330 329 327 326 327 328 329 329 328 328 329 331 331 329 328 327 327 325 320 318 318 316 317 316 315 315 313 312 311 310 309 306 304 304 303 302 301 301 302 303 302 300 299
331 330 329 328 327 328 329 330 330 330 330 332 331 331 330 329 326 324 322 320 318 317 317 316 315 314 312 310 308 310 309 305 304 303 302 300 300 301 301 300 299 299 298
330 332 332 329 328 329 330 331 331 330 330 330 330 330 330 329 327 324 323 321 319 319 318 315 314 313 311 307 309 310 305 303 302 303 301 300 300 300 300 299 298 299 297
326 329 331 332 330 329 329 331 331 330 330 330 330 330 329 328 327 325 323 321 319 318 316 315 314 311 308 307 309 304 301 302 302 302 301 301 300 299 298 298 298 297 298
327 327 328 330 332 331 330 331 331 330 330 330 331 329 328 327 327 325 323 320 319 318 316 314 311 308 306 309 309 302 303 303 302 301 301 301 300 299 298 298 297 297 296
327 327 328 329 330 332 332 331 330 329 329 330 330 328 327 326 325 324 322 322 319 315 313 311 308 305 307 309 303 303 302 302 302 301 300 300 299 298 298 297 297 296 296
325 327 328 327 328 331 332 332 332 330 329 330 330 327 325 326 323 321 319 316 313 311 310 307 305 308 305 302 302 302 302 301 300 300 300 299 298 298 298 297 297 296 296
324 327 328 329 329 330 331 332 332 330 329 330 327 323 324 323 321 319 317 314 310 308 306 306 306 302 301 302 302 301 301 301 300 300 298 298 298 297 297 297 297 296 295
323 325 328 329 330 330 331 331 331 331 330 324 320 317 317 314 311 308 309 308 307 307 307 306 303 301 301 301 300 301 300 299 298 297 297 297 297 296 296 296 296 295 295
320 322 325 329 331 331 331 330 331 329 325 321 317 312 310 310 309 308 307 307 307 306 303 302 300 300 300 300 301 299 297 296 296 295 295 295 295 295 295 295 294 294 293
320 320 322 326 331 331 331 329 325 321 318 314 310 308 308 306 305 305 306 305 302 300 300 300 300 301 302 299 296 294 293 294 294 294 294 294 294 294 294 294 293 293 292
323 322 323 327 330 330 324 319 317 315 314 311 308 306 304 302 305 304 301 299 299 298 300 301 302 301 298 297 295 294 292 292 292 292 293 293 293 293 293 293 293 292 292
323 324 326 326 326 323 318 315 314 311 309 307 305 304 303 302 300 300 300 300 301 302 303 301 299 298 297 295 294 292 291 292 292 293 293 293 293 293 293 292 292 292 291
323 323 323 323 322 319 316 313 310 309 307 306 305 303 302 300 298 299 301 302 302 300 299 298 296 295 295 294 293 292 293 293 293 292 292 292 292 291 291 291 291 291 291
318 319 320 320 319 317 315 313 310 308 307 304 302 300 299 301 302 301 302 300 299 297 295 295 295 295 294 294 292 290 289 289 289 288 288 288 287 287 287 288 289 290 289
315 315 316 316 315 312 310 308 307 306 303 301 300 301 300 300 300 299 297 296 295 295 295 294 293 291 290 290 288 287 286 286 286 286 286 287 287 286 286 287 287 288 288
312 314 314 313 312 310 309 307 305 303 301 301 299 299 298 297 297 296 295 295 294 294 292 290 290 290 290 288 287 285 284 284 284 285 286 287 287 286 286 286 286 286 286
312 311 310 309 307 306 306 305 302 301 299 299 298 297 296 294 294 294 293 291 290 290 290 289 289 289 287 287 286 283 281 282 282 283 284 285 286 286 287 287 287 287 286
310 308 307 306 305 303 302 302 301 299 298 297 296 294 293 291 290 289 288 289 289 288 287 287 287 287 285 285 283 281 281 281 281 282 282 283 285 287 288 288 288 287 286
307 306 306 304 302 301 299 298 298 297 295 293 291 290 289 289 288 288 287 287 284 283 285 285 284 283 283 281 278 278 278 278 279 279 282 285 285 286 286 287 288 288 287
305 303 302 300 298 297 295 295 294 293 291 290 289 289 288 287 287 287 286 283 282 280 279 279 279 279 278 276 276 277 277 277 279 280 282 282 282 282 282 284 284 286 287

GFSMW_925_thetae_078.txt.gz
Theta_e
326 324 323 323 322 319 318 318 317 317 316 320 322 323 323 324 321 318 323 325 328 328 326 324 322 319 316 314 313 312 312 312 312 311 312 312 311 308 306 306 305 305 304
326 326 326 325 324 321 321 321 321 320 322 323 325 324 325 324 322 324 326 327 327 327 326 324 322 319 316 314 313 313 314 314 312 312 311 310 310 308 307 306 305 305 304
328 326 325 326 325 324 324 325 325 324 326 325 327 324 325 325 326 326 327 328 327 326 325 324 321 318 316 313 313 313 314 314 312 311 310 309 308 306 306 306 305 304 304
328 327 326 326 324 325 324 324 324 327 329 328 326 324 325 327 328 327 327 327 325 323 324 323 320 317 315 314 313 314 314 313 312 311 310 308 306 304 303 304 304 304 303
328 327 327 328 327 324 323 324 325 328 329 329 328 323 326 327 327 328 327 325 323 323 324 321 319 316 316 314 314 314 313 312 311 308 306 305 305 305 304 300 303 303 303
328 327 327 327 327 327 325 326 328 330 330 330 328 327 328 327 328 328 326 324 321 321 321 320 318 316 315 314 313 312 311 310 308 306 305 304 303 302 302 301 302 301 300
330 328 328 327 328 328 328 329 329 329 330 330 331 329 329 327 328 327 325 322 320 319 320 318 317 316 315 314 312 311 310 308 307 305 304 303 301 301 301 301 301 300 299
331 330 328 327 327 328 329 329 329 329 329 332 332 329 331 329 329 328 325 322 321 320 319 317 316 315 315 312 311 309 308 306 304 303 303 302 301 301 301 301 300 297 298
329 331 330 329 328 328 330 330 331 331 330 332 333 331 330 331 330 327 324 323 322 320 318 318 316 315 313 311 308 309 304 303 304 303 303 302 302 301 301 299 299 299 296
328 328 330 331 329 329 329 331 331 331 331 331 332 332 330 331 330 327 325 324 322 320 319 318 316 313 311 308 309 308 306 303 303 303 302 302 301 301 300 299 298 298 298
328 328 328 329 332 330 330 332 332 332 332 331 332 332 331 330 328 328 326 324 321 320 318 315 312 310 308 307 308 309 305 304 303 302 302 301 300 300 300 299 298 298 298
324 326 327 328 329 333 331 332 332 332 332 331 332 332 330 328 327 326 324 323 322 319 315 314 311 309 306 306 306 303 303 302 302 302 301 301 301 300 299 299 299 298 298
323 326 327 328 328 329 334 333 333 332 332 331 331 329 327 327 326 325 323 321 317 314 313 312 310 307 308 305 302 302 302 302 302 301 301 300 299 298 298 298 298 298 297
322 323 327 328 328 329 331 332 334 333 331 330 327 324 324 323 320 318 316 314 313 311 310 309 307 308 306 304 302 302 301 301 300 299 298 297 297 296 296 296 297 297 297
321 321 322 328 329 330 331 332 331 328 326 325 320 316 315 315 314 315 313 312 310 309 308 307 307 305 302 301 301 301 301 297 296 295 295 295 295 295 295 294 294 294 295
321 322 321 323 331 332 331 328 325 321 318 314 311 312 311 311 310 309 308 309 308 307 307 306 303 300 300 301 300 299 297 295 293 293 293 293 293 293 293 293 293 293 293
322 323 323 323 333 328 323 319 317 316 313 311 310 309 309 307 306 306 306 306 306 304 302 300 301 302 302 301 297 296 295 293 291 292 292 293 293 294 294 294 294 293 293
323 323 324 329 325 320 317 316 315 312 310 309 308 306 305 303 304 305 306 304 300 299 300 301 302 300 299 297 295 293 293 292 293 293 293 293 293 292 291 290 289 289 290
324 324 326 325 321 318 315 312 311 310 308 307 305 304 303 303 303 301 301 300 301 302 302 300 299 297 295 294 293 293 292 292 292 291 290 289 289 288 287 287 286 287 287
323 324 324 320 318 315 312 311 309 307 307 306 305 304 303 301 301 300 301 303 303 301 299 296 295 295 294 292 291 290 289 287 287 287 286 286 286 287 287 287 287 287 287
320 322 322 320 318 314 312 310 309 308 307 306 304 301 300 300 302 302 302 299 297 296 295 295 295 293 291 290 289 288 286 285 285 284 284 285 286 286 286 286 285 286 286
318 319 319 318 316 314 312 310 309 307 304 301 301 302 302 301 300 298 296 296 295 295 294 292 289 290 290 289 287 285 284 283 282 282 282 283 283 282 283 284 286 287 288
315 316 316 314 312 311 310 308 305 303 303 302 301 299 297 297 297 296 295 293 292 291 291 289 289 289 288 287 285 284 282 281 281 280 281 281 281 284 286 287 287 288 288
314 314 312 310 308 308 307 304 303 302 301 299 298 296 294 293 292 291 290 290 290 289 288 288 288 288 286 285 284 282 278 279 278 278 278 279 283 284 283 283 284 285 285
312 310 309 307 305 304 303 302 301 300 299 297 294 292 290 290 289 289 288 288 287 286 286 286 284 284 283 281 279 277 277 277 277 277 279 280 282 281 281 281 281 282 282
309 308 306 304 302 301 299 299 298 296 294 292 290 289 288 288 288 287 285 284 283 283 281 280 279 280 279 278 276 277 277 277 277 278 279 281 280 279 279 279 279 279 279

GFSMW_925_thetae_081.txt.gz
Theta_e
323 321 320 320 319 319 318 317 316 314 314 315 315 314 313 317 316 315 317 318 319 322 324 326 324 320 320 316 313 311 312 312 312 311 312 312 310 309 307 306 305 305 304
322 321 321 319 319 318 318 318 316 314 313 313 315 314 315 319 319 318 320 320 322 323 324 325 323 321 318 315 313 312 312 312 312 312 310 307 309 308 307 306 306 305 304
324 323 322 321 319 318 318 317 317 317 316 315 315 319 322 323 323 322 322 320 324 325 325 325 323 321 318 315 313 312 312 313 312 311 311 306 306 305 306 307 307 305 305
325 324 324 322 321 319 319 317 317 316 316 317 321 323 323 325 325 324 321 324 325 325 325 325 323 322 318 315 313 312 313 314 312 311 310 309 307 302 302 304 303 303 304
325 325 325 324 322 319 319 319 321 321 320 321 323 325 324 324 325 324 324 326 326 326 325 324 323 321 318 315 313 313 313 314 311 310 309 306 306 306 302 300 301 302 302
325 324 324 324 324 321 321 323 324 325 324 326 326 327 323 325 326 326 327 327 327 325 323 324 322 320 317 315 314 313 313 313 312 309 307 304 303 302 301 298 299 300 301
326 325 324 324 324 323 323 323 323 323 327 328 327 328 325 324 326 327 327 327 326 324 323 323 323 319 317 315 314 313 313 312 310 308 305 304 302 301 301 301 300 299 300
325 325 325 325 325 324 323 323 323 323 327 328 329 327 328 326 326 327 327 326 326 325 323 323 322 319 317 315 314 313 311 310 309 305 303 303 303 301 301 300 300 296 297
326 325 324 326 327 326 325 323 323 325 327 328 329 329 328 327 328 327 327 326 325 324 322 322 319 318 316 315 312 310 308 308 304 303 303 304 303 301 301 301 300 298 295
325 325 325 325 326 326 326 327 327 327 327 327 329 330 330 330 328 328 327 326 324 322 321 319 318 316 313 310 309 310 308 304 304 305 304 303 302 302 301 301 300 299 298
322 321 326 325 325 326 327 327 327 327 328 327 329 331 330 330 330 330 327 325 323 322 320 318 317 315 311 313 311 309 308 308 305 304 304 303 302 301 301 300 300 299 299
320 320 321 323 326 326 326 327 328 328 329 329 330 332 331 330 330 330 327 324 323 322 320 318 316 313 314 311 309 308 308 305 303 304 302 302 301 301 301 300 300 299 299
317 319 321 322 327 327 327 327 329 329 329 330 331 331 331 330 328 328 326 324 323 320 318 316 315 314 311 308 308 307 307 304 303 302 302 301 300 299 298 297 297 297 297
317 318 320 321 323 327 328 329 330 330 330 330 330 330 329 329 327 327 325 323 320 320 317 315 313 311 309 308 308 306 303 302 302 302 300 298 297 296 296 296 296 296 296
318 316 320 321 322 326 329 330 331 331 331 329 327 326 327 325 324 321 323 321 320 316 314 312 311 308 308 307 305 302 302 301 298 297 295 295 294 294 293 293 293 293 293
317 318 317 323 325 328 326 326 326 326 326 320 318 318 318 319 318 316 315 313 311 312 311 309 307 307 306 303 302 302 299 298 296 295 292 291 292 292 292 293 294 293 291
319 319 321 328 326 323 320 318 316 317 315 314 312 313 312 312 311 310 309 310 309 308 307 307 307 303 301 301 299 297 297 295 294 292 291 291 293 293 292 291 291 290 289
320 320 325 321 318 317 316 314 314 313 313 312 312 312 312 310 308 308 307 306 306 307 306 303 301 301 301 297 296 295 294 293 292 293 293 292 291 290 288 287 287 286 286
318 321 321 318 316 315 314 313 312 311 310 309 309 308 307 305 305 304 305 306 304 301 300 300 300 299 296 295 294 293 293 292 292 291 290 288 287 286 285 286 286 287 286
320 320 318 316 315 313 313 311 309 309 307 306 305 306 305 304 304 305 303 301 300 301 300 297 296 295 293 293 293 292 290 288 287 285 285 284 283 284 285 285 283 283 284
320 319 317 315 313 312 311 308 308 307 307 306 305 304 303 302 301 301 301 302 302 299 296 294 292 292 292 290 289 288 287 286 285 284 282 281 281 281 281 283 285 285 286
318 318 316 314 312 311 310 308 308 307 306 305 302 301 301 301 301 302 300 298 296 295 294 293 290 289 288 288 288 286 285 284 282 280 280 279 279 279 282 284 284 284 284
315 317 314 314 313 312 310 308 306 304 303 302 301 301 301 301 299 296 295 295 295 295 292 291 290 288 287 285 284 284 283 281 279 278 278 278 278 282 282 281 280 280 282
312 313 311 310 309 309 307 303 302 302 301 299 298 297 296 293 293 292 291 290 291 290 289 289 288 287 285 284 283 282 280 278 277 277 277 278 280 282 280 279 278 279 279
309 308 305 303 302 303 303 302 302 301 297 294 292 291 290 289 288 289 288 289 288 288 287 286 286 286 284 283 281 279 277 278 278 277 278 279 280 279 278 277 277 277 277
305 303 302 296 289 290 291 294 295 293 291 289 288 288 288 287 286 286 285 284 283 283 283 281 280 280 280 279 278 278 277 277 277 278 278 278 278 277 276 276 275 275 275

GFSMW_925_thetae_084.txt.gz
Theta_e
323 322 321 320 319 318 318 317 317 319 318 317 314 317 319 317 317 318 317 321 320 322 324 324 323 322 322 320 316 313 311 310 310 311 310 309 308 307 305 304 304 304 304
322 321 320 320 320 319 318 317 317 317 316 315 315 316 315 315 315 315 317 319 318 319 322 324 324 322 321 318 316 312 311 312 311 311 310 307 309 309 307 305 305 305 304
322 321 320 319 319 318 318 317 316 316 315 315 315 315 315 315 316 316 317 317 317 318 321 323 324 324 321 318 315 313 311 312 311 311 310 305 305 304 306 307 307 306 305
322 320 320 319 318 318 317 317 316 315 314 314 314 315 315 317 320 318 316 316 316 318 321 323 324 324 319 319 316 313 312 312 312 311 311 310 307 302 302 304 303 303 304
322 321 320 321 319 318 317 317 316 315 314 314 314 315 318 319 319 319 318 317 318 320 321 323 325 323 320 319 316 313 312 312 313 311 310 309 307 305 302 300 302 302 301
322 321 321 322 320 318 317 318 317 317 316 315 315 316 318 321 322 324 323 323 322 321 323 325 325 324 322 319 317 314 312 313 313 312 311 308 305 303 303 300 300 300 301
323 323 323 322 322 319 318 318 317 317 316 316 317 318 321 323 323 324 324 324 323 325 325 325 325 324 322 320 317 314 313 313 312 310 308 306 304 302 301 300 299 298 299
324 323 323 323 322 320 318 317 317 319 320 321 321 322 322 323 324 324 324 324 323 324 325 325 324 323 321 319 315 313 313 311 309 309 307 305 304 301 301 300 299 295 296
325 323 322 323 323 322 318 317 319 320 322 323 324 325 325 325 324 324 324 324 324 324 325 325 323 323 321 318 315 313 311 310 310 309 308 305 303 305 305 301 301 299 295
324 324 323 323 323 324 322 319 320 322 322 323 325 326 327 327 326 325 324 325 325 325 324 324 323 322 321 317 315 313 312 311 311 310 307 303 305 304 302 302 301 301 299
324 324 324 324 324 323 323 322 322 322 322 321 324 326 327 327 327 327 326 325 325 324 322 322 320 320 319 316 313 312 312 312 310 307 304 307 303 303 302 301 301 300 299
324 324 323 323 324 325 325 325 323 322 322 323 324 326 327 328 328 326 325 324 323 322 323 321 319 318 317 315 312 312 312 310 307 307 306 303 303 303 301 301 300 300 300
317 320 322 323 323 324 325 325 325 325 325 326 326 326 327 328 328 326 325 326 324 323 321 321 319 318 316 312 312 312 310 308 308 306 304 303 302 301 301 300 298 297 296
315 316 317 320 323 324 324 325 325 326 326 326 327 327 328 329 328 326 324 327 320 322 321 320 319 317 312 311 310 309 308 308 305 304 303 302 301 298 296 295 294 294 293
315 314 317 318 322 324 324 325 325 326 327 327 327 327 327 327 327 324 327 324 321 321 322 315 312 311 310 309 309 308 307 305 303 302 300 296 295 293 293 292 292 293 293
316 314 316 318 320 324 325 326 326 327 328 327 327 326 324 322 320 321 316 317 315 314 313 311 310 310 308 308 307 306 303 302 302 296 294 293 291 291 292 292 292 291 290
315 316 319 321 325 326 325 323 321 323 324 322 319 318 317 316 318 319 317 313 312 311 310 309 309 308 307 306 304 302 301 296 294 293 292 291 292 292 292 291 290 289 288
319 325 322 317 318 319 317 317 316 316 314 314 315 317 318 316 313 312 311 310 308 308 308 308 307 306 302 301 300 297 295 293 293 293 292 292 291 290 288 287 286 286 285
318 321 318 316 315 313 313 313 313 314 315 313 313 313 314 312 310 308 307 306 306 307 307 306 303 300 300 298 294 294 293 293 292 291 290 288 287 285 284 284 284 282 282
320 317 316 314 314 313 314 312 311 311 310 310 311 311 310 309 307 306 305 305 306 303 301 300 300 298 294 293 293 293 292 291 289 287 286 284 282 281 281 281 282 284 285
317 316 315 312 311 312 313 309 309 308 309 309 308 307 306 306 306 305 305 303 300 299 298 297 294 292 292 290 291 290 289 287 286 284 283 280 279 279 279 281 283 283 282
315 314 312 311 311 312 312 308 307 307 307 306 305 304 303 302 303 302 301 300 298 295 292 291 289 288 288 288 286 286 285 285 283 281 279 278 278 278 281 282 281 280 279
314 314 311 310 311 311 310 307 306 306 304 302 300 300 301 300 301 300 298 295 293 291 290 289 287 286 285 284 284 284 284 282 280 278 277 277 278 281 281 279 278 278 277
310 312 310 307 305 307 307 305 304 302 300 295 294 294 295 293 293 294 293 292 291 290 290 289 286 284 283 283 283 283 281 278 278 278 277 278 279 280 279 278 277 276 276
304 303 296 292 292 297 299 298 297 298 293 290 289 289 289 288 287 287 286 288 288 288 287 287 286 285 283 282 281 279 278 278 278 278 278 278 278 277 277 276 276 274 274
293 291 289 289 288 289 290 291 291 292 289 288 287 286 286 285 285 285 284 283 283 283 283 283 281 281 280 279 278 278 278 278 278 278 278 277 276 275 275 274 274 273 273

GFSMW_925_thetae_087.txt.gz
Theta_e
321 322 321 319 319 319 318 319 318 318 319 316 319 321 321 323 320 323 323 321 320 323 324 320 321 322 320 321 319 316 311 309 308 308 308 306 306 306 305 304 304 304 304
322 322 322 320 319 318 318 318 318 317 317 316 317 318 321 316 316 317 317 317 318 321 322 323 323 322 321 321 320 316 310 309 309 310 309 307 308 308 307 305 304 304 304
321 322 321 320 319 318 318 317 318 317 317 317 315 315 316 315 317 316 318 319 320 320 320 322 324 323 321 321 320 315 314 310 310 310 310 305 306 305 307 306 304 304 304
320 321 319 318 318 318 318 317 317 317 316 316 315 314 314 315 316 316 316 316 318 318 318 320 323 324 323 321 319 316 314 312 311 310 310 309 308 303 303 304 305 306 305
320 320 319 318 317 316 317 317 316 317 316 315 315 314 314 315 315 316 316 316 316 317 319 321 322 323 324 323 320 317 313 312 311 311 310 308 306 305 301 300 302 302 302
321 320 319 319 317 318 317 317 317 317 317 315 314 314 314 314 315 315 318 317 317 319 318 320 320 321 323 324 322 318 315 312 311 311 311 309 306 304 303 300 301 300 301
321 320 319 319 319 317 317 317 317 316 316 315 314 314 314 315 316 316 317 319 318 318 315 314 318 320 323 324 323 319 317 313 312 312 310 310 309 303 304 304 300 299 299
321 320 320 319 320 319 317 317 316 316 316 315 314 314 314 315 316 317 318 318 318 317 316 318 320 320 323 324 322 319 317 313 312 311 312 310 308 308 308 302 300 298 297
321 320 320 321 321 320 319 317 317 316 316 316 315 315 315 316 318 318 319 320 321 322 322 322 321 322 325 324 322 319 317 313 312 312 313 310 311 311 309 301 305 300 298
323 321 320 321 321 321 320 318 317 317 316 316 316 316 316 317 318 320 321 322 323 323 323 323 323 323 324 323 321 318 315 312 312 312 311 312 312 309 303 306 302 301 300
322 323 322 321 322 321 321 318 317 317 316 317 318 319 320 321 321 322 322 322 323 324 323 323 323 323 322 321 318 317 315 312 311 312 311 311 309 305 304 305 303 302 299
321 322 322 322 322 322 322 319 317 317 317 319 320 321 322 323 324 325 324 323 323 324 323 323 322 321 322 322 319 316 314 311 310 312 310 309 305 305 305 303 302 301 300
320 321 321 322 322 322 322 322 321 318 318 319 321 321 321 324 325 325 325 325 324 321 321 323 322 321 321 318 318 317 313 311 311 310 308 306 306 304 303 302 301 300 299
317 320 320 321 322 323 323 322 322 322 321 321 321 321 321 322 324 325 325 324 323 323 321 317 318 320 318 316 313 311 310 309 309 309 307 307 304 303 302 300 298 296 295
312 315 318 319 320 321 322 323 324 324 322 322 321 322 323 324 324 325 325 324 325 324 318 316 316 319 315 314 311 310 309 308 308 307 305 303 302 300 297 295 294 293 292
313 312 314 315 317 319 321 322 323 324 324 323 323 324 324 325 326 326 324 322 322 319 318 316 316 315 312 312 311 309 307 307 306 302 301 296 293 293 293 292 292 291 291
313 312 311 315 317 320 322 322 321 322 324 324 322 320 322 322 322 322 322 321 318 318 316 313 312 311 309 308 307 307 307 304 302 301 294 292 291 291 291 290 290 290 289
312 319 321 318 317 318 320 319 319 319 320 318 317 317 318 320 320 319 318 317 315 312 310 309 307 307 307 306 305 304 302 301 296 292 291 291 290 290 289 288 287 286 285
315 318 317 315 314 315 316 316 315 315 315 314 315 315 316 316 314 312 311 309 308 307 306 305 304 305 302 302 301 300 295 292 292 291 290 290 288 285 284 283 282 282 282
316 314 313 312 312 313 315 315 314 314 313 313 313 313 312 311 310 309 307 305 306 305 305 303 302 300 297 295 295 294 292 292 290 288 286 284 283 281 281 280 281 283 283
313 313 313 311 310 311 311 311 311 309 310 311 310 310 309 308 307 305 304 304 303 301 298 295 293 293 292 291 291 290 289 288 286 284 283 281 279 279 279 280 283 282 280
313 312 310 309 311 312 312 308 307 308 308 307 306 304 303 303 302 302 300 299 297 295 291 289 287 287 287 287 287 287 286 284 283 281 279 278 278 278 280 282 281 279 278
312 311 310 308 309 310 311 307 305 305 302 300 298 298 299 297 297 297 295 293 292 290 288 286 285 284 284 284 285 284 283 282 280 278 278 278 278 279 281 280 279 278 277
311 309 304 300 299 303 303 301 299 299 298 295 293 294 295 293 293 293 292 290 289 289 288 287 284 284 283 283 282 281 280 279 278 278 277 278 279 280 279 278 277 276 275
297 296 294 293 293 294 295 296 297 299 293 290 288 287 286 286 286 287 287 288 288 289 288 288 287 285 282 281 280 279 279 278 278 278 278 278 278 277 277 276 275 274 274
292 290 289 289 289 289 289 290 290 291 289 287 286 286 286 287 288 287 284 284 284 284 284 283 283 282 281 280 279 279 279 278 278 277 277 277 276 275 275 274 274 273 272

GFSMW_925_thetae_093.txt.gz
Theta_e
323 322 322 321 320 320 321 321 321 322 322 322 322 322 323 322 322 324 320 322 323 323 321 317 316 317 316 316 316 311 309 307 306 306 306 305 305 305 305 305 306 305 303
323 322 320 321 319 319 319 320 320 320 320 320 320 321 321 321 322 324 321 322 322 323 324 322 317 317 318 317 316 315 309 308 306 309 309 310 308 306 304 305 306 305 305
324 323 322 321 320 319 319 319 319 319 320 320 320 321 322 322 322 322 323 322 319 319 319 321 318 317 318 318 318 316 312 310 307 308 312 312 314 311 308 306 304 305 305
323 323 323 321 320 320 319 318 318 319 319 319 318 322 321 321 320 320 319 318 317 317 318 318 317 317 317 318 318 318 315 312 311 308 308 309 310 313 313 307 307 305 304
324 323 322 322 321 321 319 318 318 318 318 318 319 319 318 320 320 319 318 318 315 316 316 318 319 318 318 319 320 319 318 315 313 311 310 308 307 307 311 315 308 304 307
324 322 321 321 321 320 319 319 318 317 317 317 318 317 318 318 318 319 320 318 316 315 318 318 317 318 320 321 321 321 319 318 315 313 311 310 310 308 307 309 304 306 306
324 323 322 321 319 319 319 318 318 318 317 317 317 317 318 317 317 316 317 318 319 318 318 319 319 319 319 319 320 321 321 320 317 314 312 311 311 312 310 310 308 307 305
324 323 322 320 319 318 318 318 318 318 317 316 316 316 316 316 317 317 316 316 317 317 317 316 316 317 318 318 319 320 320 321 321 319 315 313 311 311 311 310 309 304 304
324 324 322 320 319 318 317 317 317 317 317 317 316 315 315 315 314 314 315 316 316 317 317 316 316 316 316 317 317 318 318 319 319 318 317 315 312 310 310 310 310 310 310
322 323 322 321 320 319 318 316 316 316 316 317 317 316 315 315 314 315 315 316 316 316 316 316 316 317 317 317 318 318 319 318 318 317 316 315 312 310 309 309 311 309 309
322 322 322 321 320 320 319 318 317 318 317 317 317 316 316 315 315 315 315 315 316 317 317 317 317 316 317 317 319 320 320 319 318 316 316 316 313 310 309 308 311 309 307
322 322 322 321 320 320 320 319 318 318 318 318 317 317 316 315 315 315 315 315 315 316 316 317 318 319 318 318 320 320 318 318 318 317 315 316 312 310 308 308 309 306 304
321 322 322 322 321 321 321 320 319 319 319 318 317 317 316 316 316 315 316 315 315 315 316 317 318 317 317 319 322 320 319 317 316 316 316 316 314 310 308 308 307 305 303
319 322 323 323 321 321 321 321 320 319 319 318 318 317 317 316 316 316 316 316 316 317 318 319 319 319 320 321 321 320 318 316 315 316 317 315 312 310 308 307 305 303 302
315 320 322 323 323 322 322 321 321 320 319 319 318 318 317 317 318 317 318 319 319 320 321 321 321 321 321 321 320 318 316 316 315 314 313 312 311 310 308 306 303 303 301
317 316 319 321 322 322 322 322 322 321 319 319 318 318 317 317 318 319 319 320 321 321 321 321 321 321 321 321 321 319 315 314 313 310 308 307 306 305 305 304 303 302 300
316 316 315 317 320 321 321 321 321 321 320 319 318 317 317 317 318 318 319 320 321 321 321 321 320 319 317 316 316 314 312 310 308 306 303 302 301 300 299 295 294 292 292
316 315 312 315 316 317 317 317 318 320 320 320 318 318 319 318 319 319 319 319 319 318 316 314 313 312 310 310 310 310 307 304 299 297 296 295 293 292 292 291 290 289 289
313 316 316 316 316 316 316 316 316 315 316 317 317 318 318 318 317 315 313 312 312 310 307 304 304 303 299 300 302 304 299 294 291 290 289 289 287 287 288 288 286 285 284
316 315 315 315 315 315 315 315 313 311 310 311 311 312 313 311 309 308 307 305 305 301 300 296 295 294 292 294 297 298 293 289 287 286 285 285 283 282 282 282 282 283 284
312 313 313 313 313 313 311 309 308 306 306 307 308 307 307 306 306 304 303 302 299 297 292 290 289 289 289 289 290 290 289 287 285 284 283 282 281 281 281 281 282 283 282
311 311 310 310 309 308 307 305 302 301 302 302 300 299 298 297 297 297 293 292 290 288 286 285 284 285 285 287 287 288 287 286 285 282 281 280 279 279 281 281 281 281 280
307 306 305 303 303 304 303 299 298 297 297 295 292 291 292 292 291 291 290 289 289 287 286 285 284 283 283 283 284 284 284 284 282 281 280 280 280 280 281 280 279 278 278
302 299 297 295 294 294 295 295 293 293 292 291 290 289 288 288 288 288 288 288 288 287 286 284 283 282 282 281 281 281 280 280 280 279 279 279 279 279 280 279 278 277 276
295 294 293 291 290 290 290 290 290 291 290 290 288 287 286 286 285 285 284 284 285 285 285 285 284 284 282 281 280 280 280 280 279 279 279 279 279 279 279 278 277 276 275
291 291 290 289 289 288 289 289 289 290 289 288 287 287 286 285 284 284 283 282 282 282 282 281 282 280 280 279 278 278 278 277 277 278 278 278 277 277 277 277 276 274 274

GFSMW_925_thetae_096.txt.gz
Theta_e
329 327 325 325 323 324 322 322 322 322 324 324 324 324 324 326 326 326 326 325 323 321 320 321 321 320 319 318 317 317 316 316 314 312 311 311 310 310 310 312 314 314 313
330 327 325 325 324 323 323 321 321 322 322 323 323 323 323 324 325 324 323 324 322 320 320 321 321 320 320 319 318 317 316 315 312 312 312 313 311 309 309 310 311 311 310
330 328 325 324 324 323 323 323 322 321 322 323 323 323 322 322 322 322 323 323 323 322 320 320 320 321 320 320 318 317 317 316 312 312 314 317 318 316 311 310 310 311 311
329 329 327 324 323 323 324 323 322 320 321 322 322 322 321 319 322 322 320 319 320 321 321 322 321 321 321 321 319 318 318 317 315 312 313 315 316 318 318 313 311 310 310
330 329 328 324 323 322 323 322 322 319 320 321 321 321 320 319 321 323 322 321 320 322 321 320 321 320 321 321 321 319 319 319 319 316 315 313 313 314 315 319 314 311 310
329 329 327 325 325 323 323 321 322 320 320 321 321 319 320 319 320 321 322 323 322 321 319 317 318 318 321 321 322 322 321 320 319 320 318 318 318 317 316 313 312 314 312
330 330 328 326 325 324 323 322 321 320 320 321 321 320 320 320 319 320 321 321 320 319 317 317 317 318 318 321 322 323 323 323 321 320 319 317 317 317 315 312 314 312 311
330 330 328 326 325 324 322 322 322 321 319 318 319 319 320 320 320 321 320 320 319 318 318 319 317 315 316 319 320 321 323 323 322 322 322 320 320 316 313 313 312 313 312
329 330 329 326 324 324 323 322 322 321 321 320 319 319 319 319 320 321 320 319 319 319 320 320 321 321 320 321 322 322 323 323 322 322 322 321 318 315 315 314 312 313 315
328 329 329 327 325 324 323 322 322 322 321 321 321 320 319 319 319 320 320 320 319 319 319 320 320 320 320 320 321 321 321 321 321 321 321 321 319 318 317 315 313 312 312
327 328 329 327 325 324 323 321 321 321 321 322 322 321 321 320 320 319 319 319 319 319 319 319 319 320 320 320 320 320 321 321 321 321 321 320 320 318 316 314 312 310 310
327 327 328 328 326 325 324 321 319 320 320 321 321 321 321 321 320 320 319 319 318 319 319 319 319 320 319 320 320 321 321 320 320 320 319 318 317 316 315 313 310 310 309
326 327 327 328 327 326 325 324 322 321 322 321 321 321 321 321 321 320 319 319 320 319 319 320 320 320 320 320 321 321 320 318 319 320 318 318 316 314 313 312 310 309 309
324 327 327 327 327 326 325 325 324 323 323 322 322 321 321 321 321 320 320 320 320 319 319 319 319 320 320 320 321 321 320 322 322 320 319 318 315 313 312 312 310 310 309
321 324 326 328 327 326 326 325 325 324 323 323 323 322 322 321 321 320 320 319 319 319 319 320 320 321 322 322 323 322 321 321 319 318 316 315 315 314 313 312 310 308 306
323 323 323 325 328 327 326 326 326 325 324 323 323 323 322 321 321 321 320 320 321 321 321 322 322 323 323 322 321 321 319 317 316 315 314 312 309 308 309 309 307 305 301
322 323 322 322 325 326 326 326 326 326 325 324 324 323 323 322 321 321 321 321 321 321 322 322 322 321 318 318 317 315 313 311 308 306 303 300 298 297 297 296 295 294 293
321 321 322 319 320 324 325 326 326 325 325 324 324 323 322 322 321 321 321 321 320 318 314 311 309 308 305 307 309 308 304 300 296 294 292 291 290 289 290 290 290 288 288
318 319 319 320 321 321 322 323 324 324 324 321 321 321 321 319 317 314 311 308 308 304 299 297 296 296 294 297 299 301 295 291 288 288 288 288 288 288 288 289 287 287 286
320 320 319 319 319 319 320 318 316 313 311 310 309 310 310 308 305 303 300 298 297 292 292 290 289 289 289 291 293 293 290 287 286 286 286 286 286 286 286 285 284 284 284
317 316 316 316 316 315 312 309 307 305 303 302 302 301 301 299 298 296 294 293 290 289 287 287 286 287 288 289 289 289 288 287 285 284 283 283 283 283 283 283 283 284 283
312 312 311 311 311 310 306 303 300 299 297 296 296 295 295 294 294 293 291 290 289 288 286 285 284 284 284 286 286 286 286 285 284 283 282 281 281 281 281 282 281 281 281
304 301 300 301 301 301 300 298 296 295 295 295 293 292 291 291 291 290 289 288 287 286 285 284 283 282 282 282 282 282 282 282 283 282 281 280 281 281 282 280 280 280 281
300 298 297 296 296 296 295 295 296 295 294 293 292 291 290 289 288 287 287 287 287 286 285 285 284 284 284 284 283 283 283 282 282 282 281 281 281 280 280 280 280 280 279
297 296 295 295 294 294 295 296 296 295 293 291 291 289 288 286 284 284 284 284 283 286 286 285 285 284 282 280 279 279 279 279 279 281 281 281 280 280 280 279 280 278 277
294 293 293 293 293 293 294 294 295 294 292 291 290 289 289 287 285 283 281 280 280 280 280 281 280 279 278 278 277 277 276 276 277 279 278 278 277 277 277 277 276 276 275

GFSMW_925_thetae_099.txt.gz
Theta_e
331 331 330 329 328 326 326 324 326 324 324 324 325 326 327 327 328 329 328 326 325 323 319 318 323 322 322 320 319 320 320 320 319 317 316 315 315 314 315 317 318 318 317
331 332 330 329 327 326 326 324 324 324 324 324 324 324 326 327 328 328 327 326 324 320 323 323 323 320 320 320 320 320 321 320 319 317 317 317 314 313 313 313 316 317 316
331 332 330 329 328 326 326 325 324 325 322 323 324 324 324 325 326 326 325 323 322 320 317 321 322 321 321 321 320 321 320 320 318 316 318 318 319 317 313 312 312 313 315
328 332 331 329 329 327 326 326 325 323 323 323 324 324 325 323 324 324 324 323 321 319 320 321 322 322 322 321 321 321 320 321 319 317 316 317 319 322 321 313 312 312 313
329 331 331 328 328 328 326 325 325 323 324 323 324 323 322 322 323 323 323 323 322 321 321 321 321 322 322 322 322 321 320 321 320 318 318 316 317 317 318 321 317 315 313
330 331 331 328 327 327 325 324 324 322 322 322 323 323 322 321 322 322 322 322 322 322 320 321 322 323 323 322 322 321 320 321 321 321 320 319 319 318 318 319 319 315 314
330 331 331 330 328 327 325 325 324 322 322 322 322 321 320 320 322 323 322 321 321 321 320 321 322 322 323 322 321 320 320 323 323 322 322 322 321 321 320 318 317 318 316
330 331 331 330 328 328 327 324 324 323 322 323 323 322 322 320 319 322 323 322 322 322 322 321 318 318 318 317 320 321 319 319 323 324 324 324 323 322 320 319 316 316 317
330 331 331 330 328 328 327 326 325 324 323 323 324 323 322 321 319 320 321 322 323 323 322 320 320 319 319 319 317 320 320 320 321 323 324 323 324 323 323 322 318 317 318
329 331 331 331 328 328 327 326 325 325 324 323 323 323 322 322 321 320 321 323 322 320 320 321 320 320 318 319 320 320 321 321 322 323 324 323 323 322 321 320 317 316 315
328 330 331 330 329 328 327 326 325 325 324 324 323 323 323 323 322 322 323 322 321 321 321 321 321 321 321 321 322 322 322 322 322 322 323 323 323 323 322 321 319 318 316
327 329 331 331 330 328 327 327 326 325 325 324 324 323 323 323 321 322 322 322 322 321 321 320 320 321 321 321 321 322 322 322 322 323 323 323 323 323 321 321 319 317 316
328 329 330 331 331 329 328 327 326 325 324 324 324 324 324 324 323 323 322 322 321 321 321 321 321 321 321 321 322 322 322 322 323 323 323 322 321 319 319 318 316 315 314
325 328 330 330 330 329 328 327 326 324 324 323 324 324 324 324 324 324 324 323 323 322 322 322 322 322 322 322 322 322 322 323 323 323 320 320 321 320 318 317 315 314 312
324 326 328 329 330 330 329 328 327 326 324 324 324 324 324 324 324 324 324 323 323 322 322 322 322 322 322 321 321 321 321 322 322 321 320 317 314 314 312 311 310 311 310
322 324 325 328 329 329 329 329 328 328 326 326 325 325 324 324 324 324 323 323 323 323 322 322 322 322 320 320 322 323 323 320 315 312 308 305 303 301 299 299 299 300 301
321 322 324 325 327 328 328 328 328 328 327 327 326 326 325 325 324 324 323 323 323 322 320 316 317 313 311 312 316 315 311 306 302 299 297 295 293 293 293 292 293 292 292
322 322 323 324 324 327 328 328 328 328 328 327 326 326 326 325 325 324 319 317 318 315 310 306 304 302 298 301 303 305 301 296 293 291 290 290 290 290 290 290 290 289 289
322 321 322 322 322 324 327 328 328 328 328 327 327 326 326 320 312 309 305 303 303 298 294 293 293 293 291 295 297 298 293 291 288 288 287 288 288 289 289 288 287 286 286
322 322 323 323 323 324 326 327 327 322 314 311 308 308 309 306 301 299 297 294 293 290 290 289 289 289 288 289 290 290 289 287 286 285 285 286 285 285 286 285 285 287 286
321 321 322 323 321 319 315 310 306 304 302 302 302 300 299 298 295 293 292 291 289 288 286 285 285 286 286 286 287 287 287 286 285 285 284 282 282 282 282 284 283 282 282
316 316 316 313 311 309 305 302 300 298 297 296 295 294 293 292 291 290 289 288 287 286 285 284 284 283 283 284 283 283 284 284 285 284 283 282 281 282 282 282 280 280 282
306 305 304 302 302 301 299 297 296 295 294 294 292 292 291 291 290 289 289 288 287 286 286 285 285 284 284 284 283 283 282 282 283 282 282 282 282 282 282 281 280 281 281
302 300 299 298 297 297 297 296 295 295 294 292 291 290 289 288 288 287 288 288 288 287 287 286 285 283 282 281 282 282 282 282 282 283 282 282 281 281 281 281 281 281 279
298 297 297 297 298 297 297 296 295 294 292 291 290 288 286 285 284 284 284 283 284 285 284 283 283 281 280 279 278 278 278 279 279 281 280 280 279 279 278 278 278 277 277
296 295 295 296 297 297 296 296 296 294 293 292 290 288 286 284 282 281 280 280 279 279 279 279 278 276 276 276 276 276 275 275 277 279 278 277 277 276 275 275 275 274 274

GFSMW_925_thetae_102.txt.gz
Theta_e
330 334 332 331 330 329 327 326 327 326 325 325 325 326 326 328 331 330 327 325 326 327 326 325 325 326 326 325 324 322 319 318 318 317 316 315 315 316 317 318 319 319 318
332 334 332 331 329 327 326 326 327 325 325 325 325 325 326 326 328 330 328 325 327 325 324 323 323 324 325 324 322 320 319 320 320 319 317 316 315 315 315 316 318 319 318
332 334 333 331 329 326 326 325 326 325 325 326 324 324 324 326 327 328 328 326 326 324 322 317 318 322 322 321 320 320 320 322 320 318 318 318 317 315 314 314 314 317 318
325 333 332 332 329 327 326 326 325 325 324 324 324 325 326 326 326 328 326 325 325 323 320 319 321 318 321 320 319 320 321 321 318 317 318 317 319 320 315 313 313 313 313
326 334 332 331 330 327 326 326 326 324 324 324 325 325 323 324 324 324 324 324 323 321 320 322 320 319 321 320 320 321 321 322 319 318 317 317 317 318 318 318 313 312 312
327 332 332 330 330 328 326 326 325 324 324 324 324 324 324 323 324 323 322 321 320 320 320 318 319 322 321 321 320 321 320 320 321 319 318 317 317 317 318 316 317 316 315
330 331 332 330 329 328 326 325 324 323 324 324 325 324 323 324 323 323 322 321 320 319 319 316 319 321 320 317 319 321 321 321 321 320 321 320 318 319 319 318 318 317 318
331 331 332 330 329 328 325 325 324 322 322 323 323 323 322 323 323 322 322 321 320 319 319 318 321 319 320 319 319 320 321 320 320 321 321 320 320 321 322 321 320 317 318
330 331 332 331 329 328 326 326 324 323 322 323 323 322 321 322 322 322 322 322 322 322 321 320 320 320 319 316 321 320 319 320 320 319 318 319 320 321 323 322 321 319 319
330 331 331 331 330 329 328 326 326 324 323 324 323 322 322 321 320 323 323 321 321 321 321 321 320 320 320 320 318 318 319 321 320 321 321 321 320 320 322 322 323 321 319
328 331 331 331 330 329 329 327 326 325 324 324 324 324 322 322 320 320 322 323 322 322 323 321 320 321 320 320 320 320 319 319 320 321 322 321 320 322 323 323 323 322 320
327 330 331 332 330 329 329 328 327 326 326 325 324 323 323 323 322 321 319 319 323 322 322 322 322 321 321 320 320 320 322 322 323 322 323 323 323 323 323 323 323 322 320
325 328 331 332 331 330 329 328 327 327 326 326 325 324 323 324 323 323 324 323 323 323 322 321 321 321 321 321 321 322 322 322 322 322 323 323 322 323 323 323 321 321 320
325 329 330 331 331 330 329 329 328 327 326 326 325 325 325 324 324 322 322 323 323 323 322 322 322 321 321 321 321 322 322 322 323 323 322 320 319 315 315 314 313 312 312
321 325 329 330 331 331 330 329 328 327 326 326 326 326 325 325 325 324 324 323 323 322 322 322 322 322 322 322 322 323 323 321 320 317 313 305 301 301 301 303 302 302 303
320 320 326 329 330 331 331 329 329 327 326 325 325 326 327 326 326 326 325 325 324 324 323 323 323 320 316 313 319 320 320 317 313 306 299 295 294 293 294 293 294 296 295
319 319 323 325 329 330 331 330 330 328 326 325 326 325 326 326 326 325 325 324 323 318 317 314 312 309 306 307 315 318 311 305 298 295 293 291 291 291 291 291 290 291 291
319 320 324 324 325 329 330 330 330 330 328 327 327 327 326 326 326 324 316 316 313 309 304 300 299 298 296 299 301 301 297 294 291 290 289 289 289 289 289 289 288 287 287
322 323 323 324 323 327 329 329 329 330 329 328 327 327 327 314 311 307 305 301 302 297 294 293 292 291 290 293 294 295 292 289 287 286 286 286 286 286 287 286 287 287 285
323 324 324 324 324 322 328 328 328 324 314 311 309 308 307 304 300 297 295 293 292 289 288 288 288 288 288 289 290 290 288 287 285 284 283 283 283 283 284 283 282 282 283
318 320 318 318 315 312 309 307 305 303 301 300 300 300 299 296 293 292 290 289 288 287 286 285 285 285 286 286 287 287 286 286 285 284 282 282 283 282 282 280 280 281 282
310 312 312 309 309 307 303 300 298 297 297 295 294 293 292 292 291 289 288 287 286 285 285 284 284 283 283 283 283 283 284 283 282 282 282 282 282 282 281 281 281 281 280
304 303 302 300 299 300 299 297 296 295 294 293 292 291 290 290 289 288 288 287 287 286 286 285 284 284 283 283 282 282 282 283 282 282 282 281 281 281 280 280 280 278 277
300 300 299 298 297 296 296 294 293 292 291 290 289 288 287 287 287 288 288 287 287 286 285 283 282 281 279 279 279 279 279 280 282 281 280 279 279 278 278 277 276 276 275
297 298 297 297 296 295 294 293 292 290 289 287 286 285 284 283 282 282 282 282 283 283 281 280 280 279 278 277 277 277 277 278 279 279 277 276 276 275 275 274 274 273 272
296 297 297 296 296 295 294 293 292 290 289 288 286 284 283 282 281 280 279 278 278 278 278 277 276 276 276 276 276 276 276 277 277 276 275 274 274 273 273 272 272 271 271

GFSMW_925_thetae_105.txt.gz
Theta_e
328 329 330 331 330 330 329 328 327 328 328 327 327 328 331 331 329 328 329 330 330 328 328 328 327 328 326 326 324 325 323 320 319 317 317 316 317 319 319 320 319 318 317
331 329 329 329 329 329 327 326 326 326 325 325 325 325 326 329 330 328 327 330 328 324 328 327 327 327 327 327 326 323 320 319 317 315 315 313 315 316 317 318 319 319 318
331 331 329 327 328 327 326 325 325 326 325 324 325 324 325 325 327 329 327 328 327 326 327 326 327 327 326 326 324 321 319 318 319 316 316 315 315 313 315 315 317 318 319
332 331 329 326 326 326 326 325 325 325 325 324 324 324 324 324 325 325 327 326 326 325 326 324 325 326 326 324 322 320 319 320 320 316 318 318 318 313 312 314 314 315 317
331 330 329 327 326 326 326 325 325 324 324 323 323 324 325 325 326 326 326 326 325 325 325 323 323 323 323 323 323 321 319 321 320 319 317 317 317 318 315 312 312 313 313
330 330 329 327 325 325 326 325 325 325 324 323 325 324 324 324 326 327 325 325 324 323 322 320 321 321 320 320 320 320 321 321 321 320 319 317 317 316 316 313 314 313 315
330 330 329 328 325 324 325 326 325 324 324 323 325 324 324 324 324 324 324 323 322 322 322 320 320 319 320 318 320 320 320 318 321 320 320 319 318 318 318 316 315 314 317
330 330 328 327 326 324 325 326 324 323 324 323 324 324 324 324 323 322 321 322 321 321 321 320 319 318 318 319 320 320 316 318 320 320 320 320 318 319 319 319 318 314 315
330 329 327 327 326 325 324 325 323 323 323 322 324 323 324 323 323 322 322 321 321 320 320 320 318 317 320 321 320 317 317 317 320 320 320 320 320 320 319 319 320 320 319
328 329 327 326 326 325 324 324 324 322 322 322 323 323 322 323 323 322 321 321 320 320 320 319 316 317 320 320 319 319 318 318 315 319 319 319 319 318 318 319 319 320 320
328 330 327 327 327 325 324 324 324 322 322 323 322 322 322 322 322 322 322 320 320 320 319 319 318 319 319 318 319 319 318 321 320 320 321 321 320 320 320 320 320 321 321
325 329 328 327 327 326 325 325 323 323 322 323 323 322 322 321 322 323 322 321 321 321 319 319 318 319 318 320 320 319 319 320 319 319 319 319 320 321 321 321 321 321 321
319 326 329 328 328 327 325 325 325 324 322 323 324 323 322 322 319 322 322 321 321 321 322 321 320 320 319 319 319 319 319 319 319 319 320 321 322 321 321 320 319 317 318
319 322 327 328 328 327 327 326 325 325 324 324 323 323 323 323 320 319 319 321 322 322 322 322 322 321 321 320 320 320 320 320 321 320 319 318 316 313 311 310 309 308 307
316 317 322 325 328 327 327 327 326 326 325 324 323 323 323 323 323 322 322 320 319 322 322 322 322 321 321 321 321 321 321 320 317 312 307 303 300 299 300 301 299 299 300
317 316 317 322 326 328 327 327 326 326 325 325 324 324 323 323 323 323 322 323 323 323 323 322 321 319 317 316 319 319 318 315 308 300 296 294 293 293 292 292 292 293 292
324 321 316 317 321 328 328 327 326 326 325 325 324 324 324 324 324 323 322 322 322 319 317 315 313 310 308 312 316 316 311 304 296 293 292 290 290 290 290 289 288 287 287
322 322 322 321 321 328 328 327 326 326 325 324 325 325 325 325 325 323 318 315 311 308 305 303 302 301 297 301 303 305 299 293 290 289 288 288 288 288 288 288 286 286 285
319 319 317 315 314 319 328 328 326 325 325 324 324 325 325 318 314 308 304 300 301 296 293 292 292 291 290 292 294 295 291 288 286 285 285 286 285 285 284 284 283 283 283
313 316 313 311 309 307 324 326 325 319 311 312 313 315 312 308 302 299 296 294 293 290 289 288 288 288 288 288 289 289 287 284 283 283 283 283 281 281 281 281 282 282 281
308 308 306 304 305 303 304 303 302 301 300 301 302 304 303 301 297 293 291 290 288 287 286 286 286 286 287 287 287 286 285 283 282 283 282 282 281 281 281 281 280 279 278
304 304 302 301 301 302 301 300 298 297 296 295 294 293 292 291 290 290 288 287 286 285 284 284 284 283 283 284 283 283 282 282 282 282 282 282 281 281 279 278 277 276 276
301 300 300 299 298 297 298 297 296 296 295 293 292 291 290 289 288 287 287 286 286 286 285 284 283 281 281 281 282 282 282 282 280 280 280 279 278 277 276 276 274 273 272
299 298 298 297 296 294 294 293 293 292 291 290 289 289 288 288 288 287 287 286 285 284 282 281 279 278 278 279 280 281 281 281 279 278 277 276 274 274 273 272 272 271 270
298 297 296 295 294 293 292 291 290 289 288 286 285 284 283 283 282 281 281 281 282 281 280 279 278 278 277 277 278 279 279 278 276 275 274 273 272 272 271 271 270 269 269
290 293 294 294 293 292 291 289 288 287 286 285 283 282 281 280 279 279 278 278 277 277 277 277 277 277 277 277 277 277 277 275 274 272 271 271 271 270 270 269 269 269 269

GFSMW_925_thetae_108.txt.gz
Theta_e
318 328 329 329 329 330 329 329 330 329 329 329 331 330 327 328 329 330 329 328 330 329 327 322 319 318 318 313 320 322 324 322 320 320 318 317 320 319 319 318 317 316 315
327 328 329 328 328 328 328 328 327 328 328 329 329 330 330 327 328 328 329 330 330 329 328 324 321 319 320 317 320 322 322 319 320 318 316 313 314 318 319 318 319 318 317
328 329 329 327 327 327 328 327 327 328 327 327 326 326 328 329 328 328 329 329 328 328 328 327 324 323 321 322 320 323 322 319 318 319 315 312 313 312 314 315 318 319 318
328 329 328 326 326 325 326 326 326 326 325 325 325 325 325 326 327 328 327 328 329 328 328 327 326 326 325 323 322 324 321 319 316 315 315 316 315 314 313 314 314 315 318
327 330 328 327 325 325 324 325 326 325 324 325 324 324 323 323 324 325 328 327 328 327 327 327 327 326 326 325 323 322 320 318 317 316 317 317 318 317 312 312 312 314 314
326 329 328 326 324 324 324 325 325 325 324 324 323 323 324 323 323 324 325 326 327 325 324 325 325 326 325 324 322 321 320 319 318 316 317 317 316 316 316 312 313 313 316
323 329 327 326 323 323 323 324 324 324 323 323 323 324 323 324 324 325 326 325 326 325 323 324 324 325 325 325 324 322 320 320 320 319 318 318 317 317 317 316 314 313 316
324 329 328 326 324 323 323 324 324 324 323 323 323 324 324 324 324 326 325 325 324 324 322 322 322 323 324 324 323 321 321 320 320 319 318 320 319 317 317 317 316 313 313
328 329 328 325 324 323 323 324 324 324 323 322 324 324 324 324 323 324 323 323 324 323 322 321 321 321 321 320 320 319 319 320 319 317 317 319 320 319 318 318 318 318 318
329 329 328 326 325 324 323 323 323 323 323 322 323 323 324 324 323 322 322 322 321 321 321 320 320 320 320 317 317 318 320 319 318 317 319 319 320 320 320 320 319 319 319
321 328 327 326 325 324 323 322 323 322 322 322 322 322 323 323 323 322 322 322 322 321 320 320 319 318 318 319 318 318 319 319 317 317 317 318 316 318 319 319 319 319 319
317 325 326 326 324 323 323 322 322 322 322 321 321 321 323 323 323 323 321 321 321 321 320 319 320 320 319 319 320 320 319 318 317 316 318 318 318 319 319 320 320 320 320
317 322 327 327 325 324 323 322 322 321 321 321 321 321 321 322 322 322 322 321 320 320 320 319 318 318 318 319 320 320 319 318 318 318 319 319 319 319 319 318 317 315 313
318 321 327 327 325 325 324 323 322 321 321 322 323 321 321 321 321 322 321 321 320 320 320 319 319 318 318 318 317 318 319 319 318 318 317 314 311 312 310 309 307 306 306
320 321 325 326 327 326 325 324 323 322 321 322 322 322 321 321 320 321 322 321 321 321 321 320 319 319 318 318 318 318 318 319 316 310 307 302 298 297 299 299 298 297 297
323 322 321 323 328 327 326 325 324 323 322 322 322 322 322 321 321 319 320 321 321 321 320 321 321 320 319 320 319 320 319 314 308 301 296 295 294 293 292 292 293 293 292
319 320 319 317 315 327 327 326 325 324 323 323 322 322 322 321 321 321 320 319 319 319 318 314 313 311 311 314 316 317 311 304 297 294 292 290 290 290 289 289 289 287 286
316 317 314 312 310 310 326 326 326 325 324 323 323 322 322 322 322 321 318 316 313 312 309 305 304 304 298 304 308 310 301 294 291 290 289 288 287 287 287 286 285 284 283
312 312 309 308 307 307 317 326 326 325 324 323 323 323 323 320 318 313 307 305 305 300 298 296 296 296 292 293 296 299 291 288 286 285 285 285 284 284 284 284 282 281 281
307 307 305 304 304 305 310 325 323 324 317 317 319 322 318 314 306 302 298 296 296 293 292 291 291 290 289 289 289 290 287 284 283 282 282 281 281 282 282 281 279 279 279
303 303 301 301 301 303 304 302 302 301 302 305 308 307 307 307 304 298 295 294 290 289 288 287 287 287 287 286 286 286 284 283 283 282 282 281 281 279 279 278 277 276 276
300 300 300 299 299 301 301 300 299 298 299 298 298 296 295 294 293 291 290 288 287 286 285 285 284 284 284 284 283 283 283 283 282 282 281 280 279 277 276 275 274 274 273
299 298 298 296 295 296 298 298 297 295 295 293 292 291 290 289 289 288 287 286 286 285 284 283 282 281 283 283 282 281 282 281 280 279 278 277 276 274 273 273 272 271 270
298 297 296 295 294 293 293 293 293 293 292 291 290 289 289 288 287 286 286 285 284 283 281 280 280 279 280 281 281 279 279 278 277 276 274 273 272 272 271 270 270 269 268
296 296 294 293 291 290 290 289 289 288 287 287 286 284 283 282 281 281 281 281 281 281 279 279 279 279 279 279 280 279 278 276 274 274 273 272 271 270 269 269 268 268 267
291 291 293 292 291 289 288 287 286 285 284 283 282 281 281 280 279 279 279 279 279 279 278 278 278 278 279 279 278 277 275 274 274 272 270 269 269 269 268 268 267 267 266

GFSMW_925_thetae_111.txt.gz
Theta_e
314 315 327 329 330 332 332 330 330 330 330 331 330 328 328 328 328 327 326 325 327 328 326 325 325 320 313 311 311 314 318 317 319 319 317 318 318 318 317 317 316 316 315
313 324 326 327 329 329 329 329 330 330 329 329 331 329 329 327 328 328 328 325 326 326 325 324 322 317 313 311 313 316 317 318 319 317 315 312 315 318 317 317 317 318 317
313 324 327 326 327 327 327 328 329 329 329 329 330 329 329 327 328 329 329 329 328 327 325 324 322 317 315 312 314 317 319 319 318 319 317 313 314 313 317 318 318 318 317
315 324 328 325 325 326 326 327 328 328 328 328 328 328 327 328 328 327 328 328 329 328 327 326 323 318 317 314 316 319 321 320 317 317 318 316 314 313 313 314 317 318 318
318 326 328 327 326 326 325 326 326 327 327 327 327 327 327 327 327 327 327 328 328 328 328 326 322 320 318 319 316 321 321 321 318 317 315 315 315 314 312 312 311 313 316
315 321 326 327 325 324 324 325 326 326 325 324 324 324 324 325 325 326 327 327 328 327 328 328 324 322 321 321 320 321 321 320 318 317 317 316 317 316 315 313 312 312 314
320 318 325 326 324 322 323 324 324 324 323 323 323 324 323 323 323 323 324 325 327 327 327 327 326 325 323 323 322 321 321 319 318 316 316 317 317 317 317 317 315 314 316
320 323 326 326 324 323 322 323 324 324 323 323 322 323 323 323 322 323 323 324 324 326 324 325 326 326 325 324 323 321 320 318 318 317 317 317 317 317 317 316 317 313 313
318 321 327 325 324 323 322 323 323 323 323 323 323 322 323 323 324 324 325 325 326 325 324 324 324 325 325 324 322 320 320 320 321 319 317 317 318 317 319 319 316 316 318
317 319 327 325 324 323 322 323 323 323 323 322 323 323 323 322 322 323 324 324 325 324 323 323 324 324 324 323 322 321 322 320 320 320 320 319 317 317 317 319 319 319 317
320 319 322 325 325 323 322 322 322 322 322 322 322 323 323 322 322 323 323 323 323 322 321 322 322 322 322 322 322 323 320 320 319 319 319 318 317 316 318 319 317 319 318
319 317 317 325 323 323 322 322 322 322 322 322 322 322 322 322 322 322 322 322 322 322 322 321 320 320 320 321 321 319 319 318 318 318 318 317 317 318 318 317 318 319 318
318 317 318 326 324 324 322 322 321 321 321 322 321 322 322 322 322 321 322 322 321 320 320 321 320 319 318 318 319 319 318 317 318 318 318 317 317 318 318 317 316 317 315
318 321 322 326 325 324 323 322 321 321 321 321 321 321 321 322 322 322 321 321 321 320 320 319 319 320 319 320 320 319 319 319 319 318 317 316 315 313 312 311 308 306 304
322 322 320 325 325 325 324 323 322 320 320 320 320 319 320 321 322 322 321 321 320 320 320 319 319 318 318 319 319 319 319 318 316 312 308 305 305 305 303 301 299 298 296
319 319 317 317 318 320 324 323 322 321 320 321 321 319 319 320 321 321 321 321 320 320 319 319 318 318 318 318 318 318 317 316 311 304 297 295 294 294 294 293 293 293 292
317 317 314 313 313 312 314 325 323 322 321 321 321 321 320 319 319 320 321 320 320 319 319 318 318 317 317 318 318 318 315 308 301 296 293 290 290 290 290 288 288 287 286
314 314 310 309 308 307 310 318 324 322 321 321 321 321 321 320 319 318 318 317 316 315 313 311 310 310 307 312 317 316 305 297 292 291 290 288 288 287 287 286 284 282 282
309 308 306 305 305 305 307 320 324 323 323 322 322 321 321 320 318 314 311 310 310 306 303 301 301 302 296 299 305 310 295 290 288 288 287 286 285 284 286 285 282 280 279
303 303 302 302 303 303 307 316 321 323 323 322 323 322 321 319 313 311 305 302 303 298 296 293 292 290 289 289 289 293 289 285 283 284 283 283 283 283 282 281 279 277 276
300 300 299 298 299 302 304 305 304 302 306 313 318 318 314 311 309 305 303 300 295 292 290 288 287 287 287 285 285 285 284 283 282 281 280 280 279 278 277 277 276 275 274
299 298 298 297 296 299 300 301 301 299 301 304 302 302 301 299 297 295 292 291 289 287 286 285 285 285 285 285 284 284 283 282 281 280 279 278 276 275 274 274 273 273 272
298 297 296 295 294 294 296 296 296 296 295 294 293 293 293 292 292 290 288 287 286 286 285 285 284 283 283 282 282 282 281 280 279 278 277 276 274 273 273 272 271 271 270
297 295 294 293 292 291 291 292 292 292 292 290 289 288 287 286 286 287 287 286 284 283 283 282 282 281 280 280 280 279 278 278 277 275 274 274 272 271 270 270 269 268 268
293 294 292 291 290 289 288 288 288 288 286 285 284 283 282 282 282 281 281 280 280 281 281 281 281 281 280 279 280 279 277 275 274 273 272 271 270 270 269 268 268 267 267
290 292 291 290 288 287 287 286 285 285 284 283 282 282 282 281 281 281 280 280 280 280 280 280 280 280 279 279 278 277 275 274 274 272 270 269 269 268 268 267 266 266 266

GFSMW_925_thetae_114.txt.gz
Theta_e
310 312 314 319 326 328 330 330 332 333 331 328 327 327 327 328 326 327 327 326 325 326 327 326 326 325 325 317 319 319 317 317 318 318 316 317 317 317 317 317 316 315 315
311 311 313 325 327 329 330 330 332 331 329 328 327 327 326 327 328 327 326 325 326 325 323 323 324 324 321 315 316 316 315 317 319 318 316 314 316 317 317 317 317 316 316
309 310 312 323 326 328 328 328 329 330 329 330 327 327 326 328 328 327 325 325 327 327 327 326 325 324 321 314 314 315 316 317 318 318 317 313 316 314 317 317 317 317 316
310 310 312 322 324 326 327 327 328 328 329 329 327 327 327 327 328 327 327 325 327 326 325 325 323 323 321 312 312 314 316 317 317 318 317 318 315 314 313 315 318 318 317
315 316 315 323 325 326 326 327 326 326 328 328 328 327 327 326 326 328 328 327 325 326 326 325 324 323 318 312 311 314 316 317 317 317 316 315 314 314 312 312 312 316 318
316 316 317 321 325 325 325 325 325 325 327 327 327 327 327 327 327 327 327 328 328 327 325 325 324 322 319 314 311 313 315 318 318 318 318 316 315 315 313 312 311 312 313
315 315 316 323 324 324 323 324 324 324 325 326 326 326 326 327 327 327 327 327 327 328 327 326 325 324 321 317 313 316 317 319 319 318 317 317 316 316 317 317 314 314 316
316 316 317 320 325 324 323 323 323 324 324 324 325 325 324 324 325 326 326 327 327 327 327 327 325 323 322 319 317 316 318 320 320 319 317 316 316 317 317 316 315 315 314
316 316 316 317 323 324 322 323 323 324 324 324 324 323 323 323 323 322 323 323 324 326 327 327 327 325 322 321 320 318 318 319 320 318 316 316 317 317 317 317 318 316 316
315 316 316 317 317 323 323 322 323 323 323 323 323 322 323 322 322 323 323 324 324 324 324 325 326 326 324 323 321 319 319 319 319 317 317 317 317 316 316 317 318 318 316
316 316 316 316 318 323 323 322 322 323 322 322 322 322 322 322 322 322 323 324 324 325 325 324 325 324 324 322 321 320 319 319 319 318 318 318 317 317 317 318 318 317 317
316 317 319 319 322 323 323 322 322 322 320 322 322 322 322 322 322 322 322 322 323 324 324 323 324 324 323 322 322 320 320 320 320 319 318 318 318 319 318 317 317 317 318
315 315 319 319 323 323 322 322 322 321 320 322 321 321 322 322 322 322 322 321 322 322 322 322 322 323 322 322 322 321 321 320 320 320 319 319 318 318 317 317 317 317 316
316 315 319 318 319 324 323 322 321 321 320 322 322 321 321 321 321 321 321 321 321 321 321 320 320 320 321 321 320 320 319 319 319 318 318 317 317 317 316 314 313 311 308
315 314 318 316 315 317 324 322 321 320 320 321 321 320 321 321 321 322 321 321 321 320 320 320 320 319 319 319 319 319 319 318 316 313 312 311 311 311 310 308 304 302 300
316 316 317 315 313 312 313 322 321 320 320 320 320 319 320 321 321 321 321 320 320 320 319 319 319 319 319 319 319 319 318 315 312 305 300 298 301 300 300 299 298 297 296
316 315 314 311 310 309 309 311 321 320 320 320 320 319 319 319 320 320 320 319 319 318 318 317 317 317 317 318 318 318 315 310 305 302 297 292 291 292 292 291 290 289 288
312 309 308 306 305 305 306 308 313 320 319 320 320 319 319 318 319 319 318 317 315 316 314 312 313 313 311 315 317 316 307 299 294 292 290 289 287 287 287 286 283 281 281
305 304 303 302 302 303 304 308 312 322 320 320 320 320 320 318 317 316 314 313 311 307 306 306 308 308 298 301 308 313 297 291 288 288 287 287 285 284 284 283 280 278 277
301 300 301 300 299 300 302 308 320 322 321 321 320 320 319 318 316 315 310 305 304 300 298 296 295 293 292 292 293 298 291 286 284 284 284 283 282 282 283 281 278 276 275
299 299 299 298 296 297 301 304 303 303 308 318 319 316 314 313 312 307 304 301 296 293 290 289 288 288 288 286 287 287 286 283 281 280 279 279 281 280 279 278 277 275 273
298 297 297 295 293 294 297 299 298 297 300 307 308 305 301 301 300 298 294 293 291 288 286 286 285 285 285 284 283 282 282 281 280 278 277 277 276 275 274 273 272 272 272
297 295 294 293 291 291 293 294 294 294 293 296 294 293 294 292 293 290 288 287 287 286 286 285 285 284 283 282 281 281 281 280 278 277 276 275 274 273 272 271 271 271 271
295 294 293 291 290 289 289 290 291 291 290 288 288 289 289 289 289 289 288 287 286 286 284 282 281 281 280 280 280 279 278 277 276 275 274 272 271 271 270 270 269 269 269
292 292 291 290 289 288 287 287 287 287 286 285 284 284 283 283 283 282 282 282 282 283 282 281 281 280 279 278 278 278 276 275 274 273 271 271 270 269 269 268 268 268 268
289 289 289 288 287 286 285 284 285 285 284 284 283 283 283 282 282 282 282 282 283 284 283 281 281 279 279 278 278 277 277 276 275 272 270 269 269 268 268 267 267 267 266

GFSMW_925_thetae_117.txt.gz
Theta_e
314 312 312 312 314 320 325 328 330 330 329 329 328 327 325 325 325 324 324 325 326 327 328 328 327 325 324 321 321 319 319 320 320 319 319 318 318 319 319 319 319 318 318
313 316 316 315 318 324 328 329 330 329 330 330 329 328 326 326 329 328 326 326 326 326 326 327 325 324 323 321 319 319 319 320 319 321 320 321 319 318 318 318 319 318 318
319 320 320 319 320 324 327 329 330 329 330 330 329 328 326 326 327 327 327 326 326 325 325 326 324 323 321 319 319 319 319 319 319 320 321 322 324 319 318 318 318 318 318
321 319 319 319 322 323 327 328 329 328 329 329 328 328 327 327 326 328 327 326 325 325 324 323 323 321 320 318 318 318 319 318 320 319 318 321 319 323 320 317 318 318 318
320 319 319 318 322 324 327 328 328 328 327 327 327 328 326 326 328 328 326 326 325 323 323 323 323 322 319 319 316 317 318 319 320 320 318 317 317 319 320 322 318 317 318
320 318 318 318 320 325 326 327 328 325 327 328 327 327 326 326 327 327 327 325 326 325 323 324 323 323 318 317 315 316 317 318 319 320 318 318 318 318 318 319 320 320 317
317 317 318 319 318 324 323 325 325 324 324 327 327 326 326 328 327 327 328 327 326 326 325 325 323 322 323 319 314 315 316 317 319 319 318 318 318 317 318 318 316 317 316
316 317 318 318 318 319 324 323 324 324 323 325 325 325 327 327 328 327 328 327 327 326 325 325 325 324 321 320 315 314 316 317 318 318 318 317 317 316 316 316 317 319 318
317 318 319 318 320 319 320 323 323 324 324 323 324 325 325 326 326 326 327 327 327 327 327 325 324 323 324 323 318 315 316 316 317 317 317 317 316 316 317 317 317 317 319
318 318 319 320 320 323 322 324 323 323 323 324 325 325 325 324 324 324 324 324 325 326 327 326 326 325 323 322 319 317 317 316 317 317 317 316 316 317 317 317 317 317 317
318 317 318 319 317 319 324 323 323 323 323 324 325 325 324 323 323 322 322 323 324 324 324 324 326 325 325 323 321 318 317 317 317 317 318 316 317 317 317 316 316 317 318
318 316 317 317 317 315 322 323 322 323 323 324 324 324 322 322 322 321 322 322 323 324 324 325 325 324 325 322 322 319 318 317 317 318 318 318 318 318 317 317 317 317 317
316 315 315 315 316 315 314 323 322 322 322 322 324 323 323 321 322 322 322 322 322 322 323 324 324 324 325 323 322 321 319 318 317 317 317 317 318 318 317 318 317 317 317
316 315 315 315 315 315 313 315 322 322 321 321 322 322 322 321 322 322 321 321 322 321 322 322 322 322 323 322 322 320 320 319 318 318 318 318 318 317 318 317 317 316 315
317 316 317 317 315 313 311 311 319 321 320 321 322 322 322 321 322 321 321 321 321 321 321 320 321 322 322 322 322 320 319 318 318 317 316 315 316 317 316 314 310 310 307
318 318 317 315 311 309 309 308 310 321 320 321 323 322 321 321 321 321 321 320 320 320 320 319 319 319 319 320 319 319 319 311 310 308 306 304 306 306 306 305 302 300 298
315 312 311 310 307 306 305 307 308 311 320 320 321 321 320 320 320 320 321 319 319 319 318 317 318 317 318 319 317 315 310 309 304 304 299 295 292 296 295 293 293 291 290
309 307 306 305 304 303 303 303 306 311 320 320 320 320 319 320 320 320 319 318 317 317 315 314 313 314 308 316 316 313 305 299 294 292 291 290 289 289 290 289 285 282 281
304 303 302 302 301 301 300 302 307 313 319 320 320 319 319 319 318 317 316 314 312 308 308 306 306 306 298 300 310 310 296 291 288 288 287 288 286 285 286 285 279 277 276
300 300 300 300 298 297 298 302 303 307 320 320 320 319 319 316 314 313 308 304 304 300 298 297 297 296 293 294 296 302 293 287 284 283 283 283 283 282 283 281 278 275 274
299 298 298 296 295 294 296 298 298 296 298 311 319 318 316 313 309 305 303 301 296 294 292 290 289 290 290 289 289 288 286 283 281 281 280 280 280 281 279 279 277 275 273
297 296 295 294 292 292 293 294 294 293 296 300 306 308 307 305 303 301 295 294 293 289 287 286 285 285 285 284 283 283 282 281 279 278 278 278 277 276 275 275 274 273 273
295 294 293 292 290 289 289 290 290 291 292 295 292 294 296 294 295 293 291 289 289 288 286 286 284 283 282 282 281 283 283 282 278 277 276 276 275 274 273 272 272 272 271
293 292 291 290 289 288 287 287 287 288 290 289 291 291 290 290 289 289 288 288 287 286 285 284 283 281 280 280 279 279 278 277 276 275 274 273 272 272 271 271 271 270 270
290 290 289 288 287 286 285 285 286 286 286 286 286 286 286 285 285 285 285 286 285 285 283 282 281 281 280 278 278 277 276 275 275 274 272 271 271 271 270 270 269 269 269
286 286 286 285 285 284 284 283 284 285 285 284 284 284 284 285 284 284 283 283 283 283 282 281 281 279 278 277 277 277 276 276 274 273 272 271 271 271 270 269 269 268 268

GFSMW_925_thetae_120.txt.gz
Theta_e
316 315 320 322 323 324 324 325 326 328 332 335 336 333 330 328 329 328 328 328 329 330 329 329 328 327 326 325 325 325 325 324 325 324 323 323 323 323 322 321 320 319 319
316 320 321 322 323 326 328 328 330 331 333 333 333 332 331 331 329 326 327 326 327 328 328 328 328 326 325 325 324 325 325 324 325 324 323 324 323 322 322 322 320 319 319
321 322 323 323 323 326 329 329 330 332 332 332 331 333 331 330 326 327 326 326 328 330 329 328 328 325 324 323 323 324 324 325 324 323 323 325 325 323 322 322 321 321 320
322 322 322 323 323 327 330 330 331 332 330 332 331 333 332 332 330 329 329 329 330 328 326 326 326 324 324 323 322 323 323 324 325 324 322 321 321 325 325 322 322 322 321
323 320 320 321 322 325 329 330 331 330 329 331 333 333 334 332 330 329 330 330 327 326 326 325 325 325 324 323 322 323 324 324 324 324 323 323 324 322 323 325 322 322 322
319 319 319 320 321 322 326 328 329 329 329 330 333 333 333 331 331 331 330 329 325 324 324 323 322 322 322 322 321 322 323 324 324 323 323 323 323 323 323 323 322 322 322
319 319 320 322 322 324 323 326 326 328 326 327 331 332 331 330 330 331 330 329 326 323 322 322 321 319 319 320 320 320 322 322 324 323 323 322 321 320 321 321 322 322 321
319 319 320 323 323 324 327 325 327 326 326 325 327 330 330 328 329 330 330 328 328 325 323 321 320 319 319 320 319 320 322 322 323 323 323 322 321 321 320 320 322 323 320
318 318 318 321 321 322 324 327 326 327 326 325 326 328 328 330 330 330 330 330 327 327 325 324 321 321 319 319 318 319 320 321 323 323 323 322 321 322 321 320 320 320 322
316 317 318 319 318 319 320 320 328 326 325 325 325 329 329 329 329 329 330 330 328 327 327 325 323 322 321 318 318 317 318 319 321 322 323 322 322 321 319 317 320 320 320
314 317 318 317 317 318 318 318 321 325 324 325 324 328 328 328 328 326 327 327 326 326 327 326 324 324 322 322 321 319 318 318 319 320 321 321 320 317 317 317 317 317 317
314 316 317 317 317 318 318 317 314 323 324 324 324 328 328 327 327 326 325 324 324 326 326 324 325 325 323 322 321 320 321 320 320 319 319 319 318 317 317 317 317 317 317
313 315 316 318 317 317 316 316 313 313 323 324 325 326 327 326 325 324 324 324 323 323 323 324 325 325 324 322 322 320 320 320 319 319 318 318 317 317 317 317 317 317 317
310 314 317 319 317 316 315 314 311 312 321 323 324 326 326 324 324 324 324 322 322 322 322 323 323 323 323 324 323 322 320 319 318 317 317 317 317 315 317 317 317 317 317
310 316 319 320 318 314 312 310 309 310 314 322 324 324 323 324 325 324 323 323 322 321 321 321 321 322 322 322 322 321 320 319 317 316 317 317 315 316 316 317 317 317 313
316 318 318 316 314 311 309 307 308 308 308 322 323 323 324 325 324 324 322 321 321 320 320 320 320 320 321 321 321 320 318 314 310 307 307 306 315 315 316 315 310 308 307
317 315 314 312 311 310 307 305 305 306 308 315 322 323 324 324 324 323 322 320 320 319 319 318 318 316 312 319 320 317 308 303 304 300 300 299 297 304 304 300 299 297 296
313 311 310 308 307 306 306 302 303 305 308 311 322 323 323 323 323 322 320 319 317 316 314 312 311 310 302 314 311 307 301 298 295 293 292 297 293 294 297 294 290 286 284
308 307 306 304 304 302 300 300 303 303 305 310 321 322 322 322 322 317 317 315 313 308 307 304 304 304 297 302 309 306 296 291 289 288 289 291 289 287 291 290 281 277 276
303 302 301 301 299 297 296 299 299 298 298 299 312 321 321 321 315 314 309 305 308 302 300 297 296 295 294 295 301 304 294 287 284 284 285 286 284 283 284 283 278 275 275
300 298 298 297 295 293 293 295 295 295 294 297 306 319 319 316 313 307 305 302 298 295 292 291 290 290 291 290 292 294 291 285 283 282 281 280 280 280 280 278 276 275 274
297 296 295 294 292 290 291 292 291 290 292 295 299 310 313 311 306 303 296 295 294 290 288 287 286 286 287 286 285 286 286 283 282 280 279 278 278 277 276 276 275 275 274
295 294 293 292 290 288 288 289 289 289 291 292 294 294 297 299 298 296 293 291 290 289 287 286 284 283 283 282 281 281 280 279 279 278 278 277 276 276 275 275 274 274 275
292 292 292 291 288 287 286 286 287 287 290 291 291 292 291 290 291 291 291 290 289 288 286 285 284 282 281 281 280 280 279 278 277 276 274 274 274 274 273 273 274 275 275
290 290 289 289 287 285 285 285 286 287 287 288 288 288 290 288 286 287 287 286 286 285 284 283 282 281 280 280 279 278 276 275 274 274 274 274 274 275 274 273 273 274 273
287 287 287 287 286 283 283 283 284 285 286 286 286 286 286 286 285 284 283 285 285 286 283 282 280 280 278 278 277 276 275 275 276 277 276 276 276 275 274 273 272 272 272

GFSMW_925_thetae_123.txt.gz
Theta_e
316 316 317 320 322 324 326 325 326 325 323 327 334 338 342 339 336 335 338 339 335 336 334 333 332 331 329 328 326 326 326 326 327 325 324 324 323 323 322 321 319 320 320
317 317 320 322 324 325 326 330 329 329 329 329 333 337 339 333 332 332 336 336 334 333 331 333 330 330 328 326 326 326 324 325 327 326 324 325 324 323 322 321 321 320 319
317 320 322 323 325 326 330 331 330 330 332 332 335 336 333 331 330 330 332 334 332 331 331 330 330 329 328 326 326 326 324 325 325 324 325 326 326 324 323 322 322 320 319
321 321 321 322 323 325 330 332 332 332 333 334 335 334 332 333 331 330 330 332 331 330 331 331 329 328 327 326 325 325 324 324 325 325 324 323 323 327 326 322 322 321 320
321 320 320 321 321 324 326 330 333 333 333 333 335 333 333 333 333 334 331 331 330 331 332 331 329 328 327 326 325 325 325 324 325 325 325 324 324 324 325 326 323 322 321
320 320 320 320 322 324 326 326 329 331 330 331 332 332 333 335 335 334 332 332 332 331 331 330 328 327 326 325 324 325 323 323 325 325 325 325 325 325 326 326 325 323 322
320 320 320 322 322 324 326 328 327 329 329 330 332 332 334 335 335 332 331 333 329 328 328 327 325 325 325 324 323 324 323 323 325 325 325 326 324 325 324 325 325 325 323
320 319 319 320 321 322 322 326 327 328 328 329 329 331 333 334 334 333 332 332 329 326 325 324 324 323 323 323 323 323 323 322 324 324 325 325 324 323 324 323 324 326 324
319 318 318 319 319 318 320 323 327 328 328 327 328 328 331 333 333 331 330 331 331 328 325 323 322 322 322 322 322 322 323 324 324 323 324 324 324 323 322 322 323 324 326
314 315 317 318 317 318 319 321 323 327 328 327 327 327 328 331 331 331 332 332 331 329 326 324 322 321 320 320 320 321 322 323 323 323 324 325 324 323 323 322 323 323 322
309 312 316 317 317 318 319 320 320 322 326 326 326 326 327 329 331 331 331 331 331 330 328 325 322 321 319 319 319 320 321 322 323 323 324 325 324 323 324 323 324 322 321
308 309 315 316 317 318 318 318 319 319 320 325 325 326 325 329 329 329 329 330 330 329 327 326 324 322 320 319 318 319 320 321 322 323 323 324 324 324 324 323 321 320 318
308 308 312 315 317 318 318 317 317 317 318 320 324 325 325 328 329 328 328 327 327 327 328 326 326 324 322 320 318 319 319 319 320 321 322 323 323 323 322 320 319 319 318
308 308 310 315 317 319 317 316 314 315 314 315 323 324 326 328 328 327 326 326 326 326 326 326 327 327 324 322 321 320 321 320 320 320 321 322 322 322 320 318 318 317 317
308 311 314 318 319 318 316 315 312 313 312 312 317 324 325 327 326 325 325 325 325 324 324 324 324 324 324 324 323 322 321 321 321 321 321 320 320 319 318 317 316 315 317
309 313 317 316 316 315 314 313 311 308 310 310 314 320 324 325 325 325 325 324 325 324 322 322 321 321 321 322 322 323 321 320 317 318 317 317 318 317 317 315 314 315 316
315 315 315 314 313 311 310 309 308 307 307 309 311 314 324 324 326 325 324 324 323 321 320 319 318 317 316 319 321 320 314 308 307 307 305 306 303 307 307 311 311 308 306
314 313 313 311 309 308 305 303 304 306 305 305 307 312 322 325 325 325 323 321 319 317 315 313 312 310 304 311 315 315 306 301 296 298 299 302 300 300 304 302 297 292 291
310 309 307 306 305 302 300 300 302 302 302 301 302 305 320 324 325 323 318 317 315 309 307 305 305 303 296 301 311 309 297 294 292 292 292 293 294 292 297 298 285 279 278
303 303 303 302 300 297 296 298 298 297 297 295 296 301 306 323 321 316 314 308 308 302 300 297 297 295 293 294 300 305 295 289 287 286 286 286 285 286 291 291 282 277 276
300 299 299 298 295 293 293 294 295 293 292 293 294 298 305 317 318 312 309 304 299 296 293 292 291 291 291 290 290 293 291 287 284 282 282 281 281 280 281 281 278 276 275
298 298 298 297 294 290 290 291 292 290 290 291 293 295 306 311 311 307 299 297 295 291 289 288 287 288 288 287 287 287 287 285 283 281 280 279 279 278 278 278 277 276 276
296 296 296 295 294 290 287 288 288 288 289 291 292 293 297 299 303 299 294 292 291 290 288 287 286 285 284 284 283 283 282 281 280 279 279 279 278 278 277 277 276 276 276
294 293 293 293 292 289 287 285 286 287 288 289 291 292 293 291 292 293 293 292 290 289 287 285 284 283 282 281 281 280 280 279 279 278 276 276 276 276 276 277 278 278 279
290 290 290 289 289 288 285 284 285 286 287 287 288 290 290 289 286 286 287 288 289 288 286 284 283 282 281 281 280 279 277 276 274 275 276 276 276 276 276 276 277 277 277
287 286 286 286 286 286 284 282 283 285 286 286 286 287 287 286 285 284 284 284 283 283 282 282 281 280 279 278 277 277 276 276 277 277 278 278 277 277 277 277 276 276 275

GFSMW_925_thetae_126.txt.gz
Theta_e
318 317 318 318 321 322 323 325 325 323 323 325 336 341 343 341 340 338 338 342 338 338 338 338 336 334 332 330 328 328 327 327 327 327 325 325 322 321 321 322 321 321 320
317 317 318 321 323 324 325 325 328 329 328 327 325 334 339 343 340 338 336 339 340 337 337 336 335 333 332 330 329 328 327 326 327 326 325 323 323 323 322 321 321 320 320
316 319 323 322 324 325 329 331 331 331 330 330 329 331 338 339 337 336 336 334 339 337 337 336 334 333 332 329 328 327 326 324 326 326 324 323 323 323 322 321 321 320 319
320 322 323 323 324 326 326 330 332 333 332 332 332 336 337 334 333 333 333 334 335 335 333 333 333 330 329 328 328 327 326 324 324 326 324 323 323 323 323 322 321 322 318
322 321 321 321 321 325 326 326 330 332 334 335 334 337 335 334 333 332 331 332 332 332 332 332 330 330 329 327 327 327 326 324 323 325 324 323 324 323 322 323 322 323 319
321 320 321 320 323 325 326 328 329 329 330 331 332 335 336 333 332 331 331 331 331 332 331 329 332 329 328 328 327 326 326 324 323 325 324 324 324 323 322 321 321 321 321
321 321 321 321 321 322 323 324 326 328 330 329 329 331 334 333 332 335 334 333 332 332 331 330 332 330 328 327 327 326 326 324 323 324 324 324 324 323 323 322 322 321 322
321 321 320 320 320 320 320 322 323 327 330 329 328 329 332 333 333 334 333 332 332 330 329 331 330 329 328 327 327 326 325 325 323 325 324 324 323 324 324 323 323 322 322
320 319 318 319 319 318 320 322 322 323 326 328 327 328 330 331 334 334 333 331 333 330 328 326 325 326 325 325 325 324 325 324 323 324 324 324 324 325 324 324 324 322 323
316 315 316 318 317 318 319 320 320 321 321 325 327 326 328 329 332 333 332 330 331 330 328 325 322 323 323 323 323 323 324 323 322 323 324 324 325 324 324 324 323 323 322
310 311 314 316 316 318 318 319 319 319 320 321 323 327 327 327 328 331 332 331 331 330 328 326 322 322 322 322 322 322 323 323 321 323 324 324 324 324 323 322 324 323 322
309 309 309 314 315 317 318 318 318 317 317 318 319 324 327 326 327 329 331 331 332 331 329 326 323 322 322 321 321 321 322 323 323 323 323 322 323 323 323 323 324 323 322
308 309 309 309 315 316 319 318 316 315 316 315 315 319 325 326 326 329 330 331 331 330 329 327 325 323 323 321 320 320 321 322 323 323 322 322 321 322 322 322 322 322 321
307 308 310 310 319 319 318 316 316 313 313 313 314 315 322 325 325 327 329 328 329 329 329 327 326 323 323 322 320 319 320 321 322 323 323 323 323 322 322 322 321 321 319
307 308 310 318 317 315 315 314 313 313 311 309 311 313 314 323 325 328 328 328 327 326 327 327 327 326 324 322 320 319 319 320 320 321 323 323 321 322 322 321 320 319 317
308 309 316 315 314 313 312 311 310 308 308 309 309 311 311 317 325 326 327 326 325 325 325 325 325 324 324 323 322 321 319 319 319 319 320 321 321 322 322 320 319 318 316
313 314 313 312 311 310 308 306 305 305 306 307 307 307 306 313 324 325 326 325 324 324 323 322 322 321 322 323 322 322 321 320 319 316 318 318 316 321 318 318 317 317 315
312 311 309 308 308 306 303 301 301 303 303 303 304 302 301 306 318 325 325 324 324 321 319 317 316 315 314 317 320 321 316 308 302 304 304 312 306 308 314 312 307 303 302
305 304 304 304 303 300 298 297 299 300 299 298 298 298 298 299 306 316 322 322 319 315 313 309 307 309 302 304 311 314 304 297 295 296 297 298 297 296 300 300 293 287 284
301 301 301 300 298 296 294 294 296 296 295 294 293 294 296 297 301 312 315 314 315 307 303 299 298 298 296 296 299 306 298 292 289 289 290 292 293 291 300 302 292 280 279
299 299 299 299 297 294 292 291 291 292 290 291 291 293 295 296 304 310 311 308 303 298 295 293 292 292 292 292 293 293 294 289 285 284 283 283 284 285 287 289 284 280 279
297 297 297 297 296 293 291 289 288 288 288 289 290 292 293 298 308 305 301 300 297 293 290 289 288 288 289 288 288 289 288 287 285 281 281 280 280 280 281 281 278 277 277
294 294 294 293 293 291 289 287 286 286 287 288 289 291 292 296 299 298 296 294 293 291 289 288 287 286 285 285 284 283 283 283 281 280 280 280 279 279 278 278 277 277 277
291 290 290 289 289 288 287 285 284 284 287 288 288 290 290 292 294 294 294 294 292 290 289 287 285 283 283 282 282 281 281 280 280 279 278 278 278 278 278 278 278 278 278
288 287 286 286 286 285 285 284 283 284 286 287 286 287 287 287 287 286 286 289 291 290 288 286 284 283 282 281 281 280 278 277 277 277 278 278 278 278 278 278 278 278 277
286 285 284 283 284 283 283 283 282 283 284 286 285 285 285 284 285 284 283 284 285 285 284 283 283 282 281 280 279 278 278 278 278 278 278 278 278 278 278 278 277 277 276